<?xml version="1.0" encoding="UTF-8" standalone="no" ?>
<gpx xmlns="http://www.topografix.com/GPX/1/1" xmlns:xsi="http://www.w3.org/2001/XMLSchema-instance" xsi:schemaLocation="http://www.topografix.com/GPX/1/1 http://www.topografix.com/GPX/1/1/gpx.xsd" version="1.1" creator="VisuGPX - https://www.visugpx.com">
  <metadata>
    <name>Cadaques J9</name>
    <desc><![CDATA[File with points/tracks from Locus Map/4.25.1]]></desc>
  </metadata>
  <trk>
    <name><![CDATA[2024-09-24 Figueras J9]]></name>
    <extensions>
      <line xmlns="http://www.topografix.com/GPX/gpx_style/0/2">
        <color>0000FF</color>
        <opacity>0.70</opacity>
        <width>6.0</width>
      </line>
    </extensions>
    <trkseg>
      <trkpt lat="42.28991" lon="3.2814">
        <ele>41.62</ele>
        <time>2024-09-24T06:40:22.999Z</time>
      </trkpt>
      <trkpt lat="42.28981" lon="3.2814">
        <ele>41.69</ele>
        <time>2024-09-24T06:48:39.000Z</time>
      </trkpt>
      <trkpt lat="42.28967" lon="3.2813">
        <ele>39.92</ele>
        <time>2024-09-24T06:48:44.000Z</time>
      </trkpt>
      <trkpt lat="42.28947" lon="3.28115">
        <ele>37.41</ele>
        <time>2024-09-24T06:48:49.000Z</time>
      </trkpt>
      <trkpt lat="42.2893" lon="3.28103">
        <ele>36.66</ele>
        <time>2024-09-24T06:48:54.000Z</time>
      </trkpt>
      <trkpt lat="42.28925" lon="3.28113">
        <ele>34.73</ele>
        <time>2024-09-24T06:49:32.000Z</time>
      </trkpt>
      <trkpt lat="42.28927" lon="3.28125">
        <ele>34.13</ele>
        <time>2024-09-24T06:49:44.000Z</time>
      </trkpt>
      <trkpt lat="42.28918" lon="3.28129">
        <ele>33.13</ele>
        <time>2024-09-24T06:50:01.000Z</time>
      </trkpt>
      <trkpt lat="42.28904" lon="3.28109">
        <ele>31.56</ele>
        <time>2024-09-24T06:50:06.000Z</time>
      </trkpt>
      <trkpt lat="42.28892" lon="3.28093">
        <ele>31.25</ele>
        <time>2024-09-24T06:50:11.000Z</time>
      </trkpt>
      <trkpt lat="42.28883" lon="3.28083">
        <ele>31.07</ele>
        <time>2024-09-24T06:50:16.000Z</time>
      </trkpt>
      <trkpt lat="42.2888" lon="3.28071">
        <ele>30.8</ele>
        <time>2024-09-24T06:50:22.000Z</time>
      </trkpt>
      <trkpt lat="42.28876" lon="3.2806">
        <ele>30.58</ele>
        <time>2024-09-24T06:50:27.000Z</time>
      </trkpt>
      <trkpt lat="42.28873" lon="3.28047">
        <ele>30.36</ele>
        <time>2024-09-24T06:50:32.000Z</time>
      </trkpt>
      <trkpt lat="42.28869" lon="3.28034">
        <ele>30.13</ele>
        <time>2024-09-24T06:50:38.000Z</time>
      </trkpt>
      <trkpt lat="42.28874" lon="3.28022">
        <ele>29.91</ele>
        <time>2024-09-24T06:50:44.000Z</time>
      </trkpt>
      <trkpt lat="42.28879" lon="3.28012">
        <ele>29.73</ele>
        <time>2024-09-24T06:50:49.000Z</time>
      </trkpt>
      <trkpt lat="42.28885" lon="3.28">
        <ele>29.56</ele>
        <time>2024-09-24T06:50:54.000Z</time>
      </trkpt>
      <trkpt lat="42.2889" lon="3.27989">
        <ele>29.34</ele>
        <time>2024-09-24T06:50:59.000Z</time>
      </trkpt>
      <trkpt lat="42.28896" lon="3.27976">
        <ele>29.09</ele>
        <time>2024-09-24T06:51:04.000Z</time>
      </trkpt>
      <trkpt lat="42.289" lon="3.27963">
        <ele>28.82</ele>
        <time>2024-09-24T06:51:09.000Z</time>
      </trkpt>
      <trkpt lat="42.28904" lon="3.27951">
        <ele>28.46</ele>
        <time>2024-09-24T06:51:14.000Z</time>
      </trkpt>
      <trkpt lat="42.28904" lon="3.27939">
        <ele>28.01</ele>
        <time>2024-09-24T06:51:19.000Z</time>
      </trkpt>
      <trkpt lat="42.28904" lon="3.27924">
        <ele>27.54</ele>
        <time>2024-09-24T06:51:24.000Z</time>
      </trkpt>
      <trkpt lat="42.28905" lon="3.27912">
        <ele>27.06</ele>
        <time>2024-09-24T06:51:29.000Z</time>
      </trkpt>
      <trkpt lat="42.28903" lon="3.27899">
        <ele>26.59</ele>
        <time>2024-09-24T06:51:34.000Z</time>
      </trkpt>
      <trkpt lat="42.28902" lon="3.27884">
        <ele>26.11</ele>
        <time>2024-09-24T06:51:39.000Z</time>
      </trkpt>
      <trkpt lat="42.28901" lon="3.2787">
        <ele>25.53</ele>
        <time>2024-09-24T06:51:45.000Z</time>
      </trkpt>
      <trkpt lat="42.28898" lon="3.27858">
        <ele>25.06</ele>
        <time>2024-09-24T06:51:50.000Z</time>
      </trkpt>
      <trkpt lat="42.28894" lon="3.27844">
        <ele>24.61</ele>
        <time>2024-09-24T06:51:55.000Z</time>
      </trkpt>
      <trkpt lat="42.28891" lon="3.27831">
        <ele>24.2</ele>
        <time>2024-09-24T06:52:00.000Z</time>
      </trkpt>
      <trkpt lat="42.28887" lon="3.27818">
        <ele>23.75</ele>
        <time>2024-09-24T06:52:06.000Z</time>
      </trkpt>
      <trkpt lat="42.28884" lon="3.27804">
        <ele>23.4</ele>
        <time>2024-09-24T06:52:11.000Z</time>
      </trkpt>
      <trkpt lat="42.28885" lon="3.27792">
        <ele>23.07</ele>
        <time>2024-09-24T06:52:16.000Z</time>
      </trkpt>
      <trkpt lat="42.28888" lon="3.2778">
        <ele>22.75</ele>
        <time>2024-09-24T06:52:21.000Z</time>
      </trkpt>
      <trkpt lat="42.28894" lon="3.2777">
        <ele>22.37</ele>
        <time>2024-09-24T06:52:27.000Z</time>
      </trkpt>
      <trkpt lat="42.28904" lon="3.27774">
        <ele>20.24</ele>
        <time>2024-09-24T06:56:34.999Z</time>
      </trkpt>
      <trkpt lat="42.28914" lon="3.27775">
        <ele>20.2</ele>
        <time>2024-09-24T06:56:39.999Z</time>
      </trkpt>
      <trkpt lat="42.28928" lon="3.27766">
        <ele>20.16</ele>
        <time>2024-09-24T06:56:44.999Z</time>
      </trkpt>
      <trkpt lat="42.28937" lon="3.27756">
        <ele>20.14</ele>
        <time>2024-09-24T06:56:49.999Z</time>
      </trkpt>
      <trkpt lat="42.28946" lon="3.27742">
        <ele>20.12</ele>
        <time>2024-09-24T06:56:54.999Z</time>
      </trkpt>
      <trkpt lat="42.28956" lon="3.27728">
        <ele>20.1</ele>
        <time>2024-09-24T06:56:59.999Z</time>
      </trkpt>
      <trkpt lat="42.28966" lon="3.27714">
        <ele>20.08</ele>
        <time>2024-09-24T06:57:04.999Z</time>
      </trkpt>
      <trkpt lat="42.28975" lon="3.27701">
        <ele>20.07</ele>
        <time>2024-09-24T06:57:09.999Z</time>
      </trkpt>
      <trkpt lat="42.28979" lon="3.27686">
        <ele>20.08</ele>
        <time>2024-09-24T06:57:14.999Z</time>
      </trkpt>
      <trkpt lat="42.28982" lon="3.27664">
        <ele>20.09</ele>
        <time>2024-09-24T06:57:19.999Z</time>
      </trkpt>
      <trkpt lat="42.28986" lon="3.27641">
        <ele>20.12</ele>
        <time>2024-09-24T06:57:24.999Z</time>
      </trkpt>
      <trkpt lat="42.28992" lon="3.27619">
        <ele>20.14</ele>
        <time>2024-09-24T06:57:29.999Z</time>
      </trkpt>
      <trkpt lat="42.28999" lon="3.27598">
        <ele>20.16</ele>
        <time>2024-09-24T06:57:34.999Z</time>
      </trkpt>
      <trkpt lat="42.29002" lon="3.27575">
        <ele>20.18</ele>
        <time>2024-09-24T06:57:39.999Z</time>
      </trkpt>
      <trkpt lat="42.29003" lon="3.27557">
        <ele>20.2</ele>
        <time>2024-09-24T06:57:44.999Z</time>
      </trkpt>
      <trkpt lat="42.29005" lon="3.27534">
        <ele>20.22</ele>
        <time>2024-09-24T06:57:49.999Z</time>
      </trkpt>
      <trkpt lat="42.29005" lon="3.27515">
        <ele>20.25</ele>
        <time>2024-09-24T06:57:54.999Z</time>
      </trkpt>
      <trkpt lat="42.29003" lon="3.27494">
        <ele>20.28</ele>
        <time>2024-09-24T06:57:59.999Z</time>
      </trkpt>
      <trkpt lat="42.29" lon="3.27473">
        <ele>20.31</ele>
        <time>2024-09-24T06:58:04.999Z</time>
      </trkpt>
      <trkpt lat="42.28998" lon="3.27454">
        <ele>20.35</ele>
        <time>2024-09-24T06:58:09.999Z</time>
      </trkpt>
      <trkpt lat="42.29001" lon="3.27438">
        <ele>20.4</ele>
        <time>2024-09-24T06:58:14.999Z</time>
      </trkpt>
      <trkpt lat="42.29006" lon="3.27426">
        <ele>20.52</ele>
        <time>2024-09-24T06:58:48.999Z</time>
      </trkpt>
      <trkpt lat="42.29011" lon="3.27417">
        <ele>20.61</ele>
        <time>2024-09-24T06:59:48.999Z</time>
      </trkpt>
      <trkpt lat="42.2902" lon="3.27406">
        <ele>20.6</ele>
        <time>2024-09-24T06:59:53.999Z</time>
      </trkpt>
      <trkpt lat="42.29029" lon="3.27398">
        <ele>20.59</ele>
        <time>2024-09-24T06:59:58.999Z</time>
      </trkpt>
      <trkpt lat="42.29037" lon="3.27386">
        <ele>20.59</ele>
        <time>2024-09-24T07:00:03.999Z</time>
      </trkpt>
      <trkpt lat="42.2904" lon="3.27367">
        <ele>20.6</ele>
        <time>2024-09-24T07:00:08.999Z</time>
      </trkpt>
      <trkpt lat="42.29048" lon="3.27353">
        <ele>20.62</ele>
        <time>2024-09-24T07:00:13.999Z</time>
      </trkpt>
      <trkpt lat="42.29055" lon="3.27342">
        <ele>20.71</ele>
        <time>2024-09-24T07:00:18.999Z</time>
      </trkpt>
      <trkpt lat="42.29062" lon="3.2733">
        <ele>20.84</ele>
        <time>2024-09-24T07:00:23.999Z</time>
      </trkpt>
      <trkpt lat="42.29069" lon="3.27318">
        <ele>21</ele>
        <time>2024-09-24T07:00:28.999Z</time>
      </trkpt>
      <trkpt lat="42.29075" lon="3.27309">
        <ele>21.22</ele>
        <time>2024-09-24T07:00:33.999Z</time>
      </trkpt>
      <trkpt lat="42.29082" lon="3.27299">
        <ele>21.48</ele>
        <time>2024-09-24T07:00:38.999Z</time>
      </trkpt>
      <trkpt lat="42.29088" lon="3.27288">
        <ele>21.75</ele>
        <time>2024-09-24T07:00:43.999Z</time>
      </trkpt>
      <trkpt lat="42.29093" lon="3.27274">
        <ele>22.03</ele>
        <time>2024-09-24T07:00:48.999Z</time>
      </trkpt>
      <trkpt lat="42.29095" lon="3.2726">
        <ele>22.3</ele>
        <time>2024-09-24T07:00:53.999Z</time>
      </trkpt>
      <trkpt lat="42.29093" lon="3.27247">
        <ele>22.61</ele>
        <time>2024-09-24T07:00:59.999Z</time>
      </trkpt>
      <trkpt lat="42.29088" lon="3.27236">
        <ele>22.85</ele>
        <time>2024-09-24T07:01:04.999Z</time>
      </trkpt>
      <trkpt lat="42.29078" lon="3.27229">
        <ele>23.1</ele>
        <time>2024-09-24T07:01:09.999Z</time>
      </trkpt>
      <trkpt lat="42.29065" lon="3.27223">
        <ele>23.4</ele>
        <time>2024-09-24T07:01:14.999Z</time>
      </trkpt>
      <trkpt lat="42.29054" lon="3.27224">
        <ele>23.8</ele>
        <time>2024-09-24T07:01:19.999Z</time>
      </trkpt>
      <trkpt lat="42.29044" lon="3.27226">
        <ele>24.27</ele>
        <time>2024-09-24T07:01:24.999Z</time>
      </trkpt>
      <trkpt lat="42.29034" lon="3.27228">
        <ele>24.81</ele>
        <time>2024-09-24T07:01:29.999Z</time>
      </trkpt>
      <trkpt lat="42.29024" lon="3.27225">
        <ele>25.41</ele>
        <time>2024-09-24T07:01:34.999Z</time>
      </trkpt>
      <trkpt lat="42.29015" lon="3.2722">
        <ele>26.02</ele>
        <time>2024-09-24T07:01:39.999Z</time>
      </trkpt>
      <trkpt lat="42.29006" lon="3.27214">
        <ele>26.64</ele>
        <time>2024-09-24T07:01:44.999Z</time>
      </trkpt>
      <trkpt lat="42.28998" lon="3.27207">
        <ele>27.25</ele>
        <time>2024-09-24T07:01:49.999Z</time>
      </trkpt>
      <trkpt lat="42.28989" lon="3.27201">
        <ele>27.85</ele>
        <time>2024-09-24T07:01:54.999Z</time>
      </trkpt>
      <trkpt lat="42.28981" lon="3.27193">
        <ele>28.47</ele>
        <time>2024-09-24T07:01:59.999Z</time>
      </trkpt>
      <trkpt lat="42.28972" lon="3.27186">
        <ele>29.11</ele>
        <time>2024-09-24T07:02:04.999Z</time>
      </trkpt>
      <trkpt lat="42.28964" lon="3.27179">
        <ele>29.76</ele>
        <time>2024-09-24T07:02:09.999Z</time>
      </trkpt>
      <trkpt lat="42.28956" lon="3.27171">
        <ele>30.41</ele>
        <time>2024-09-24T07:02:14.999Z</time>
      </trkpt>
      <trkpt lat="42.28948" lon="3.27162">
        <ele>31.08</ele>
        <time>2024-09-24T07:02:19.999Z</time>
      </trkpt>
      <trkpt lat="42.2894" lon="3.27154">
        <ele>31.78</ele>
        <time>2024-09-24T07:02:24.999Z</time>
      </trkpt>
      <trkpt lat="42.28933" lon="3.27147">
        <ele>32.51</ele>
        <time>2024-09-24T07:02:29.999Z</time>
      </trkpt>
      <trkpt lat="42.28926" lon="3.27138">
        <ele>33.42</ele>
        <time>2024-09-24T07:02:35.999Z</time>
      </trkpt>
      <trkpt lat="42.28921" lon="3.27127">
        <ele>34.51</ele>
        <time>2024-09-24T07:02:42.999Z</time>
      </trkpt>
      <trkpt lat="42.28915" lon="3.27116">
        <ele>35.43</ele>
        <time>2024-09-24T07:02:48.999Z</time>
      </trkpt>
      <trkpt lat="42.28911" lon="3.27104">
        <ele>36.31</ele>
        <time>2024-09-24T07:02:54.999Z</time>
      </trkpt>
      <trkpt lat="42.28909" lon="3.27091">
        <ele>37.01</ele>
        <time>2024-09-24T07:02:59.999Z</time>
      </trkpt>
      <trkpt lat="42.28907" lon="3.27078">
        <ele>37.68</ele>
        <time>2024-09-24T07:03:04.999Z</time>
      </trkpt>
      <trkpt lat="42.28904" lon="3.27064">
        <ele>38.32</ele>
        <time>2024-09-24T07:03:09.999Z</time>
      </trkpt>
      <trkpt lat="42.28901" lon="3.27051">
        <ele>38.96</ele>
        <time>2024-09-24T07:03:14.999Z</time>
      </trkpt>
      <trkpt lat="42.28899" lon="3.27039">
        <ele>39.59</ele>
        <time>2024-09-24T07:03:19.999Z</time>
      </trkpt>
      <trkpt lat="42.28899" lon="3.27024">
        <ele>40.34</ele>
        <time>2024-09-24T07:03:25.999Z</time>
      </trkpt>
      <trkpt lat="42.28902" lon="3.27011">
        <ele>40.96</ele>
        <time>2024-09-24T07:03:30.999Z</time>
      </trkpt>
      <trkpt lat="42.28906" lon="3.27">
        <ele>41.56</ele>
        <time>2024-09-24T07:03:35.999Z</time>
      </trkpt>
      <trkpt lat="42.28913" lon="3.2699">
        <ele>42.32</ele>
        <time>2024-09-24T07:03:41.999Z</time>
      </trkpt>
      <trkpt lat="42.28922" lon="3.26985">
        <ele>43.12</ele>
        <time>2024-09-24T07:03:47.999Z</time>
      </trkpt>
      <trkpt lat="42.28932" lon="3.26983">
        <ele>43.98</ele>
        <time>2024-09-24T07:03:53.999Z</time>
      </trkpt>
      <trkpt lat="42.28942" lon="3.26983">
        <ele>44.72</ele>
        <time>2024-09-24T07:03:58.999Z</time>
      </trkpt>
      <trkpt lat="42.28952" lon="3.26984">
        <ele>45.49</ele>
        <time>2024-09-24T07:04:03.999Z</time>
      </trkpt>
      <trkpt lat="42.28962" lon="3.26986">
        <ele>46.23</ele>
        <time>2024-09-24T07:04:08.999Z</time>
      </trkpt>
      <trkpt lat="42.28972" lon="3.26988">
        <ele>47.07</ele>
        <time>2024-09-24T07:04:14.999Z</time>
      </trkpt>
      <trkpt lat="42.28981" lon="3.2699">
        <ele>47.75</ele>
        <time>2024-09-24T07:04:19.999Z</time>
      </trkpt>
      <trkpt lat="42.28992" lon="3.26991">
        <ele>48.54</ele>
        <time>2024-09-24T07:04:25.999Z</time>
      </trkpt>
      <trkpt lat="42.29001" lon="3.26993">
        <ele>49.17</ele>
        <time>2024-09-24T07:04:30.999Z</time>
      </trkpt>
      <trkpt lat="42.2901" lon="3.26994">
        <ele>49.79</ele>
        <time>2024-09-24T07:04:35.999Z</time>
      </trkpt>
      <trkpt lat="42.2902" lon="3.26995">
        <ele>50.52</ele>
        <time>2024-09-24T07:04:41.999Z</time>
      </trkpt>
      <trkpt lat="42.2903" lon="3.26996">
        <ele>51.24</ele>
        <time>2024-09-24T07:04:47.999Z</time>
      </trkpt>
      <trkpt lat="42.2904" lon="3.26998">
        <ele>51.83</ele>
        <time>2024-09-24T07:04:52.999Z</time>
      </trkpt>
      <trkpt lat="42.29048" lon="3.27001">
        <ele>52.41</ele>
        <time>2024-09-24T07:04:58.000Z</time>
      </trkpt>
      <trkpt lat="42.29057" lon="3.27005">
        <ele>53</ele>
        <time>2024-09-24T07:05:03.000Z</time>
      </trkpt>
      <trkpt lat="42.29066" lon="3.2701">
        <ele>53.59</ele>
        <time>2024-09-24T07:05:08.000Z</time>
      </trkpt>
      <trkpt lat="42.29074" lon="3.27017">
        <ele>54.2</ele>
        <time>2024-09-24T07:05:13.000Z</time>
      </trkpt>
      <trkpt lat="42.29083" lon="3.27024">
        <ele>54.82</ele>
        <time>2024-09-24T07:05:18.000Z</time>
      </trkpt>
      <trkpt lat="42.29091" lon="3.2703">
        <ele>55.46</ele>
        <time>2024-09-24T07:05:23.000Z</time>
      </trkpt>
      <trkpt lat="42.29099" lon="3.27035">
        <ele>56.1</ele>
        <time>2024-09-24T07:05:28.000Z</time>
      </trkpt>
      <trkpt lat="42.2911" lon="3.27038">
        <ele>56.87</ele>
        <time>2024-09-24T07:05:34.000Z</time>
      </trkpt>
      <trkpt lat="42.29119" lon="3.27039">
        <ele>57.5</ele>
        <time>2024-09-24T07:05:39.000Z</time>
      </trkpt>
      <trkpt lat="42.29129" lon="3.27038">
        <ele>58.12</ele>
        <time>2024-09-24T07:05:44.000Z</time>
      </trkpt>
      <trkpt lat="42.29138" lon="3.27035">
        <ele>58.74</ele>
        <time>2024-09-24T07:05:49.000Z</time>
      </trkpt>
      <trkpt lat="42.29147" lon="3.27032">
        <ele>59.34</ele>
        <time>2024-09-24T07:05:54.000Z</time>
      </trkpt>
      <trkpt lat="42.29156" lon="3.27028">
        <ele>59.92</ele>
        <time>2024-09-24T07:05:59.000Z</time>
      </trkpt>
      <trkpt lat="42.29166" lon="3.27027">
        <ele>60.58</ele>
        <time>2024-09-24T07:06:05.000Z</time>
      </trkpt>
      <trkpt lat="42.29177" lon="3.27025">
        <ele>61.22</ele>
        <time>2024-09-24T07:06:11.000Z</time>
      </trkpt>
      <trkpt lat="42.29186" lon="3.27025">
        <ele>61.74</ele>
        <time>2024-09-24T07:06:16.000Z</time>
      </trkpt>
      <trkpt lat="42.29196" lon="3.27023">
        <ele>62.35</ele>
        <time>2024-09-24T07:06:22.000Z</time>
      </trkpt>
      <trkpt lat="42.29207" lon="3.27022">
        <ele>62.95</ele>
        <time>2024-09-24T07:06:28.000Z</time>
      </trkpt>
      <trkpt lat="42.29217" lon="3.2702">
        <ele>63.44</ele>
        <time>2024-09-24T07:06:33.000Z</time>
      </trkpt>
      <trkpt lat="42.29226" lon="3.27016">
        <ele>63.91</ele>
        <time>2024-09-24T07:06:38.000Z</time>
      </trkpt>
      <trkpt lat="42.29234" lon="3.2701">
        <ele>64.36</ele>
        <time>2024-09-24T07:06:43.000Z</time>
      </trkpt>
      <trkpt lat="42.29242" lon="3.27002">
        <ele>64.79</ele>
        <time>2024-09-24T07:06:48.000Z</time>
      </trkpt>
      <trkpt lat="42.2925" lon="3.26995">
        <ele>65.29</ele>
        <time>2024-09-24T07:06:54.000Z</time>
      </trkpt>
      <trkpt lat="42.2926" lon="3.2699">
        <ele>65.78</ele>
        <time>2024-09-24T07:07:00.000Z</time>
      </trkpt>
      <trkpt lat="42.29269" lon="3.26987">
        <ele>66.18</ele>
        <time>2024-09-24T07:07:05.000Z</time>
      </trkpt>
      <trkpt lat="42.29278" lon="3.26984">
        <ele>66.57</ele>
        <time>2024-09-24T07:07:10.000Z</time>
      </trkpt>
      <trkpt lat="42.29288" lon="3.2698">
        <ele>66.95</ele>
        <time>2024-09-24T07:07:15.000Z</time>
      </trkpt>
      <trkpt lat="42.29295" lon="3.26971">
        <ele>67.31</ele>
        <time>2024-09-24T07:07:20.000Z</time>
      </trkpt>
      <trkpt lat="42.293" lon="3.26961">
        <ele>67.65</ele>
        <time>2024-09-24T07:07:25.000Z</time>
      </trkpt>
      <trkpt lat="42.29301" lon="3.26948">
        <ele>67.98</ele>
        <time>2024-09-24T07:07:30.000Z</time>
      </trkpt>
      <trkpt lat="42.293" lon="3.2693">
        <ele>68.33</ele>
        <time>2024-09-24T07:07:36.000Z</time>
      </trkpt>
      <trkpt lat="42.29295" lon="3.26914">
        <ele>68.59</ele>
        <time>2024-09-24T07:07:41.000Z</time>
      </trkpt>
      <trkpt lat="42.29291" lon="3.26902">
        <ele>68.81</ele>
        <time>2024-09-24T07:07:46.000Z</time>
      </trkpt>
      <trkpt lat="42.29285" lon="3.26892">
        <ele>69</ele>
        <time>2024-09-24T07:07:51.000Z</time>
      </trkpt>
      <trkpt lat="42.2928" lon="3.26881">
        <ele>69.22</ele>
        <time>2024-09-24T07:07:57.000Z</time>
      </trkpt>
      <trkpt lat="42.29279" lon="3.26868">
        <ele>69.48</ele>
        <time>2024-09-24T07:08:03.000Z</time>
      </trkpt>
      <trkpt lat="42.29278" lon="3.26856">
        <ele>69.74</ele>
        <time>2024-09-24T07:08:08.000Z</time>
      </trkpt>
      <trkpt lat="42.29277" lon="3.26842">
        <ele>70.03</ele>
        <time>2024-09-24T07:08:13.000Z</time>
      </trkpt>
      <trkpt lat="42.29277" lon="3.26829">
        <ele>70.36</ele>
        <time>2024-09-24T07:08:18.000Z</time>
      </trkpt>
      <trkpt lat="42.29277" lon="3.26815">
        <ele>70.8</ele>
        <time>2024-09-24T07:08:24.000Z</time>
      </trkpt>
      <trkpt lat="42.29276" lon="3.26802">
        <ele>71.19</ele>
        <time>2024-09-24T07:08:29.000Z</time>
      </trkpt>
      <trkpt lat="42.29276" lon="3.26788">
        <ele>71.6</ele>
        <time>2024-09-24T07:08:34.000Z</time>
      </trkpt>
      <trkpt lat="42.29276" lon="3.26775">
        <ele>72.1</ele>
        <time>2024-09-24T07:08:40.000Z</time>
      </trkpt>
      <trkpt lat="42.29275" lon="3.26762">
        <ele>72.62</ele>
        <time>2024-09-24T07:08:46.000Z</time>
      </trkpt>
      <trkpt lat="42.29275" lon="3.26748">
        <ele>73.13</ele>
        <time>2024-09-24T07:08:52.000Z</time>
      </trkpt>
      <trkpt lat="42.29275" lon="3.26735">
        <ele>73.65</ele>
        <time>2024-09-24T07:08:58.000Z</time>
      </trkpt>
      <trkpt lat="42.29275" lon="3.26723">
        <ele>74.18</ele>
        <time>2024-09-24T07:09:04.000Z</time>
      </trkpt>
      <trkpt lat="42.29274" lon="3.2671">
        <ele>74.71</ele>
        <time>2024-09-24T07:09:10.000Z</time>
      </trkpt>
      <trkpt lat="42.29273" lon="3.26697">
        <ele>75.26</ele>
        <time>2024-09-24T07:09:16.000Z</time>
      </trkpt>
      <trkpt lat="42.2927" lon="3.26685">
        <ele>75.81</ele>
        <time>2024-09-24T07:09:22.000Z</time>
      </trkpt>
      <trkpt lat="42.29266" lon="3.26674">
        <ele>76.35</ele>
        <time>2024-09-24T07:09:28.000Z</time>
      </trkpt>
      <trkpt lat="42.29261" lon="3.26663">
        <ele>76.89</ele>
        <time>2024-09-24T07:09:34.000Z</time>
      </trkpt>
      <trkpt lat="42.29256" lon="3.26652">
        <ele>77.51</ele>
        <time>2024-09-24T07:09:41.000Z</time>
      </trkpt>
      <trkpt lat="42.29251" lon="3.2664">
        <ele>78.13</ele>
        <time>2024-09-24T07:09:48.000Z</time>
      </trkpt>
      <trkpt lat="42.29247" lon="3.26627">
        <ele>78.67</ele>
        <time>2024-09-24T07:09:54.000Z</time>
      </trkpt>
      <trkpt lat="42.29246" lon="3.26614">
        <ele>79.13</ele>
        <time>2024-09-24T07:09:59.000Z</time>
      </trkpt>
      <trkpt lat="42.29246" lon="3.26601">
        <ele>79.8</ele>
        <time>2024-09-24T07:10:06.000Z</time>
      </trkpt>
      <trkpt lat="42.29249" lon="3.26587">
        <ele>80.61</ele>
        <time>2024-09-24T07:10:14.000Z</time>
      </trkpt>
      <trkpt lat="42.29252" lon="3.26576">
        <ele>81.32</ele>
        <time>2024-09-24T07:10:21.000Z</time>
      </trkpt>
      <trkpt lat="42.29256" lon="3.26564">
        <ele>81.94</ele>
        <time>2024-09-24T07:10:27.000Z</time>
      </trkpt>
      <trkpt lat="42.2926" lon="3.26551">
        <ele>82.57</ele>
        <time>2024-09-24T07:10:33.000Z</time>
      </trkpt>
      <trkpt lat="42.29265" lon="3.2654">
        <ele>83.19</ele>
        <time>2024-09-24T07:10:39.000Z</time>
      </trkpt>
      <trkpt lat="42.29272" lon="3.26531">
        <ele>83.9</ele>
        <time>2024-09-24T07:10:46.000Z</time>
      </trkpt>
      <trkpt lat="42.29279" lon="3.26521">
        <ele>84.51</ele>
        <time>2024-09-24T07:10:52.000Z</time>
      </trkpt>
      <trkpt lat="42.29287" lon="3.26512">
        <ele>85.1</ele>
        <time>2024-09-24T07:10:58.000Z</time>
      </trkpt>
      <trkpt lat="42.29294" lon="3.26504">
        <ele>85.79</ele>
        <time>2024-09-24T07:11:05.000Z</time>
      </trkpt>
      <trkpt lat="42.29299" lon="3.26492">
        <ele>86.48</ele>
        <time>2024-09-24T07:11:12.000Z</time>
      </trkpt>
      <trkpt lat="42.29303" lon="3.2648">
        <ele>87.06</ele>
        <time>2024-09-24T07:11:18.000Z</time>
      </trkpt>
      <trkpt lat="42.29308" lon="3.26469">
        <ele>87.61</ele>
        <time>2024-09-24T07:11:24.000Z</time>
      </trkpt>
      <trkpt lat="42.29312" lon="3.26457">
        <ele>88.13</ele>
        <time>2024-09-24T07:11:30.000Z</time>
      </trkpt>
      <trkpt lat="42.29311" lon="3.26443">
        <ele>88.62</ele>
        <time>2024-09-24T07:11:36.000Z</time>
      </trkpt>
      <trkpt lat="42.29308" lon="3.2643">
        <ele>89.09</ele>
        <time>2024-09-24T07:11:42.000Z</time>
      </trkpt>
      <trkpt lat="42.29303" lon="3.26417">
        <ele>89.46</ele>
        <time>2024-09-24T07:11:47.000Z</time>
      </trkpt>
      <trkpt lat="42.29299" lon="3.26404">
        <ele>89.81</ele>
        <time>2024-09-24T07:11:52.000Z</time>
      </trkpt>
      <trkpt lat="42.29294" lon="3.26392">
        <ele>90.14</ele>
        <time>2024-09-24T07:11:57.000Z</time>
      </trkpt>
      <trkpt lat="42.29292" lon="3.2638">
        <ele>90.46</ele>
        <time>2024-09-24T07:12:02.000Z</time>
      </trkpt>
      <trkpt lat="42.2929" lon="3.26367">
        <ele>90.82</ele>
        <time>2024-09-24T07:12:08.000Z</time>
      </trkpt>
      <trkpt lat="42.29291" lon="3.26354">
        <ele>91.11</ele>
        <time>2024-09-24T07:12:13.000Z</time>
      </trkpt>
      <trkpt lat="42.29292" lon="3.26342">
        <ele>91.4</ele>
        <time>2024-09-24T07:12:18.000Z</time>
      </trkpt>
      <trkpt lat="42.29293" lon="3.26328">
        <ele>91.69</ele>
        <time>2024-09-24T07:12:23.000Z</time>
      </trkpt>
      <trkpt lat="42.29296" lon="3.26316">
        <ele>91.97</ele>
        <time>2024-09-24T07:12:28.000Z</time>
      </trkpt>
      <trkpt lat="42.293" lon="3.26304">
        <ele>92.24</ele>
        <time>2024-09-24T07:12:33.000Z</time>
      </trkpt>
      <trkpt lat="42.29307" lon="3.26294">
        <ele>92.5</ele>
        <time>2024-09-24T07:12:38.000Z</time>
      </trkpt>
      <trkpt lat="42.29315" lon="3.26286">
        <ele>92.76</ele>
        <time>2024-09-24T07:12:43.000Z</time>
      </trkpt>
      <trkpt lat="42.29323" lon="3.26279">
        <ele>93.02</ele>
        <time>2024-09-24T07:12:48.000Z</time>
      </trkpt>
      <trkpt lat="42.29332" lon="3.26274">
        <ele>93.27</ele>
        <time>2024-09-24T07:12:53.000Z</time>
      </trkpt>
      <trkpt lat="42.29341" lon="3.26269">
        <ele>93.52</ele>
        <time>2024-09-24T07:12:58.000Z</time>
      </trkpt>
      <trkpt lat="42.2935" lon="3.26265">
        <ele>93.76</ele>
        <time>2024-09-24T07:13:03.000Z</time>
      </trkpt>
      <trkpt lat="42.29359" lon="3.26261">
        <ele>94.01</ele>
        <time>2024-09-24T07:13:08.000Z</time>
      </trkpt>
      <trkpt lat="42.29369" lon="3.26256">
        <ele>94.25</ele>
        <time>2024-09-24T07:13:13.000Z</time>
      </trkpt>
      <trkpt lat="42.29378" lon="3.26252">
        <ele>94.48</ele>
        <time>2024-09-24T07:13:18.000Z</time>
      </trkpt>
      <trkpt lat="42.29388" lon="3.26248">
        <ele>94.7</ele>
        <time>2024-09-24T07:13:23.000Z</time>
      </trkpt>
      <trkpt lat="42.29397" lon="3.26242">
        <ele>94.91</ele>
        <time>2024-09-24T07:13:28.000Z</time>
      </trkpt>
      <trkpt lat="42.29405" lon="3.26237">
        <ele>95.11</ele>
        <time>2024-09-24T07:13:33.000Z</time>
      </trkpt>
      <trkpt lat="42.29414" lon="3.26232">
        <ele>95.3</ele>
        <time>2024-09-24T07:13:38.000Z</time>
      </trkpt>
      <trkpt lat="42.29422" lon="3.26225">
        <ele>95.49</ele>
        <time>2024-09-24T07:13:43.000Z</time>
      </trkpt>
      <trkpt lat="42.29426" lon="3.26212">
        <ele>95.68</ele>
        <time>2024-09-24T07:13:48.000Z</time>
      </trkpt>
      <trkpt lat="42.29425" lon="3.26196">
        <ele>95.89</ele>
        <time>2024-09-24T07:13:53.000Z</time>
      </trkpt>
      <trkpt lat="42.29422" lon="3.26183">
        <ele>96.11</ele>
        <time>2024-09-24T07:13:58.000Z</time>
      </trkpt>
      <trkpt lat="42.29416" lon="3.26173">
        <ele>96.33</ele>
        <time>2024-09-24T07:14:03.000Z</time>
      </trkpt>
      <trkpt lat="42.29407" lon="3.26166">
        <ele>96.55</ele>
        <time>2024-09-24T07:14:08.000Z</time>
      </trkpt>
      <trkpt lat="42.29398" lon="3.26159">
        <ele>96.78</ele>
        <time>2024-09-24T07:14:13.000Z</time>
      </trkpt>
      <trkpt lat="42.29389" lon="3.2615">
        <ele>97.02</ele>
        <time>2024-09-24T07:14:18.000Z</time>
      </trkpt>
      <trkpt lat="42.2938" lon="3.26142">
        <ele>97.27</ele>
        <time>2024-09-24T07:14:23.000Z</time>
      </trkpt>
      <trkpt lat="42.2937" lon="3.26134">
        <ele>97.52</ele>
        <time>2024-09-24T07:14:28.000Z</time>
      </trkpt>
      <trkpt lat="42.29361" lon="3.26126">
        <ele>97.78</ele>
        <time>2024-09-24T07:14:33.000Z</time>
      </trkpt>
      <trkpt lat="42.29352" lon="3.26118">
        <ele>98.04</ele>
        <time>2024-09-24T07:14:38.000Z</time>
      </trkpt>
      <trkpt lat="42.29344" lon="3.26106">
        <ele>98.3</ele>
        <time>2024-09-24T07:14:43.000Z</time>
      </trkpt>
      <trkpt lat="42.29337" lon="3.26087">
        <ele>98.57</ele>
        <time>2024-09-24T07:14:48.000Z</time>
      </trkpt>
      <trkpt lat="42.29338" lon="3.26065">
        <ele>98.84</ele>
        <time>2024-09-24T07:14:53.000Z</time>
      </trkpt>
      <trkpt lat="42.29343" lon="3.26045">
        <ele>99.12</ele>
        <time>2024-09-24T07:14:58.000Z</time>
      </trkpt>
      <trkpt lat="42.2935" lon="3.26029">
        <ele>99.4</ele>
        <time>2024-09-24T07:15:03.000Z</time>
      </trkpt>
      <trkpt lat="42.29358" lon="3.26014">
        <ele>99.68</ele>
        <time>2024-09-24T07:15:08.000Z</time>
      </trkpt>
      <trkpt lat="42.29366" lon="3.25999">
        <ele>99.95</ele>
        <time>2024-09-24T07:15:13.000Z</time>
      </trkpt>
      <trkpt lat="42.29376" lon="3.25986">
        <ele>100.28</ele>
        <time>2024-09-24T07:15:18.000Z</time>
      </trkpt>
      <trkpt lat="42.29389" lon="3.25976">
        <ele>100.68</ele>
        <time>2024-09-24T07:15:23.000Z</time>
      </trkpt>
      <trkpt lat="42.29402" lon="3.25968">
        <ele>101.15</ele>
        <time>2024-09-24T07:15:28.000Z</time>
      </trkpt>
      <trkpt lat="42.29415" lon="3.25962">
        <ele>101.65</ele>
        <time>2024-09-24T07:15:33.000Z</time>
      </trkpt>
      <trkpt lat="42.29427" lon="3.25963">
        <ele>102.16</ele>
        <time>2024-09-24T07:15:38.000Z</time>
      </trkpt>
      <trkpt lat="42.2944" lon="3.25966">
        <ele>102.69</ele>
        <time>2024-09-24T07:15:43.000Z</time>
      </trkpt>
      <trkpt lat="42.29454" lon="3.25968">
        <ele>103.25</ele>
        <time>2024-09-24T07:15:48.000Z</time>
      </trkpt>
      <trkpt lat="42.29468" lon="3.2597">
        <ele>103.85</ele>
        <time>2024-09-24T07:15:53.000Z</time>
      </trkpt>
      <trkpt lat="42.29478" lon="3.25972">
        <ele>104.49</ele>
        <time>2024-09-24T07:15:58.000Z</time>
      </trkpt>
      <trkpt lat="42.29488" lon="3.25974">
        <ele>105.15</ele>
        <time>2024-09-24T07:16:03.000Z</time>
      </trkpt>
      <trkpt lat="42.29502" lon="3.25975">
        <ele>105.81</ele>
        <time>2024-09-24T07:16:08.000Z</time>
      </trkpt>
      <trkpt lat="42.29514" lon="3.25968">
        <ele>106.49</ele>
        <time>2024-09-24T07:16:13.000Z</time>
      </trkpt>
      <trkpt lat="42.2952" lon="3.25952">
        <ele>107.2</ele>
        <time>2024-09-24T07:16:18.000Z</time>
      </trkpt>
      <trkpt lat="42.29518" lon="3.25934">
        <ele>107.92</ele>
        <time>2024-09-24T07:16:23.000Z</time>
      </trkpt>
      <trkpt lat="42.29511" lon="3.25919">
        <ele>108.65</ele>
        <time>2024-09-24T07:16:28.000Z</time>
      </trkpt>
      <trkpt lat="42.29505" lon="3.25905">
        <ele>109.39</ele>
        <time>2024-09-24T07:16:33.000Z</time>
      </trkpt>
      <trkpt lat="42.295" lon="3.2589">
        <ele>110.11</ele>
        <time>2024-09-24T07:16:38.000Z</time>
      </trkpt>
      <trkpt lat="42.29496" lon="3.25876">
        <ele>110.84</ele>
        <time>2024-09-24T07:16:43.000Z</time>
      </trkpt>
      <trkpt lat="42.29493" lon="3.25864">
        <ele>111.56</ele>
        <time>2024-09-24T07:16:48.000Z</time>
      </trkpt>
      <trkpt lat="42.29491" lon="3.25851">
        <ele>112.27</ele>
        <time>2024-09-24T07:16:53.000Z</time>
      </trkpt>
      <trkpt lat="42.29489" lon="3.25838">
        <ele>112.99</ele>
        <time>2024-09-24T07:16:58.000Z</time>
      </trkpt>
      <trkpt lat="42.29489" lon="3.25824">
        <ele>113.72</ele>
        <time>2024-09-24T07:17:03.000Z</time>
      </trkpt>
      <trkpt lat="42.29493" lon="3.2581">
        <ele>114.6</ele>
        <time>2024-09-24T07:17:08.999Z</time>
      </trkpt>
      <trkpt lat="42.295" lon="3.25801">
        <ele>115.56</ele>
        <time>2024-09-24T07:17:14.999Z</time>
      </trkpt>
      <trkpt lat="42.29507" lon="3.25792">
        <ele>116.5</ele>
        <time>2024-09-24T07:17:19.999Z</time>
      </trkpt>
      <trkpt lat="42.29513" lon="3.25782">
        <ele>117.5</ele>
        <time>2024-09-24T07:17:24.999Z</time>
      </trkpt>
      <trkpt lat="42.2952" lon="3.25772">
        <ele>118.47</ele>
        <time>2024-09-24T07:17:29.999Z</time>
      </trkpt>
      <trkpt lat="42.29526" lon="3.25763">
        <ele>119.38</ele>
        <time>2024-09-24T07:17:34.999Z</time>
      </trkpt>
      <trkpt lat="42.29532" lon="3.25753">
        <ele>120.23</ele>
        <time>2024-09-24T07:17:39.999Z</time>
      </trkpt>
      <trkpt lat="42.29538" lon="3.25743">
        <ele>121.02</ele>
        <time>2024-09-24T07:17:44.999Z</time>
      </trkpt>
      <trkpt lat="42.29544" lon="3.25734">
        <ele>121.77</ele>
        <time>2024-09-24T07:17:49.999Z</time>
      </trkpt>
      <trkpt lat="42.2955" lon="3.25725">
        <ele>122.49</ele>
        <time>2024-09-24T07:17:54.999Z</time>
      </trkpt>
      <trkpt lat="42.29558" lon="3.25717">
        <ele>123.18</ele>
        <time>2024-09-24T07:17:59.999Z</time>
      </trkpt>
      <trkpt lat="42.29567" lon="3.25711">
        <ele>123.85</ele>
        <time>2024-09-24T07:18:04.999Z</time>
      </trkpt>
      <trkpt lat="42.29576" lon="3.25705">
        <ele>124.5</ele>
        <time>2024-09-24T07:18:09.999Z</time>
      </trkpt>
      <trkpt lat="42.29584" lon="3.25699">
        <ele>125.1</ele>
        <time>2024-09-24T07:18:14.999Z</time>
      </trkpt>
      <trkpt lat="42.29593" lon="3.25693">
        <ele>125.67</ele>
        <time>2024-09-24T07:18:19.999Z</time>
      </trkpt>
      <trkpt lat="42.296" lon="3.25686">
        <ele>126.21</ele>
        <time>2024-09-24T07:18:24.999Z</time>
      </trkpt>
      <trkpt lat="42.29608" lon="3.25679">
        <ele>126.73</ele>
        <time>2024-09-24T07:18:29.999Z</time>
      </trkpt>
      <trkpt lat="42.29612" lon="3.25668">
        <ele>127.25</ele>
        <time>2024-09-24T07:18:34.999Z</time>
      </trkpt>
      <trkpt lat="42.29613" lon="3.25655">
        <ele>127.79</ele>
        <time>2024-09-24T07:18:39.999Z</time>
      </trkpt>
      <trkpt lat="42.29609" lon="3.25643">
        <ele>128.35</ele>
        <time>2024-09-24T07:18:44.999Z</time>
      </trkpt>
      <trkpt lat="42.29605" lon="3.25631">
        <ele>128.92</ele>
        <time>2024-09-24T07:18:49.999Z</time>
      </trkpt>
      <trkpt lat="42.29598" lon="3.25621">
        <ele>129.51</ele>
        <time>2024-09-24T07:18:54.999Z</time>
      </trkpt>
      <trkpt lat="42.29591" lon="3.25612">
        <ele>130.12</ele>
        <time>2024-09-24T07:18:59.999Z</time>
      </trkpt>
      <trkpt lat="42.29584" lon="3.25602">
        <ele>130.74</ele>
        <time>2024-09-24T07:19:04.999Z</time>
      </trkpt>
      <trkpt lat="42.29577" lon="3.25592">
        <ele>131.36</ele>
        <time>2024-09-24T07:19:09.999Z</time>
      </trkpt>
      <trkpt lat="42.2957" lon="3.25584">
        <ele>132</ele>
        <time>2024-09-24T07:19:14.999Z</time>
      </trkpt>
      <trkpt lat="42.29561" lon="3.25577">
        <ele>132.65</ele>
        <time>2024-09-24T07:19:19.999Z</time>
      </trkpt>
      <trkpt lat="42.29549" lon="3.25576">
        <ele>133.4</ele>
        <time>2024-09-24T07:19:25.999Z</time>
      </trkpt>
      <trkpt lat="42.29539" lon="3.25578">
        <ele>134.09</ele>
        <time>2024-09-24T07:19:30.999Z</time>
      </trkpt>
      <trkpt lat="42.29529" lon="3.25579">
        <ele>134.76</ele>
        <time>2024-09-24T07:19:35.999Z</time>
      </trkpt>
      <trkpt lat="42.2952" lon="3.25581">
        <ele>135.42</ele>
        <time>2024-09-24T07:19:40.999Z</time>
      </trkpt>
      <trkpt lat="42.2951" lon="3.25585">
        <ele>136.31</ele>
        <time>2024-09-24T07:19:46.999Z</time>
      </trkpt>
      <trkpt lat="42.29501" lon="3.25587">
        <ele>137.14</ele>
        <time>2024-09-24T07:19:51.999Z</time>
      </trkpt>
      <trkpt lat="42.29491" lon="3.25588">
        <ele>138.02</ele>
        <time>2024-09-24T07:19:56.999Z</time>
      </trkpt>
      <trkpt lat="42.29482" lon="3.25589">
        <ele>138.92</ele>
        <time>2024-09-24T07:20:01.999Z</time>
      </trkpt>
      <trkpt lat="42.29473" lon="3.2559">
        <ele>139.83</ele>
        <time>2024-09-24T07:20:06.999Z</time>
      </trkpt>
      <trkpt lat="42.29463" lon="3.25591">
        <ele>140.74</ele>
        <time>2024-09-24T07:20:11.999Z</time>
      </trkpt>
      <trkpt lat="42.29454" lon="3.25593">
        <ele>141.65</ele>
        <time>2024-09-24T07:20:16.999Z</time>
      </trkpt>
      <trkpt lat="42.29444" lon="3.25594">
        <ele>142.54</ele>
        <time>2024-09-24T07:20:21.999Z</time>
      </trkpt>
      <trkpt lat="42.29435" lon="3.25594">
        <ele>143.41</ele>
        <time>2024-09-24T07:20:26.999Z</time>
      </trkpt>
      <trkpt lat="42.29426" lon="3.25593">
        <ele>144.27</ele>
        <time>2024-09-24T07:20:31.999Z</time>
      </trkpt>
      <trkpt lat="42.29416" lon="3.2559">
        <ele>145.28</ele>
        <time>2024-09-24T07:20:37.999Z</time>
      </trkpt>
      <trkpt lat="42.29409" lon="3.2558">
        <ele>146.41</ele>
        <time>2024-09-24T07:20:44.999Z</time>
      </trkpt>
      <trkpt lat="42.29407" lon="3.25568">
        <ele>147.33</ele>
        <time>2024-09-24T07:20:50.999Z</time>
      </trkpt>
      <trkpt lat="42.29406" lon="3.25556">
        <ele>148.21</ele>
        <time>2024-09-24T07:20:56.999Z</time>
      </trkpt>
      <trkpt lat="42.29405" lon="3.25543">
        <ele>149.04</ele>
        <time>2024-09-24T07:21:02.999Z</time>
      </trkpt>
      <trkpt lat="42.29405" lon="3.25531">
        <ele>149.82</ele>
        <time>2024-09-24T07:21:08.999Z</time>
      </trkpt>
      <trkpt lat="42.29404" lon="3.25519">
        <ele>150.56</ele>
        <time>2024-09-24T07:21:14.999Z</time>
      </trkpt>
      <trkpt lat="42.29401" lon="3.25507">
        <ele>151.26</ele>
        <time>2024-09-24T07:21:20.999Z</time>
      </trkpt>
      <trkpt lat="42.29395" lon="3.25496">
        <ele>151.92</ele>
        <time>2024-09-24T07:21:26.999Z</time>
      </trkpt>
      <trkpt lat="42.29387" lon="3.25489">
        <ele>152.55</ele>
        <time>2024-09-24T07:21:32.999Z</time>
      </trkpt>
      <trkpt lat="42.29376" lon="3.25486">
        <ele>153.13</ele>
        <time>2024-09-24T07:21:38.999Z</time>
      </trkpt>
      <trkpt lat="42.29365" lon="3.25486">
        <ele>153.59</ele>
        <time>2024-09-24T07:21:43.999Z</time>
      </trkpt>
      <trkpt lat="42.29354" lon="3.25488">
        <ele>154.04</ele>
        <time>2024-09-24T07:21:48.999Z</time>
      </trkpt>
      <trkpt lat="42.29344" lon="3.2549">
        <ele>154.48</ele>
        <time>2024-09-24T07:21:53.999Z</time>
      </trkpt>
      <trkpt lat="42.29334" lon="3.25488">
        <ele>154.92</ele>
        <time>2024-09-24T07:21:58.999Z</time>
      </trkpt>
      <trkpt lat="42.29325" lon="3.25482">
        <ele>155.43</ele>
        <time>2024-09-24T07:22:04.999Z</time>
      </trkpt>
      <trkpt lat="42.29318" lon="3.25474">
        <ele>155.85</ele>
        <time>2024-09-24T07:22:09.999Z</time>
      </trkpt>
      <trkpt lat="42.29314" lon="3.25463">
        <ele>156.25</ele>
        <time>2024-09-24T07:22:14.999Z</time>
      </trkpt>
      <trkpt lat="42.29313" lon="3.25451">
        <ele>156.64</ele>
        <time>2024-09-24T07:22:19.999Z</time>
      </trkpt>
      <trkpt lat="42.29312" lon="3.25438">
        <ele>157.03</ele>
        <time>2024-09-24T07:22:24.999Z</time>
      </trkpt>
      <trkpt lat="42.29311" lon="3.25426">
        <ele>157.41</ele>
        <time>2024-09-24T07:22:29.999Z</time>
      </trkpt>
      <trkpt lat="42.2931" lon="3.25413">
        <ele>157.78</ele>
        <time>2024-09-24T07:22:34.999Z</time>
      </trkpt>
      <trkpt lat="42.29309" lon="3.254">
        <ele>158.15</ele>
        <time>2024-09-24T07:22:39.999Z</time>
      </trkpt>
      <trkpt lat="42.29308" lon="3.25388">
        <ele>158.51</ele>
        <time>2024-09-24T07:22:44.999Z</time>
      </trkpt>
      <trkpt lat="42.29307" lon="3.25375">
        <ele>158.86</ele>
        <time>2024-09-24T07:22:49.999Z</time>
      </trkpt>
      <trkpt lat="42.29306" lon="3.25362">
        <ele>159.21</ele>
        <time>2024-09-24T07:22:54.999Z</time>
      </trkpt>
      <trkpt lat="42.29305" lon="3.2535">
        <ele>159.55</ele>
        <time>2024-09-24T07:22:59.999Z</time>
      </trkpt>
      <trkpt lat="42.29304" lon="3.25337">
        <ele>159.89</ele>
        <time>2024-09-24T07:23:04.999Z</time>
      </trkpt>
      <trkpt lat="42.29304" lon="3.25324">
        <ele>160.22</ele>
        <time>2024-09-24T07:23:09.999Z</time>
      </trkpt>
      <trkpt lat="42.29305" lon="3.25311">
        <ele>160.56</ele>
        <time>2024-09-24T07:23:14.999Z</time>
      </trkpt>
      <trkpt lat="42.29307" lon="3.25298">
        <ele>160.88</ele>
        <time>2024-09-24T07:23:19.999Z</time>
      </trkpt>
      <trkpt lat="42.29309" lon="3.25284">
        <ele>161.2</ele>
        <time>2024-09-24T07:23:24.999Z</time>
      </trkpt>
      <trkpt lat="42.29312" lon="3.2527">
        <ele>161.51</ele>
        <time>2024-09-24T07:23:29.999Z</time>
      </trkpt>
      <trkpt lat="42.29316" lon="3.25256">
        <ele>161.81</ele>
        <time>2024-09-24T07:23:34.999Z</time>
      </trkpt>
      <trkpt lat="42.29322" lon="3.25243">
        <ele>162.11</ele>
        <time>2024-09-24T07:23:39.999Z</time>
      </trkpt>
      <trkpt lat="42.29327" lon="3.25231">
        <ele>162.4</ele>
        <time>2024-09-24T07:23:44.999Z</time>
      </trkpt>
      <trkpt lat="42.29333" lon="3.25218">
        <ele>162.72</ele>
        <time>2024-09-24T07:23:49.999Z</time>
      </trkpt>
      <trkpt lat="42.29339" lon="3.25206">
        <ele>163.05</ele>
        <time>2024-09-24T07:23:54.999Z</time>
      </trkpt>
      <trkpt lat="42.29344" lon="3.25193">
        <ele>163.36</ele>
        <time>2024-09-24T07:23:59.999Z</time>
      </trkpt>
      <trkpt lat="42.29349" lon="3.2518">
        <ele>163.66</ele>
        <time>2024-09-24T07:24:04.999Z</time>
      </trkpt>
      <trkpt lat="42.29354" lon="3.25169">
        <ele>163.93</ele>
        <time>2024-09-24T07:24:09.999Z</time>
      </trkpt>
      <trkpt lat="42.29357" lon="3.25158">
        <ele>164.18</ele>
        <time>2024-09-24T07:24:14.999Z</time>
      </trkpt>
      <trkpt lat="42.29357" lon="3.25145">
        <ele>164.42</ele>
        <time>2024-09-24T07:24:19.999Z</time>
      </trkpt>
      <trkpt lat="42.29357" lon="3.25131">
        <ele>164.65</ele>
        <time>2024-09-24T07:24:24.999Z</time>
      </trkpt>
      <trkpt lat="42.29355" lon="3.25118">
        <ele>164.87</ele>
        <time>2024-09-24T07:24:29.999Z</time>
      </trkpt>
      <trkpt lat="42.29354" lon="3.25104">
        <ele>165.09</ele>
        <time>2024-09-24T07:24:34.999Z</time>
      </trkpt>
      <trkpt lat="42.29352" lon="3.2509">
        <ele>165.35</ele>
        <time>2024-09-24T07:24:40.999Z</time>
      </trkpt>
      <trkpt lat="42.2935" lon="3.25078">
        <ele>165.55</ele>
        <time>2024-09-24T07:24:45.999Z</time>
      </trkpt>
      <trkpt lat="42.29348" lon="3.25065">
        <ele>165.76</ele>
        <time>2024-09-24T07:24:50.999Z</time>
      </trkpt>
      <trkpt lat="42.29346" lon="3.25053">
        <ele>165.96</ele>
        <time>2024-09-24T07:24:55.999Z</time>
      </trkpt>
      <trkpt lat="42.29345" lon="3.25039">
        <ele>166.22</ele>
        <time>2024-09-24T07:25:01.999Z</time>
      </trkpt>
      <trkpt lat="42.29346" lon="3.25026">
        <ele>166.43</ele>
        <time>2024-09-24T07:25:06.999Z</time>
      </trkpt>
      <trkpt lat="42.2935" lon="3.25015">
        <ele>166.66</ele>
        <time>2024-09-24T07:25:11.999Z</time>
      </trkpt>
      <trkpt lat="42.29357" lon="3.25005">
        <ele>166.91</ele>
        <time>2024-09-24T07:25:16.999Z</time>
      </trkpt>
      <trkpt lat="42.29363" lon="3.24996">
        <ele>167.18</ele>
        <time>2024-09-24T07:25:21.999Z</time>
      </trkpt>
      <trkpt lat="42.2937" lon="3.24987">
        <ele>167.48</ele>
        <time>2024-09-24T07:25:26.999Z</time>
      </trkpt>
      <trkpt lat="42.29376" lon="3.24976">
        <ele>167.85</ele>
        <time>2024-09-24T07:25:32.999Z</time>
      </trkpt>
      <trkpt lat="42.29383" lon="3.24966">
        <ele>168.19</ele>
        <time>2024-09-24T07:25:37.999Z</time>
      </trkpt>
      <trkpt lat="42.29389" lon="3.24957">
        <ele>168.55</ele>
        <time>2024-09-24T07:25:42.999Z</time>
      </trkpt>
      <trkpt lat="42.29395" lon="3.24947">
        <ele>168.94</ele>
        <time>2024-09-24T07:25:47.999Z</time>
      </trkpt>
      <trkpt lat="42.29401" lon="3.24937">
        <ele>169.35</ele>
        <time>2024-09-24T07:25:52.999Z</time>
      </trkpt>
      <trkpt lat="42.29408" lon="3.24927">
        <ele>169.79</ele>
        <time>2024-09-24T07:25:57.999Z</time>
      </trkpt>
      <trkpt lat="42.29414" lon="3.24918">
        <ele>170.25</ele>
        <time>2024-09-24T07:26:02.999Z</time>
      </trkpt>
      <trkpt lat="42.29421" lon="3.2491">
        <ele>170.73</ele>
        <time>2024-09-24T07:26:07.999Z</time>
      </trkpt>
      <trkpt lat="42.29429" lon="3.24904">
        <ele>171.23</ele>
        <time>2024-09-24T07:26:12.999Z</time>
      </trkpt>
      <trkpt lat="42.29439" lon="3.24901">
        <ele>171.85</ele>
        <time>2024-09-24T07:26:18.999Z</time>
      </trkpt>
      <trkpt lat="42.2945" lon="3.24899">
        <ele>172.47</ele>
        <time>2024-09-24T07:26:24.999Z</time>
      </trkpt>
      <trkpt lat="42.29459" lon="3.24895">
        <ele>172.99</ele>
        <time>2024-09-24T07:26:29.999Z</time>
      </trkpt>
      <trkpt lat="42.29466" lon="3.24885">
        <ele>173.56</ele>
        <time>2024-09-24T07:26:34.999Z</time>
      </trkpt>
      <trkpt lat="42.29468" lon="3.24872">
        <ele>174.13</ele>
        <time>2024-09-24T07:26:39.999Z</time>
      </trkpt>
      <trkpt lat="42.29466" lon="3.24858">
        <ele>174.72</ele>
        <time>2024-09-24T07:26:44.999Z</time>
      </trkpt>
      <trkpt lat="42.29465" lon="3.24846">
        <ele>175.29</ele>
        <time>2024-09-24T07:26:49.999Z</time>
      </trkpt>
      <trkpt lat="42.29463" lon="3.24832">
        <ele>175.86</ele>
        <time>2024-09-24T07:26:54.999Z</time>
      </trkpt>
      <trkpt lat="42.29464" lon="3.24819">
        <ele>176.42</ele>
        <time>2024-09-24T07:26:59.999Z</time>
      </trkpt>
      <trkpt lat="42.2947" lon="3.24808">
        <ele>177</ele>
        <time>2024-09-24T07:27:04.999Z</time>
      </trkpt>
      <trkpt lat="42.29478" lon="3.24801">
        <ele>177.58</ele>
        <time>2024-09-24T07:27:09.999Z</time>
      </trkpt>
      <trkpt lat="42.29487" lon="3.24794">
        <ele>178.28</ele>
        <time>2024-09-24T07:27:15.999Z</time>
      </trkpt>
      <trkpt lat="42.29497" lon="3.24788">
        <ele>178.98</ele>
        <time>2024-09-24T07:27:21.999Z</time>
      </trkpt>
      <trkpt lat="42.29506" lon="3.24782">
        <ele>179.69</ele>
        <time>2024-09-24T07:27:27.999Z</time>
      </trkpt>
      <trkpt lat="42.29515" lon="3.24776">
        <ele>180.3</ele>
        <time>2024-09-24T07:27:32.999Z</time>
      </trkpt>
      <trkpt lat="42.29521" lon="3.24765">
        <ele>181.02</ele>
        <time>2024-09-24T07:27:38.999Z</time>
      </trkpt>
      <trkpt lat="42.29522" lon="3.24752">
        <ele>181.65</ele>
        <time>2024-09-24T07:27:43.999Z</time>
      </trkpt>
      <trkpt lat="42.29521" lon="3.2474">
        <ele>182.28</ele>
        <time>2024-09-24T07:27:48.999Z</time>
      </trkpt>
      <trkpt lat="42.29518" lon="3.24728">
        <ele>182.9</ele>
        <time>2024-09-24T07:27:53.999Z</time>
      </trkpt>
      <trkpt lat="42.29518" lon="3.24714">
        <ele>183.65</ele>
        <time>2024-09-24T07:27:59.999Z</time>
      </trkpt>
      <trkpt lat="42.29521" lon="3.24702">
        <ele>184.29</ele>
        <time>2024-09-24T07:28:04.999Z</time>
      </trkpt>
      <trkpt lat="42.29525" lon="3.2469">
        <ele>184.93</ele>
        <time>2024-09-24T07:28:09.999Z</time>
      </trkpt>
      <trkpt lat="42.29528" lon="3.24678">
        <ele>185.54</ele>
        <time>2024-09-24T07:28:14.999Z</time>
      </trkpt>
      <trkpt lat="42.2953" lon="3.24666">
        <ele>186.14</ele>
        <time>2024-09-24T07:28:19.999Z</time>
      </trkpt>
      <trkpt lat="42.29529" lon="3.24654">
        <ele>186.73</ele>
        <time>2024-09-24T07:28:24.999Z</time>
      </trkpt>
      <trkpt lat="42.29528" lon="3.24642">
        <ele>187.3</ele>
        <time>2024-09-24T07:28:29.999Z</time>
      </trkpt>
      <trkpt lat="42.29526" lon="3.24629">
        <ele>187.86</ele>
        <time>2024-09-24T07:28:34.999Z</time>
      </trkpt>
      <trkpt lat="42.29523" lon="3.24618">
        <ele>188.41</ele>
        <time>2024-09-24T07:28:39.999Z</time>
      </trkpt>
      <trkpt lat="42.29519" lon="3.24605">
        <ele>189.06</ele>
        <time>2024-09-24T07:28:45.999Z</time>
      </trkpt>
      <trkpt lat="42.29513" lon="3.24596">
        <ele>189.58</ele>
        <time>2024-09-24T07:28:50.999Z</time>
      </trkpt>
      <trkpt lat="42.29507" lon="3.24586">
        <ele>190.11</ele>
        <time>2024-09-24T07:28:55.999Z</time>
      </trkpt>
      <trkpt lat="42.29502" lon="3.24576">
        <ele>190.63</ele>
        <time>2024-09-24T07:29:00.999Z</time>
      </trkpt>
      <trkpt lat="42.29496" lon="3.24567">
        <ele>191.14</ele>
        <time>2024-09-24T07:29:05.999Z</time>
      </trkpt>
      <trkpt lat="42.29493" lon="3.24555">
        <ele>191.63</ele>
        <time>2024-09-24T07:29:10.999Z</time>
      </trkpt>
      <trkpt lat="42.29492" lon="3.24541">
        <ele>192.13</ele>
        <time>2024-09-24T07:29:15.999Z</time>
      </trkpt>
      <trkpt lat="42.29494" lon="3.24529">
        <ele>192.65</ele>
        <time>2024-09-24T07:29:21.000Z</time>
      </trkpt>
      <trkpt lat="42.295" lon="3.24517">
        <ele>193.29</ele>
        <time>2024-09-24T07:29:27.000Z</time>
      </trkpt>
      <trkpt lat="42.29504" lon="3.24507">
        <ele>193.83</ele>
        <time>2024-09-24T07:29:32.000Z</time>
      </trkpt>
      <trkpt lat="42.2951" lon="3.24494">
        <ele>194.5</ele>
        <time>2024-09-24T07:29:38.000Z</time>
      </trkpt>
      <trkpt lat="42.29516" lon="3.24483">
        <ele>195.17</ele>
        <time>2024-09-24T07:29:44.000Z</time>
      </trkpt>
      <trkpt lat="42.29521" lon="3.24472">
        <ele>195.75</ele>
        <time>2024-09-24T07:29:49.000Z</time>
      </trkpt>
      <trkpt lat="42.29526" lon="3.24462">
        <ele>196.34</ele>
        <time>2024-09-24T07:29:54.000Z</time>
      </trkpt>
      <trkpt lat="42.29531" lon="3.24451">
        <ele>196.95</ele>
        <time>2024-09-24T07:29:59.000Z</time>
      </trkpt>
      <trkpt lat="42.29536" lon="3.24441">
        <ele>197.58</ele>
        <time>2024-09-24T07:30:04.000Z</time>
      </trkpt>
      <trkpt lat="42.29543" lon="3.24432">
        <ele>198.22</ele>
        <time>2024-09-24T07:30:09.000Z</time>
      </trkpt>
      <trkpt lat="42.29552" lon="3.24426">
        <ele>198.86</ele>
        <time>2024-09-24T07:30:14.000Z</time>
      </trkpt>
      <trkpt lat="42.2956" lon="3.2442">
        <ele>199.5</ele>
        <time>2024-09-24T07:30:19.000Z</time>
      </trkpt>
      <trkpt lat="42.29569" lon="3.24415">
        <ele>200.27</ele>
        <time>2024-09-24T07:30:25.000Z</time>
      </trkpt>
      <trkpt lat="42.29578" lon="3.24414">
        <ele>200.91</ele>
        <time>2024-09-24T07:30:30.000Z</time>
      </trkpt>
      <trkpt lat="42.29589" lon="3.24415">
        <ele>201.54</ele>
        <time>2024-09-24T07:30:35.000Z</time>
      </trkpt>
      <trkpt lat="42.29598" lon="3.24416">
        <ele>202.16</ele>
        <time>2024-09-24T07:30:40.000Z</time>
      </trkpt>
      <trkpt lat="42.2961" lon="3.24419">
        <ele>202.78</ele>
        <time>2024-09-24T07:30:45.000Z</time>
      </trkpt>
      <trkpt lat="42.2962" lon="3.24421">
        <ele>203.43</ele>
        <time>2024-09-24T07:30:50.000Z</time>
      </trkpt>
      <trkpt lat="42.29631" lon="3.24421">
        <ele>204.16</ele>
        <time>2024-09-24T07:30:56.000Z</time>
      </trkpt>
      <trkpt lat="42.29637" lon="3.2441">
        <ele>207.23</ele>
        <time>2024-09-24T07:32:00.000Z</time>
      </trkpt>
      <trkpt lat="42.2964" lon="3.24396">
        <ele>207.92</ele>
        <time>2024-09-24T07:32:05.000Z</time>
      </trkpt>
      <trkpt lat="42.29639" lon="3.2438">
        <ele>208.59</ele>
        <time>2024-09-24T07:32:10.000Z</time>
      </trkpt>
      <trkpt lat="42.29628" lon="3.24364">
        <ele>209.23</ele>
        <time>2024-09-24T07:32:15.000Z</time>
      </trkpt>
      <trkpt lat="42.29615" lon="3.24348">
        <ele>210.1</ele>
        <time>2024-09-24T07:32:20.000Z</time>
      </trkpt>
      <trkpt lat="42.29602" lon="3.24334">
        <ele>211.23</ele>
        <time>2024-09-24T07:32:25.000Z</time>
      </trkpt>
      <trkpt lat="42.29589" lon="3.2432">
        <ele>212.52</ele>
        <time>2024-09-24T07:32:30.000Z</time>
      </trkpt>
      <trkpt lat="42.29578" lon="3.24307">
        <ele>213.89</ele>
        <time>2024-09-24T07:32:35.000Z</time>
      </trkpt>
      <trkpt lat="42.29575" lon="3.24286">
        <ele>215.29</ele>
        <time>2024-09-24T07:32:40.000Z</time>
      </trkpt>
      <trkpt lat="42.29579" lon="3.24267">
        <ele>216.71</ele>
        <time>2024-09-24T07:32:45.000Z</time>
      </trkpt>
      <trkpt lat="42.29584" lon="3.2425">
        <ele>218.12</ele>
        <time>2024-09-24T07:32:50.000Z</time>
      </trkpt>
      <trkpt lat="42.29589" lon="3.24234">
        <ele>219.52</ele>
        <time>2024-09-24T07:32:55.000Z</time>
      </trkpt>
      <trkpt lat="42.29593" lon="3.24221">
        <ele>220.89</ele>
        <time>2024-09-24T07:33:00.000Z</time>
      </trkpt>
      <trkpt lat="42.29598" lon="3.24206">
        <ele>222.26</ele>
        <time>2024-09-24T07:33:05.000Z</time>
      </trkpt>
      <trkpt lat="42.29604" lon="3.24191">
        <ele>223.61</ele>
        <time>2024-09-24T07:33:10.000Z</time>
      </trkpt>
      <trkpt lat="42.29608" lon="3.24176">
        <ele>224.95</ele>
        <time>2024-09-24T07:33:15.000Z</time>
      </trkpt>
      <trkpt lat="42.29614" lon="3.2416">
        <ele>226.27</ele>
        <time>2024-09-24T07:33:20.000Z</time>
      </trkpt>
      <trkpt lat="42.2962" lon="3.24143">
        <ele>227.57</ele>
        <time>2024-09-24T07:33:25.000Z</time>
      </trkpt>
      <trkpt lat="42.29624" lon="3.24129">
        <ele>228.82</ele>
        <time>2024-09-24T07:33:30.000Z</time>
      </trkpt>
      <trkpt lat="42.2963" lon="3.24114">
        <ele>230.05</ele>
        <time>2024-09-24T07:33:35.000Z</time>
      </trkpt>
      <trkpt lat="42.29635" lon="3.24099">
        <ele>231.23</ele>
        <time>2024-09-24T07:33:40.000Z</time>
      </trkpt>
      <trkpt lat="42.29641" lon="3.24083">
        <ele>232.38</ele>
        <time>2024-09-24T07:33:45.000Z</time>
      </trkpt>
      <trkpt lat="42.29644" lon="3.24066">
        <ele>233.48</ele>
        <time>2024-09-24T07:33:50.000Z</time>
      </trkpt>
      <trkpt lat="42.29647" lon="3.24049">
        <ele>234.55</ele>
        <time>2024-09-24T07:33:55.000Z</time>
      </trkpt>
      <trkpt lat="42.29648" lon="3.24031">
        <ele>235.55</ele>
        <time>2024-09-24T07:34:00.000Z</time>
      </trkpt>
      <trkpt lat="42.29648" lon="3.24014">
        <ele>236.5</ele>
        <time>2024-09-24T07:34:05.000Z</time>
      </trkpt>
      <trkpt lat="42.29649" lon="3.24">
        <ele>237.4</ele>
        <time>2024-09-24T07:34:10.000Z</time>
      </trkpt>
      <trkpt lat="42.2965" lon="3.23986">
        <ele>238.27</ele>
        <time>2024-09-24T07:34:15.000Z</time>
      </trkpt>
      <trkpt lat="42.29654" lon="3.23974">
        <ele>239.14</ele>
        <time>2024-09-24T07:34:20.000Z</time>
      </trkpt>
      <trkpt lat="42.29659" lon="3.23961">
        <ele>240.02</ele>
        <time>2024-09-24T07:34:25.000Z</time>
      </trkpt>
      <trkpt lat="42.29663" lon="3.23947">
        <ele>240.88</ele>
        <time>2024-09-24T07:34:30.000Z</time>
      </trkpt>
      <trkpt lat="42.29666" lon="3.23932">
        <ele>241.71</ele>
        <time>2024-09-24T07:34:35.000Z</time>
      </trkpt>
      <trkpt lat="42.29667" lon="3.23917">
        <ele>242.51</ele>
        <time>2024-09-24T07:34:40.000Z</time>
      </trkpt>
      <trkpt lat="42.29668" lon="3.239">
        <ele>243.26</ele>
        <time>2024-09-24T07:34:45.000Z</time>
      </trkpt>
      <trkpt lat="42.29667" lon="3.23884">
        <ele>243.96</ele>
        <time>2024-09-24T07:34:50.000Z</time>
      </trkpt>
      <trkpt lat="42.29664" lon="3.23868">
        <ele>244.64</ele>
        <time>2024-09-24T07:34:55.000Z</time>
      </trkpt>
      <trkpt lat="42.29659" lon="3.23852">
        <ele>245.29</ele>
        <time>2024-09-24T07:35:00.000Z</time>
      </trkpt>
      <trkpt lat="42.29654" lon="3.23837">
        <ele>245.92</ele>
        <time>2024-09-24T07:35:05.000Z</time>
      </trkpt>
      <trkpt lat="42.29648" lon="3.2382">
        <ele>246.55</ele>
        <time>2024-09-24T07:35:10.000Z</time>
      </trkpt>
      <trkpt lat="42.29643" lon="3.23805">
        <ele>247.16</ele>
        <time>2024-09-24T07:35:15.000Z</time>
      </trkpt>
      <trkpt lat="42.29637" lon="3.2379">
        <ele>247.78</ele>
        <time>2024-09-24T07:35:20.000Z</time>
      </trkpt>
      <trkpt lat="42.29632" lon="3.23775">
        <ele>248.4</ele>
        <time>2024-09-24T07:35:25.000Z</time>
      </trkpt>
      <trkpt lat="42.29629" lon="3.23758">
        <ele>249.03</ele>
        <time>2024-09-24T07:35:30.000Z</time>
      </trkpt>
      <trkpt lat="42.29633" lon="3.23742">
        <ele>249.66</ele>
        <time>2024-09-24T07:35:35.000Z</time>
      </trkpt>
      <trkpt lat="42.29639" lon="3.23726">
        <ele>250.27</ele>
        <time>2024-09-24T07:35:40.000Z</time>
      </trkpt>
      <trkpt lat="42.29645" lon="3.23706">
        <ele>250.86</ele>
        <time>2024-09-24T07:35:45.000Z</time>
      </trkpt>
      <trkpt lat="42.29651" lon="3.23688">
        <ele>251.41</ele>
        <time>2024-09-24T07:35:50.000Z</time>
      </trkpt>
      <trkpt lat="42.29657" lon="3.23672">
        <ele>251.92</ele>
        <time>2024-09-24T07:35:55.000Z</time>
      </trkpt>
      <trkpt lat="42.29661" lon="3.23661">
        <ele>255.85</ele>
        <time>2024-09-24T07:39:13.000Z</time>
      </trkpt>
      <trkpt lat="42.29672" lon="3.23655">
        <ele>257.65</ele>
        <time>2024-09-24T07:42:00.999Z</time>
      </trkpt>
      <trkpt lat="42.29685" lon="3.23635">
        <ele>258.5</ele>
        <time>2024-09-24T07:42:05.999Z</time>
      </trkpt>
      <trkpt lat="42.29684" lon="3.23613">
        <ele>258.57</ele>
        <time>2024-09-24T07:42:10.999Z</time>
      </trkpt>
      <trkpt lat="42.29685" lon="3.23592">
        <ele>258.62</ele>
        <time>2024-09-24T07:42:15.999Z</time>
      </trkpt>
      <trkpt lat="42.29691" lon="3.2357">
        <ele>258.67</ele>
        <time>2024-09-24T07:42:20.999Z</time>
      </trkpt>
      <trkpt lat="42.29696" lon="3.23546">
        <ele>258.72</ele>
        <time>2024-09-24T07:42:25.999Z</time>
      </trkpt>
      <trkpt lat="42.29692" lon="3.23522">
        <ele>258.94</ele>
        <time>2024-09-24T07:42:30.999Z</time>
      </trkpt>
      <trkpt lat="42.29676" lon="3.23504">
        <ele>259.13</ele>
        <time>2024-09-24T07:42:35.999Z</time>
      </trkpt>
      <trkpt lat="42.29654" lon="3.23496">
        <ele>259.21</ele>
        <time>2024-09-24T07:42:40.999Z</time>
      </trkpt>
      <trkpt lat="42.29631" lon="3.23488">
        <ele>259.25</ele>
        <time>2024-09-24T07:42:45.999Z</time>
      </trkpt>
      <trkpt lat="42.29607" lon="3.2348">
        <ele>259.27</ele>
        <time>2024-09-24T07:42:50.999Z</time>
      </trkpt>
      <trkpt lat="42.29585" lon="3.23472">
        <ele>259.28</ele>
        <time>2024-09-24T07:42:55.999Z</time>
      </trkpt>
      <trkpt lat="42.29563" lon="3.23464">
        <ele>259.29</ele>
        <time>2024-09-24T07:43:00.999Z</time>
      </trkpt>
      <trkpt lat="42.29541" lon="3.23457">
        <ele>259.3</ele>
        <time>2024-09-24T07:43:05.999Z</time>
      </trkpt>
      <trkpt lat="42.29518" lon="3.23458">
        <ele>259.31</ele>
        <time>2024-09-24T07:43:10.999Z</time>
      </trkpt>
      <trkpt lat="42.29493" lon="3.23464">
        <ele>259.29</ele>
        <time>2024-09-24T07:43:15.999Z</time>
      </trkpt>
      <trkpt lat="42.29469" lon="3.23468">
        <ele>259.26</ele>
        <time>2024-09-24T07:43:20.999Z</time>
      </trkpt>
      <trkpt lat="42.29446" lon="3.23458">
        <ele>259.23</ele>
        <time>2024-09-24T07:43:25.999Z</time>
      </trkpt>
      <trkpt lat="42.29423" lon="3.23442">
        <ele>259.21</ele>
        <time>2024-09-24T07:43:30.999Z</time>
      </trkpt>
      <trkpt lat="42.29399" lon="3.23427">
        <ele>259.19</ele>
        <time>2024-09-24T07:43:35.999Z</time>
      </trkpt>
      <trkpt lat="42.29375" lon="3.23409">
        <ele>259.17</ele>
        <time>2024-09-24T07:43:40.999Z</time>
      </trkpt>
      <trkpt lat="42.29362" lon="3.23379">
        <ele>259.16</ele>
        <time>2024-09-24T07:43:45.999Z</time>
      </trkpt>
      <trkpt lat="42.29351" lon="3.23348">
        <ele>259.14</ele>
        <time>2024-09-24T07:43:50.999Z</time>
      </trkpt>
      <trkpt lat="42.29336" lon="3.23322">
        <ele>259.13</ele>
        <time>2024-09-24T07:43:55.999Z</time>
      </trkpt>
      <trkpt lat="42.29309" lon="3.23312">
        <ele>259.13</ele>
        <time>2024-09-24T07:44:00.999Z</time>
      </trkpt>
      <trkpt lat="42.29283" lon="3.23309">
        <ele>259.15</ele>
        <time>2024-09-24T07:44:05.999Z</time>
      </trkpt>
      <trkpt lat="42.29257" lon="3.23307">
        <ele>259.17</ele>
        <time>2024-09-24T07:44:10.999Z</time>
      </trkpt>
      <trkpt lat="42.2923" lon="3.23312">
        <ele>259.18</ele>
        <time>2024-09-24T07:44:15.999Z</time>
      </trkpt>
      <trkpt lat="42.29206" lon="3.23319">
        <ele>259.17</ele>
        <time>2024-09-24T07:44:20.999Z</time>
      </trkpt>
      <trkpt lat="42.29181" lon="3.23326">
        <ele>259.15</ele>
        <time>2024-09-24T07:44:25.999Z</time>
      </trkpt>
      <trkpt lat="42.29156" lon="3.23329">
        <ele>259.14</ele>
        <time>2024-09-24T07:44:30.999Z</time>
      </trkpt>
      <trkpt lat="42.29136" lon="3.23308">
        <ele>259.15</ele>
        <time>2024-09-24T07:44:35.999Z</time>
      </trkpt>
      <trkpt lat="42.29131" lon="3.23275">
        <ele>259.18</ele>
        <time>2024-09-24T07:44:40.999Z</time>
      </trkpt>
      <trkpt lat="42.29137" lon="3.23244">
        <ele>259.19</ele>
        <time>2024-09-24T07:44:45.999Z</time>
      </trkpt>
      <trkpt lat="42.29157" lon="3.23226">
        <ele>259.21</ele>
        <time>2024-09-24T07:44:50.999Z</time>
      </trkpt>
      <trkpt lat="42.29178" lon="3.23209">
        <ele>259.25</ele>
        <time>2024-09-24T07:44:55.999Z</time>
      </trkpt>
      <trkpt lat="42.29196" lon="3.23188">
        <ele>259.31</ele>
        <time>2024-09-24T07:45:00.999Z</time>
      </trkpt>
      <trkpt lat="42.29207" lon="3.23161">
        <ele>259.37</ele>
        <time>2024-09-24T07:45:05.999Z</time>
      </trkpt>
      <trkpt lat="42.29202" lon="3.2313">
        <ele>259.41</ele>
        <time>2024-09-24T07:45:10.999Z</time>
      </trkpt>
      <trkpt lat="42.29183" lon="3.23108">
        <ele>259.43</ele>
        <time>2024-09-24T07:45:15.999Z</time>
      </trkpt>
      <trkpt lat="42.29164" lon="3.23088">
        <ele>259.46</ele>
        <time>2024-09-24T07:45:20.999Z</time>
      </trkpt>
      <trkpt lat="42.29162" lon="3.23056">
        <ele>259.51</ele>
        <time>2024-09-24T07:45:25.999Z</time>
      </trkpt>
      <trkpt lat="42.2918" lon="3.23041">
        <ele>259.58</ele>
        <time>2024-09-24T07:45:30.999Z</time>
      </trkpt>
      <trkpt lat="42.292" lon="3.23043">
        <ele>259.6</ele>
        <time>2024-09-24T07:45:35.999Z</time>
      </trkpt>
      <trkpt lat="42.29215" lon="3.23045">
        <ele>259.61</ele>
        <time>2024-09-24T07:45:40.999Z</time>
      </trkpt>
      <trkpt lat="42.29229" lon="3.23046">
        <ele>259.63</ele>
        <time>2024-09-24T07:45:45.999Z</time>
      </trkpt>
      <trkpt lat="42.2924" lon="3.23044">
        <ele>259.66</ele>
        <time>2024-09-24T07:45:50.999Z</time>
      </trkpt>
      <trkpt lat="42.2925" lon="3.2304">
        <ele>259.69</ele>
        <time>2024-09-24T07:45:55.999Z</time>
      </trkpt>
      <trkpt lat="42.29259" lon="3.23034">
        <ele>259.73</ele>
        <time>2024-09-24T07:46:00.999Z</time>
      </trkpt>
      <trkpt lat="42.29267" lon="3.23027">
        <ele>259.78</ele>
        <time>2024-09-24T07:46:05.999Z</time>
      </trkpt>
      <trkpt lat="42.29275" lon="3.23021">
        <ele>259.83</ele>
        <time>2024-09-24T07:46:10.999Z</time>
      </trkpt>
      <trkpt lat="42.29284" lon="3.23014">
        <ele>259.9</ele>
        <time>2024-09-24T07:46:15.999Z</time>
      </trkpt>
      <trkpt lat="42.29291" lon="3.23006">
        <ele>259.97</ele>
        <time>2024-09-24T07:46:20.999Z</time>
      </trkpt>
      <trkpt lat="42.29299" lon="3.22998">
        <ele>260.05</ele>
        <time>2024-09-24T07:46:25.999Z</time>
      </trkpt>
      <trkpt lat="42.29307" lon="3.22987">
        <ele>260.13</ele>
        <time>2024-09-24T07:46:30.999Z</time>
      </trkpt>
      <trkpt lat="42.29316" lon="3.22977">
        <ele>260.22</ele>
        <time>2024-09-24T07:46:35.999Z</time>
      </trkpt>
      <trkpt lat="42.29326" lon="3.22968">
        <ele>260.32</ele>
        <time>2024-09-24T07:46:40.999Z</time>
      </trkpt>
      <trkpt lat="42.29335" lon="3.22957">
        <ele>260.42</ele>
        <time>2024-09-24T07:46:45.999Z</time>
      </trkpt>
      <trkpt lat="42.29345" lon="3.22947">
        <ele>260.53</ele>
        <time>2024-09-24T07:46:50.999Z</time>
      </trkpt>
      <trkpt lat="42.29354" lon="3.22937">
        <ele>260.65</ele>
        <time>2024-09-24T07:46:55.999Z</time>
      </trkpt>
      <trkpt lat="42.29363" lon="3.22927">
        <ele>260.77</ele>
        <time>2024-09-24T07:47:00.999Z</time>
      </trkpt>
      <trkpt lat="42.29372" lon="3.22917">
        <ele>260.9</ele>
        <time>2024-09-24T07:47:05.999Z</time>
      </trkpt>
      <trkpt lat="42.2938" lon="3.22904">
        <ele>261.04</ele>
        <time>2024-09-24T07:47:10.999Z</time>
      </trkpt>
      <trkpt lat="42.29384" lon="3.22888">
        <ele>261.18</ele>
        <time>2024-09-24T07:47:15.999Z</time>
      </trkpt>
      <trkpt lat="42.29386" lon="3.2287">
        <ele>261.33</ele>
        <time>2024-09-24T07:47:20.999Z</time>
      </trkpt>
      <trkpt lat="42.29388" lon="3.22851">
        <ele>261.48</ele>
        <time>2024-09-24T07:47:25.999Z</time>
      </trkpt>
      <trkpt lat="42.29389" lon="3.22828">
        <ele>261.65</ele>
        <time>2024-09-24T07:47:30.999Z</time>
      </trkpt>
      <trkpt lat="42.29391" lon="3.22805">
        <ele>261.82</ele>
        <time>2024-09-24T07:47:35.999Z</time>
      </trkpt>
      <trkpt lat="42.29392" lon="3.22782">
        <ele>262</ele>
        <time>2024-09-24T07:47:40.999Z</time>
      </trkpt>
      <trkpt lat="42.29394" lon="3.22757">
        <ele>262.18</ele>
        <time>2024-09-24T07:47:45.999Z</time>
      </trkpt>
      <trkpt lat="42.29396" lon="3.22732">
        <ele>262.61</ele>
        <time>2024-09-24T07:47:50.999Z</time>
      </trkpt>
      <trkpt lat="42.29397" lon="3.22706">
        <ele>263.77</ele>
        <time>2024-09-24T07:47:55.999Z</time>
      </trkpt>
      <trkpt lat="42.29398" lon="3.22679">
        <ele>264.32</ele>
        <time>2024-09-24T07:48:00.999Z</time>
      </trkpt>
      <trkpt lat="42.29394" lon="3.22653">
        <ele>264.68</ele>
        <time>2024-09-24T07:48:05.999Z</time>
      </trkpt>
      <trkpt lat="42.29387" lon="3.22628">
        <ele>264.94</ele>
        <time>2024-09-24T07:48:10.999Z</time>
      </trkpt>
      <trkpt lat="42.29382" lon="3.22602">
        <ele>265.19</ele>
        <time>2024-09-24T07:48:15.999Z</time>
      </trkpt>
      <trkpt lat="42.29375" lon="3.22577">
        <ele>265.44</ele>
        <time>2024-09-24T07:48:20.999Z</time>
      </trkpt>
      <trkpt lat="42.29364" lon="3.22553">
        <ele>265.67</ele>
        <time>2024-09-24T07:48:25.999Z</time>
      </trkpt>
      <trkpt lat="42.29349" lon="3.2253">
        <ele>265.85</ele>
        <time>2024-09-24T07:48:30.999Z</time>
      </trkpt>
      <trkpt lat="42.29326" lon="3.22524">
        <ele>266.05</ele>
        <time>2024-09-24T07:48:35.999Z</time>
      </trkpt>
      <trkpt lat="42.29304" lon="3.22528">
        <ele>266.24</ele>
        <time>2024-09-24T07:48:40.999Z</time>
      </trkpt>
      <trkpt lat="42.29282" lon="3.22532">
        <ele>266.39</ele>
        <time>2024-09-24T07:48:45.999Z</time>
      </trkpt>
      <trkpt lat="42.2926" lon="3.2253">
        <ele>266.56</ele>
        <time>2024-09-24T07:48:50.999Z</time>
      </trkpt>
      <trkpt lat="42.29248" lon="3.22504">
        <ele>266.77</ele>
        <time>2024-09-24T07:48:55.999Z</time>
      </trkpt>
      <trkpt lat="42.29243" lon="3.22473">
        <ele>266.99</ele>
        <time>2024-09-24T07:49:00.999Z</time>
      </trkpt>
      <trkpt lat="42.29238" lon="3.22443">
        <ele>267.23</ele>
        <time>2024-09-24T07:49:05.999Z</time>
      </trkpt>
      <trkpt lat="42.29225" lon="3.22418">
        <ele>267.42</ele>
        <time>2024-09-24T07:49:10.999Z</time>
      </trkpt>
      <trkpt lat="42.29206" lon="3.22397">
        <ele>267.6</ele>
        <time>2024-09-24T07:49:15.999Z</time>
      </trkpt>
      <trkpt lat="42.29187" lon="3.2238">
        <ele>267.81</ele>
        <time>2024-09-24T07:49:20.999Z</time>
      </trkpt>
      <trkpt lat="42.29168" lon="3.22369">
        <ele>268.02</ele>
        <time>2024-09-24T07:49:25.999Z</time>
      </trkpt>
      <trkpt lat="42.29149" lon="3.2236">
        <ele>268.25</ele>
        <time>2024-09-24T07:49:30.999Z</time>
      </trkpt>
      <trkpt lat="42.29132" lon="3.22351">
        <ele>268.33</ele>
        <time>2024-09-24T07:49:35.999Z</time>
      </trkpt>
      <trkpt lat="42.29114" lon="3.22343">
        <ele>268.47</ele>
        <time>2024-09-24T07:49:40.999Z</time>
      </trkpt>
      <trkpt lat="42.29097" lon="3.22334">
        <ele>268.62</ele>
        <time>2024-09-24T07:49:45.999Z</time>
      </trkpt>
      <trkpt lat="42.2908" lon="3.22326">
        <ele>268.79</ele>
        <time>2024-09-24T07:49:50.999Z</time>
      </trkpt>
      <trkpt lat="42.29062" lon="3.22316">
        <ele>269.34</ele>
        <time>2024-09-24T07:49:55.999Z</time>
      </trkpt>
      <trkpt lat="42.29045" lon="3.22308">
        <ele>269.48</ele>
        <time>2024-09-24T07:50:00.999Z</time>
      </trkpt>
      <trkpt lat="42.29027" lon="3.22302">
        <ele>269.55</ele>
        <time>2024-09-24T07:50:05.999Z</time>
      </trkpt>
      <trkpt lat="42.29008" lon="3.22297">
        <ele>270</ele>
        <time>2024-09-24T07:50:10.999Z</time>
      </trkpt>
      <trkpt lat="42.28989" lon="3.22294">
        <ele>270.5</ele>
        <time>2024-09-24T07:50:15.999Z</time>
      </trkpt>
      <trkpt lat="42.28969" lon="3.2229">
        <ele>270.84</ele>
        <time>2024-09-24T07:50:20.999Z</time>
      </trkpt>
      <trkpt lat="42.28949" lon="3.22287">
        <ele>271.13</ele>
        <time>2024-09-24T07:50:25.999Z</time>
      </trkpt>
      <trkpt lat="42.2893" lon="3.22281">
        <ele>271.39</ele>
        <time>2024-09-24T07:50:30.999Z</time>
      </trkpt>
      <trkpt lat="42.28912" lon="3.22271">
        <ele>271.58</ele>
        <time>2024-09-24T07:50:35.999Z</time>
      </trkpt>
      <trkpt lat="42.28895" lon="3.22261">
        <ele>271.62</ele>
        <time>2024-09-24T07:50:40.999Z</time>
      </trkpt>
      <trkpt lat="42.28879" lon="3.22253">
        <ele>271.69</ele>
        <time>2024-09-24T07:50:45.999Z</time>
      </trkpt>
      <trkpt lat="42.28861" lon="3.22248">
        <ele>271.78</ele>
        <time>2024-09-24T07:50:50.999Z</time>
      </trkpt>
      <trkpt lat="42.28843" lon="3.22246">
        <ele>272.35</ele>
        <time>2024-09-24T07:50:55.999Z</time>
      </trkpt>
      <trkpt lat="42.28825" lon="3.22244">
        <ele>272.45</ele>
        <time>2024-09-24T07:51:00.999Z</time>
      </trkpt>
      <trkpt lat="42.28808" lon="3.22243">
        <ele>272.54</ele>
        <time>2024-09-24T07:51:05.999Z</time>
      </trkpt>
      <trkpt lat="42.2879" lon="3.22241">
        <ele>272.65</ele>
        <time>2024-09-24T07:51:10.999Z</time>
      </trkpt>
      <trkpt lat="42.28773" lon="3.22238">
        <ele>272.78</ele>
        <time>2024-09-24T07:51:15.999Z</time>
      </trkpt>
      <trkpt lat="42.28756" lon="3.22237">
        <ele>272.92</ele>
        <time>2024-09-24T07:51:20.999Z</time>
      </trkpt>
      <trkpt lat="42.28738" lon="3.22234">
        <ele>273.06</ele>
        <time>2024-09-24T07:51:25.999Z</time>
      </trkpt>
      <trkpt lat="42.28721" lon="3.2223">
        <ele>273.22</ele>
        <time>2024-09-24T07:51:30.999Z</time>
      </trkpt>
      <trkpt lat="42.2871" lon="3.22211">
        <ele>273.9</ele>
        <time>2024-09-24T07:51:35.999Z</time>
      </trkpt>
      <trkpt lat="42.28719" lon="3.22188">
        <ele>274.76</ele>
        <time>2024-09-24T07:51:40.999Z</time>
      </trkpt>
      <trkpt lat="42.28742" lon="3.22181">
        <ele>275.23</ele>
        <time>2024-09-24T07:51:45.999Z</time>
      </trkpt>
      <trkpt lat="42.28767" lon="3.22175">
        <ele>275.48</ele>
        <time>2024-09-24T07:51:50.999Z</time>
      </trkpt>
      <trkpt lat="42.28794" lon="3.22167">
        <ele>275.69</ele>
        <time>2024-09-24T07:51:55.999Z</time>
      </trkpt>
      <trkpt lat="42.28823" lon="3.22161">
        <ele>275.86</ele>
        <time>2024-09-24T07:52:00.999Z</time>
      </trkpt>
      <trkpt lat="42.2885" lon="3.22154">
        <ele>276.04</ele>
        <time>2024-09-24T07:52:05.999Z</time>
      </trkpt>
      <trkpt lat="42.28877" lon="3.22147">
        <ele>276.26</ele>
        <time>2024-09-24T07:52:10.999Z</time>
      </trkpt>
      <trkpt lat="42.28904" lon="3.22135">
        <ele>276.51</ele>
        <time>2024-09-24T07:52:15.999Z</time>
      </trkpt>
      <trkpt lat="42.28927" lon="3.22115">
        <ele>276.75</ele>
        <time>2024-09-24T07:52:20.999Z</time>
      </trkpt>
      <trkpt lat="42.28952" lon="3.221">
        <ele>276.98</ele>
        <time>2024-09-24T07:52:25.999Z</time>
      </trkpt>
      <trkpt lat="42.28979" lon="3.2209">
        <ele>277.22</ele>
        <time>2024-09-24T07:52:30.999Z</time>
      </trkpt>
      <trkpt lat="42.29005" lon="3.22075">
        <ele>277.5</ele>
        <time>2024-09-24T07:52:35.999Z</time>
      </trkpt>
      <trkpt lat="42.29024" lon="3.22051">
        <ele>277.76</ele>
        <time>2024-09-24T07:52:40.999Z</time>
      </trkpt>
      <trkpt lat="42.29031" lon="3.22016">
        <ele>278</ele>
        <time>2024-09-24T07:52:45.999Z</time>
      </trkpt>
      <trkpt lat="42.29036" lon="3.21983">
        <ele>278.24</ele>
        <time>2024-09-24T07:52:50.999Z</time>
      </trkpt>
      <trkpt lat="42.29054" lon="3.21964">
        <ele>278.48</ele>
        <time>2024-09-24T07:52:55.999Z</time>
      </trkpt>
      <trkpt lat="42.29079" lon="3.21958">
        <ele>278.76</ele>
        <time>2024-09-24T07:53:00.999Z</time>
      </trkpt>
      <trkpt lat="42.29101" lon="3.2196">
        <ele>278.99</ele>
        <time>2024-09-24T07:53:05.999Z</time>
      </trkpt>
      <trkpt lat="42.29121" lon="3.21973">
        <ele>279.25</ele>
        <time>2024-09-24T07:53:10.999Z</time>
      </trkpt>
      <trkpt lat="42.29141" lon="3.21977">
        <ele>279.53</ele>
        <time>2024-09-24T07:53:15.999Z</time>
      </trkpt>
      <trkpt lat="42.29158" lon="3.21963">
        <ele>279.8</ele>
        <time>2024-09-24T07:53:20.999Z</time>
      </trkpt>
      <trkpt lat="42.29168" lon="3.2194">
        <ele>280.06</ele>
        <time>2024-09-24T07:53:25.999Z</time>
      </trkpt>
      <trkpt lat="42.29169" lon="3.21911">
        <ele>280.31</ele>
        <time>2024-09-24T07:53:30.999Z</time>
      </trkpt>
      <trkpt lat="42.29163" lon="3.21881">
        <ele>280.59</ele>
        <time>2024-09-24T07:53:35.999Z</time>
      </trkpt>
      <trkpt lat="42.29157" lon="3.21851">
        <ele>280.85</ele>
        <time>2024-09-24T07:53:41.000Z</time>
      </trkpt>
      <trkpt lat="42.29151" lon="3.21823">
        <ele>281.1</ele>
        <time>2024-09-24T07:53:46.000Z</time>
      </trkpt>
      <trkpt lat="42.29144" lon="3.21796">
        <ele>281.37</ele>
        <time>2024-09-24T07:53:51.000Z</time>
      </trkpt>
      <trkpt lat="42.2913" lon="3.21774">
        <ele>281.61</ele>
        <time>2024-09-24T07:53:56.000Z</time>
      </trkpt>
      <trkpt lat="42.29111" lon="3.21758">
        <ele>281.87</ele>
        <time>2024-09-24T07:54:01.000Z</time>
      </trkpt>
      <trkpt lat="42.29092" lon="3.21742">
        <ele>282.19</ele>
        <time>2024-09-24T07:54:06.000Z</time>
      </trkpt>
      <trkpt lat="42.29073" lon="3.21727">
        <ele>282.54</ele>
        <time>2024-09-24T07:54:11.000Z</time>
      </trkpt>
      <trkpt lat="42.29056" lon="3.21712">
        <ele>282.89</ele>
        <time>2024-09-24T07:54:16.000Z</time>
      </trkpt>
      <trkpt lat="42.29037" lon="3.21695">
        <ele>283.23</ele>
        <time>2024-09-24T07:54:21.000Z</time>
      </trkpt>
      <trkpt lat="42.29016" lon="3.21684">
        <ele>283.6</ele>
        <time>2024-09-24T07:54:26.000Z</time>
      </trkpt>
      <trkpt lat="42.28994" lon="3.21682">
        <ele>283.95</ele>
        <time>2024-09-24T07:54:31.000Z</time>
      </trkpt>
      <trkpt lat="42.28968" lon="3.21683">
        <ele>284.27</ele>
        <time>2024-09-24T07:54:36.000Z</time>
      </trkpt>
      <trkpt lat="42.28945" lon="3.21684">
        <ele>284.58</ele>
        <time>2024-09-24T07:54:41.000Z</time>
      </trkpt>
      <trkpt lat="42.28922" lon="3.21683">
        <ele>284.89</ele>
        <time>2024-09-24T07:54:46.000Z</time>
      </trkpt>
      <trkpt lat="42.28899" lon="3.2168">
        <ele>285.18</ele>
        <time>2024-09-24T07:54:51.000Z</time>
      </trkpt>
      <trkpt lat="42.2888" lon="3.21669">
        <ele>285.45</ele>
        <time>2024-09-24T07:54:56.000Z</time>
      </trkpt>
      <trkpt lat="42.2886" lon="3.21656">
        <ele>285.7</ele>
        <time>2024-09-24T07:55:01.000Z</time>
      </trkpt>
      <trkpt lat="42.28846" lon="3.21638">
        <ele>285.97</ele>
        <time>2024-09-24T07:55:06.000Z</time>
      </trkpt>
      <trkpt lat="42.28847" lon="3.2161">
        <ele>286.22</ele>
        <time>2024-09-24T07:55:11.000Z</time>
      </trkpt>
      <trkpt lat="42.28859" lon="3.21587">
        <ele>286.45</ele>
        <time>2024-09-24T07:55:16.000Z</time>
      </trkpt>
      <trkpt lat="42.28872" lon="3.21565">
        <ele>286.68</ele>
        <time>2024-09-24T07:55:21.000Z</time>
      </trkpt>
      <trkpt lat="42.28884" lon="3.21542">
        <ele>286.92</ele>
        <time>2024-09-24T07:55:26.000Z</time>
      </trkpt>
      <trkpt lat="42.28892" lon="3.21515">
        <ele>287.16</ele>
        <time>2024-09-24T07:55:31.000Z</time>
      </trkpt>
      <trkpt lat="42.28896" lon="3.21487">
        <ele>287.41</ele>
        <time>2024-09-24T07:55:36.000Z</time>
      </trkpt>
      <trkpt lat="42.28899" lon="3.21462">
        <ele>287.56</ele>
        <time>2024-09-24T07:55:41.000Z</time>
      </trkpt>
      <trkpt lat="42.28904" lon="3.21444">
        <ele>287.61</ele>
        <time>2024-09-24T07:55:46.000Z</time>
      </trkpt>
      <trkpt lat="42.28901" lon="3.21433">
        <ele>287.67</ele>
        <time>2024-09-24T07:55:51.000Z</time>
      </trkpt>
      <trkpt lat="42.28896" lon="3.21422">
        <ele>289.16</ele>
        <time>2024-09-24T07:57:55.000Z</time>
      </trkpt>
      <trkpt lat="42.28889" lon="3.21394">
        <ele>292.09</ele>
        <time>2024-09-24T07:58:00.000Z</time>
      </trkpt>
      <trkpt lat="42.28883" lon="3.21359">
        <ele>293.32</ele>
        <time>2024-09-24T07:58:05.000Z</time>
      </trkpt>
      <trkpt lat="42.28876" lon="3.21316">
        <ele>293.98</ele>
        <time>2024-09-24T07:58:10.000Z</time>
      </trkpt>
      <trkpt lat="42.28869" lon="3.21267">
        <ele>294.45</ele>
        <time>2024-09-24T07:58:15.000Z</time>
      </trkpt>
      <trkpt lat="42.28871" lon="3.21222">
        <ele>294.83</ele>
        <time>2024-09-24T07:58:20.000Z</time>
      </trkpt>
      <trkpt lat="42.28863" lon="3.21181">
        <ele>295.08</ele>
        <time>2024-09-24T07:58:25.000Z</time>
      </trkpt>
      <trkpt lat="42.28848" lon="3.21143">
        <ele>295.41</ele>
        <time>2024-09-24T07:58:30.000Z</time>
      </trkpt>
      <trkpt lat="42.28837" lon="3.21104">
        <ele>295.84</ele>
        <time>2024-09-24T07:58:35.000Z</time>
      </trkpt>
      <trkpt lat="42.28852" lon="3.21071">
        <ele>296.19</ele>
        <time>2024-09-24T07:58:40.000Z</time>
      </trkpt>
      <trkpt lat="42.28879" lon="3.21048">
        <ele>296.37</ele>
        <time>2024-09-24T07:58:45.000Z</time>
      </trkpt>
      <trkpt lat="42.28906" lon="3.21023">
        <ele>296.52</ele>
        <time>2024-09-24T07:58:50.000Z</time>
      </trkpt>
      <trkpt lat="42.2893" lon="3.20992">
        <ele>296.71</ele>
        <time>2024-09-24T07:58:55.000Z</time>
      </trkpt>
      <trkpt lat="42.28944" lon="3.20951">
        <ele>296.75</ele>
        <time>2024-09-24T07:59:00.000Z</time>
      </trkpt>
      <trkpt lat="42.28954" lon="3.20908">
        <ele>296.8</ele>
        <time>2024-09-24T07:59:05.000Z</time>
      </trkpt>
      <trkpt lat="42.28969" lon="3.20869">
        <ele>296.6</ele>
        <time>2024-09-24T07:59:10.000Z</time>
      </trkpt>
      <trkpt lat="42.28992" lon="3.20839">
        <ele>296.88</ele>
        <time>2024-09-24T07:59:15.000Z</time>
      </trkpt>
      <trkpt lat="42.29003" lon="3.20797">
        <ele>296.97</ele>
        <time>2024-09-24T07:59:20.000Z</time>
      </trkpt>
      <trkpt lat="42.29033" lon="3.20779">
        <ele>296.8</ele>
        <time>2024-09-24T07:59:25.000Z</time>
      </trkpt>
      <trkpt lat="42.29065" lon="3.20798">
        <ele>296.69</ele>
        <time>2024-09-24T07:59:30.000Z</time>
      </trkpt>
      <trkpt lat="42.29099" lon="3.20818">
        <ele>296.8</ele>
        <time>2024-09-24T07:59:35.000Z</time>
      </trkpt>
      <trkpt lat="42.29135" lon="3.20816">
        <ele>296.59</ele>
        <time>2024-09-24T07:59:40.000Z</time>
      </trkpt>
      <trkpt lat="42.29171" lon="3.20795">
        <ele>296.09</ele>
        <time>2024-09-24T07:59:45.000Z</time>
      </trkpt>
      <trkpt lat="42.29209" lon="3.20776">
        <ele>295.46</ele>
        <time>2024-09-24T07:59:50.000Z</time>
      </trkpt>
      <trkpt lat="42.29249" lon="3.20764">
        <ele>294.63</ele>
        <time>2024-09-24T07:59:55.000Z</time>
      </trkpt>
      <trkpt lat="42.29287" lon="3.20756">
        <ele>293.69</ele>
        <time>2024-09-24T08:00:00.000Z</time>
      </trkpt>
      <trkpt lat="42.29327" lon="3.20759">
        <ele>292.62</ele>
        <time>2024-09-24T08:00:05.000Z</time>
      </trkpt>
      <trkpt lat="42.29366" lon="3.20746">
        <ele>291.85</ele>
        <time>2024-09-24T08:00:10.000Z</time>
      </trkpt>
      <trkpt lat="42.29399" lon="3.20714">
        <ele>291.12</ele>
        <time>2024-09-24T08:00:15.000Z</time>
      </trkpt>
      <trkpt lat="42.29428" lon="3.20674">
        <ele>290.2</ele>
        <time>2024-09-24T08:00:20.000Z</time>
      </trkpt>
      <trkpt lat="42.29455" lon="3.20633">
        <ele>289.22</ele>
        <time>2024-09-24T08:00:25.000Z</time>
      </trkpt>
      <trkpt lat="42.2948" lon="3.20593">
        <ele>288.5</ele>
        <time>2024-09-24T08:00:30.000Z</time>
      </trkpt>
      <trkpt lat="42.29502" lon="3.20551">
        <ele>287.51</ele>
        <time>2024-09-24T08:00:35.000Z</time>
      </trkpt>
      <trkpt lat="42.2954" lon="3.20542">
        <ele>286.3</ele>
        <time>2024-09-24T08:00:40.000Z</time>
      </trkpt>
      <trkpt lat="42.2958" lon="3.20541">
        <ele>284.62</ele>
        <time>2024-09-24T08:00:45.000Z</time>
      </trkpt>
      <trkpt lat="42.29604" lon="3.20498">
        <ele>283.12</ele>
        <time>2024-09-24T08:00:50.000Z</time>
      </trkpt>
      <trkpt lat="42.29598" lon="3.20435">
        <ele>281.63</ele>
        <time>2024-09-24T08:00:55.000Z</time>
      </trkpt>
      <trkpt lat="42.29582" lon="3.20371">
        <ele>280.1</ele>
        <time>2024-09-24T08:01:00.000Z</time>
      </trkpt>
      <trkpt lat="42.29604" lon="3.20309">
        <ele>278.05</ele>
        <time>2024-09-24T08:01:05.000Z</time>
      </trkpt>
      <trkpt lat="42.29613" lon="3.20239">
        <ele>275.69</ele>
        <time>2024-09-24T08:01:10.000Z</time>
      </trkpt>
      <trkpt lat="42.29659" lon="3.20201">
        <ele>273.22</ele>
        <time>2024-09-24T08:01:15.000Z</time>
      </trkpt>
      <trkpt lat="42.29701" lon="3.20161">
        <ele>271.04</ele>
        <time>2024-09-24T08:01:20.000Z</time>
      </trkpt>
      <trkpt lat="42.29692" lon="3.20097">
        <ele>268.75</ele>
        <time>2024-09-24T08:01:25.000Z</time>
      </trkpt>
      <trkpt lat="42.29656" lon="3.20041">
        <ele>266.42</ele>
        <time>2024-09-24T08:01:30.000Z</time>
      </trkpt>
      <trkpt lat="42.29609" lon="3.20003">
        <ele>263.54</ele>
        <time>2024-09-24T08:01:35.000Z</time>
      </trkpt>
      <trkpt lat="42.29557" lon="3.19979">
        <ele>259.73</ele>
        <time>2024-09-24T08:01:40.000Z</time>
      </trkpt>
      <trkpt lat="42.29505" lon="3.19959">
        <ele>255.53</ele>
        <time>2024-09-24T08:01:45.000Z</time>
      </trkpt>
      <trkpt lat="42.29489" lon="3.1992">
        <ele>251.68</ele>
        <time>2024-09-24T08:01:50.000Z</time>
      </trkpt>
      <trkpt lat="42.29527" lon="3.19887">
        <ele>249.24</ele>
        <time>2024-09-24T08:01:55.000Z</time>
      </trkpt>
      <trkpt lat="42.29563" lon="3.19851">
        <ele>247.29</ele>
        <time>2024-09-24T08:02:00.000Z</time>
      </trkpt>
      <trkpt lat="42.29596" lon="3.19807">
        <ele>244.93</ele>
        <time>2024-09-24T08:02:05.000Z</time>
      </trkpt>
      <trkpt lat="42.29632" lon="3.19769">
        <ele>242.62</ele>
        <time>2024-09-24T08:02:10.000Z</time>
      </trkpt>
      <trkpt lat="42.29628" lon="3.19715">
        <ele>240.31</ele>
        <time>2024-09-24T08:02:15.000Z</time>
      </trkpt>
      <trkpt lat="42.296" lon="3.19668">
        <ele>237.97</ele>
        <time>2024-09-24T08:02:20.000Z</time>
      </trkpt>
      <trkpt lat="42.29571" lon="3.19616">
        <ele>234.65</ele>
        <time>2024-09-24T08:02:25.000Z</time>
      </trkpt>
      <trkpt lat="42.29523" lon="3.19588">
        <ele>231.05</ele>
        <time>2024-09-24T08:02:30.000Z</time>
      </trkpt>
      <trkpt lat="42.29477" lon="3.19553">
        <ele>227.33</ele>
        <time>2024-09-24T08:02:35.000Z</time>
      </trkpt>
      <trkpt lat="42.29439" lon="3.19502">
        <ele>223.16</ele>
        <time>2024-09-24T08:02:40.000Z</time>
      </trkpt>
      <trkpt lat="42.29401" lon="3.19449">
        <ele>218.87</ele>
        <time>2024-09-24T08:02:45.000Z</time>
      </trkpt>
      <trkpt lat="42.29385" lon="3.19378">
        <ele>214.41</ele>
        <time>2024-09-24T08:02:50.000Z</time>
      </trkpt>
      <trkpt lat="42.29404" lon="3.19309">
        <ele>210.81</ele>
        <time>2024-09-24T08:02:55.000Z</time>
      </trkpt>
      <trkpt lat="42.29455" lon="3.19285">
        <ele>207.46</ele>
        <time>2024-09-24T08:03:00.000Z</time>
      </trkpt>
      <trkpt lat="42.29506" lon="3.19269">
        <ele>203.65</ele>
        <time>2024-09-24T08:03:05.000Z</time>
      </trkpt>
      <trkpt lat="42.2956" lon="3.19264">
        <ele>199.83</ele>
        <time>2024-09-24T08:03:10.000Z</time>
      </trkpt>
      <trkpt lat="42.29614" lon="3.19267">
        <ele>196.52</ele>
        <time>2024-09-24T08:03:15.000Z</time>
      </trkpt>
      <trkpt lat="42.29658" lon="3.19267">
        <ele>193.06</ele>
        <time>2024-09-24T08:03:20.000Z</time>
      </trkpt>
      <trkpt lat="42.29641" lon="3.19217">
        <ele>189.89</ele>
        <time>2024-09-24T08:03:25.000Z</time>
      </trkpt>
      <trkpt lat="42.29611" lon="3.19167">
        <ele>187.13</ele>
        <time>2024-09-24T08:03:30.000Z</time>
      </trkpt>
      <trkpt lat="42.29579" lon="3.19118">
        <ele>183.56</ele>
        <time>2024-09-24T08:03:35.000Z</time>
      </trkpt>
      <trkpt lat="42.29541" lon="3.19071">
        <ele>179.79</ele>
        <time>2024-09-24T08:03:40.000Z</time>
      </trkpt>
      <trkpt lat="42.29523" lon="3.19006">
        <ele>175.15</ele>
        <time>2024-09-24T08:03:45.000Z</time>
      </trkpt>
      <trkpt lat="42.2952" lon="3.18935">
        <ele>172.04</ele>
        <time>2024-09-24T08:03:50.000Z</time>
      </trkpt>
      <trkpt lat="42.29561" lon="3.18892">
        <ele>169.91</ele>
        <time>2024-09-24T08:03:55.000Z</time>
      </trkpt>
      <trkpt lat="42.29588" lon="3.18845">
        <ele>167.44</ele>
        <time>2024-09-24T08:04:00.000Z</time>
      </trkpt>
      <trkpt lat="42.29554" lon="3.18811">
        <ele>164.86</ele>
        <time>2024-09-24T08:04:05.000Z</time>
      </trkpt>
      <trkpt lat="42.29517" lon="3.18781">
        <ele>161.47</ele>
        <time>2024-09-24T08:04:10.000Z</time>
      </trkpt>
      <trkpt lat="42.29485" lon="3.18735">
        <ele>157.7</ele>
        <time>2024-09-24T08:04:15.000Z</time>
      </trkpt>
      <trkpt lat="42.29462" lon="3.18679">
        <ele>154.18</ele>
        <time>2024-09-24T08:04:20.000Z</time>
      </trkpt>
      <trkpt lat="42.29425" lon="3.18637">
        <ele>150.61</ele>
        <time>2024-09-24T08:04:25.000Z</time>
      </trkpt>
      <trkpt lat="42.29382" lon="3.186">
        <ele>147.4</ele>
        <time>2024-09-24T08:04:30.000Z</time>
      </trkpt>
      <trkpt lat="42.29348" lon="3.18559">
        <ele>144.35</ele>
        <time>2024-09-24T08:04:35.000Z</time>
      </trkpt>
      <trkpt lat="42.29298" lon="3.18547">
        <ele>141.94</ele>
        <time>2024-09-24T08:04:40.000Z</time>
      </trkpt>
      <trkpt lat="42.29254" lon="3.18514">
        <ele>139.11</ele>
        <time>2024-09-24T08:04:45.000Z</time>
      </trkpt>
      <trkpt lat="42.29215" lon="3.18474">
        <ele>135.78</ele>
        <time>2024-09-24T08:04:50.000Z</time>
      </trkpt>
      <trkpt lat="42.29167" lon="3.18464">
        <ele>132.58</ele>
        <time>2024-09-24T08:04:55.000Z</time>
      </trkpt>
      <trkpt lat="42.2912" lon="3.18459">
        <ele>128.89</ele>
        <time>2024-09-24T08:05:00.000Z</time>
      </trkpt>
      <trkpt lat="42.29096" lon="3.18401">
        <ele>125.48</ele>
        <time>2024-09-24T08:05:05.000Z</time>
      </trkpt>
      <trkpt lat="42.2907" lon="3.18345">
        <ele>121.92</ele>
        <time>2024-09-24T08:05:10.000Z</time>
      </trkpt>
      <trkpt lat="42.29019" lon="3.18335">
        <ele>118.41</ele>
        <time>2024-09-24T08:05:15.000Z</time>
      </trkpt>
      <trkpt lat="42.28966" lon="3.1833">
        <ele>115.16</ele>
        <time>2024-09-24T08:05:20.000Z</time>
      </trkpt>
      <trkpt lat="42.28934" lon="3.18295">
        <ele>112</ele>
        <time>2024-09-24T08:05:25.000Z</time>
      </trkpt>
      <trkpt lat="42.28945" lon="3.18233">
        <ele>109.23</ele>
        <time>2024-09-24T08:05:30.000Z</time>
      </trkpt>
      <trkpt lat="42.28904" lon="3.18198">
        <ele>106.44</ele>
        <time>2024-09-24T08:05:35.000Z</time>
      </trkpt>
      <trkpt lat="42.28864" lon="3.18161">
        <ele>103.39</ele>
        <time>2024-09-24T08:05:40.000Z</time>
      </trkpt>
      <trkpt lat="42.28834" lon="3.18113">
        <ele>100.65</ele>
        <time>2024-09-24T08:05:45.000Z</time>
      </trkpt>
      <trkpt lat="42.28797" lon="3.18057">
        <ele>97.47</ele>
        <time>2024-09-24T08:05:50.999Z</time>
      </trkpt>
      <trkpt lat="42.28766" lon="3.18013">
        <ele>94.9</ele>
        <time>2024-09-24T08:05:55.999Z</time>
      </trkpt>
      <trkpt lat="42.28733" lon="3.17972">
        <ele>92.15</ele>
        <time>2024-09-24T08:06:00.999Z</time>
      </trkpt>
      <trkpt lat="42.28701" lon="3.17932">
        <ele>90.07</ele>
        <time>2024-09-24T08:06:05.999Z</time>
      </trkpt>
      <trkpt lat="42.2867" lon="3.17892">
        <ele>88.08</ele>
        <time>2024-09-24T08:06:10.999Z</time>
      </trkpt>
      <trkpt lat="42.28645" lon="3.17845">
        <ele>85.65</ele>
        <time>2024-09-24T08:06:15.999Z</time>
      </trkpt>
      <trkpt lat="42.28632" lon="3.17792">
        <ele>83.24</ele>
        <time>2024-09-24T08:06:20.999Z</time>
      </trkpt>
      <trkpt lat="42.28622" lon="3.17737">
        <ele>81.02</ele>
        <time>2024-09-24T08:06:25.999Z</time>
      </trkpt>
      <trkpt lat="42.28614" lon="3.17682">
        <ele>78.8</ele>
        <time>2024-09-24T08:06:30.999Z</time>
      </trkpt>
      <trkpt lat="42.286" lon="3.17629">
        <ele>76.51</ele>
        <time>2024-09-24T08:06:35.999Z</time>
      </trkpt>
      <trkpt lat="42.28579" lon="3.17581">
        <ele>74.14</ele>
        <time>2024-09-24T08:06:40.999Z</time>
      </trkpt>
      <trkpt lat="42.28555" lon="3.17539">
        <ele>72.39</ele>
        <time>2024-09-24T08:06:45.999Z</time>
      </trkpt>
      <trkpt lat="42.28533" lon="3.17499">
        <ele>70.65</ele>
        <time>2024-09-24T08:06:50.999Z</time>
      </trkpt>
      <trkpt lat="42.28514" lon="3.17461">
        <ele>68.88</ele>
        <time>2024-09-24T08:06:55.999Z</time>
      </trkpt>
      <trkpt lat="42.28493" lon="3.17426">
        <ele>67.43</ele>
        <time>2024-09-24T08:07:00.999Z</time>
      </trkpt>
      <trkpt lat="42.28474" lon="3.17391">
        <ele>66.41</ele>
        <time>2024-09-24T08:07:05.999Z</time>
      </trkpt>
      <trkpt lat="42.28455" lon="3.17355">
        <ele>65.62</ele>
        <time>2024-09-24T08:07:10.999Z</time>
      </trkpt>
      <trkpt lat="42.28436" lon="3.17321">
        <ele>64.9</ele>
        <time>2024-09-24T08:07:15.999Z</time>
      </trkpt>
      <trkpt lat="42.28416" lon="3.17286">
        <ele>64.33</ele>
        <time>2024-09-24T08:07:20.999Z</time>
      </trkpt>
      <trkpt lat="42.28398" lon="3.17251">
        <ele>63.72</ele>
        <time>2024-09-24T08:07:25.999Z</time>
      </trkpt>
      <trkpt lat="42.28378" lon="3.17216">
        <ele>63.24</ele>
        <time>2024-09-24T08:07:30.999Z</time>
      </trkpt>
      <trkpt lat="42.2836" lon="3.17179">
        <ele>62.62</ele>
        <time>2024-09-24T08:07:35.999Z</time>
      </trkpt>
      <trkpt lat="42.2834" lon="3.17144">
        <ele>62.15</ele>
        <time>2024-09-24T08:07:40.999Z</time>
      </trkpt>
      <trkpt lat="42.28319" lon="3.17108">
        <ele>61.63</ele>
        <time>2024-09-24T08:07:45.999Z</time>
      </trkpt>
      <trkpt lat="42.283" lon="3.1707">
        <ele>61.07</ele>
        <time>2024-09-24T08:07:50.999Z</time>
      </trkpt>
      <trkpt lat="42.28278" lon="3.17033">
        <ele>60.45</ele>
        <time>2024-09-24T08:07:55.999Z</time>
      </trkpt>
      <trkpt lat="42.28256" lon="3.16993">
        <ele>59.86</ele>
        <time>2024-09-24T08:08:00.999Z</time>
      </trkpt>
      <trkpt lat="42.28234" lon="3.16953">
        <ele>59.23</ele>
        <time>2024-09-24T08:08:05.999Z</time>
      </trkpt>
      <trkpt lat="42.28212" lon="3.16914">
        <ele>58.61</ele>
        <time>2024-09-24T08:08:10.999Z</time>
      </trkpt>
      <trkpt lat="42.28189" lon="3.16873">
        <ele>57.83</ele>
        <time>2024-09-24T08:08:15.999Z</time>
      </trkpt>
      <trkpt lat="42.28166" lon="3.16832">
        <ele>57.13</ele>
        <time>2024-09-24T08:08:20.999Z</time>
      </trkpt>
      <trkpt lat="42.28142" lon="3.16789">
        <ele>56.47</ele>
        <time>2024-09-24T08:08:25.999Z</time>
      </trkpt>
      <trkpt lat="42.28119" lon="3.16747">
        <ele>55.79</ele>
        <time>2024-09-24T08:08:30.999Z</time>
      </trkpt>
      <trkpt lat="42.28095" lon="3.16704">
        <ele>55.1</ele>
        <time>2024-09-24T08:08:35.999Z</time>
      </trkpt>
      <trkpt lat="42.28071" lon="3.16661">
        <ele>54.4</ele>
        <time>2024-09-24T08:08:40.999Z</time>
      </trkpt>
      <trkpt lat="42.28042" lon="3.1661">
        <ele>53.59</ele>
        <time>2024-09-24T08:08:46.999Z</time>
      </trkpt>
      <trkpt lat="42.28017" lon="3.16567">
        <ele>52.93</ele>
        <time>2024-09-24T08:08:51.999Z</time>
      </trkpt>
      <trkpt lat="42.27993" lon="3.16525">
        <ele>52.31</ele>
        <time>2024-09-24T08:08:56.999Z</time>
      </trkpt>
      <trkpt lat="42.2797" lon="3.16482">
        <ele>51.76</ele>
        <time>2024-09-24T08:09:01.999Z</time>
      </trkpt>
      <trkpt lat="42.27946" lon="3.16439">
        <ele>51.07</ele>
        <time>2024-09-24T08:09:06.999Z</time>
      </trkpt>
      <trkpt lat="42.27923" lon="3.16397">
        <ele>50.59</ele>
        <time>2024-09-24T08:09:11.999Z</time>
      </trkpt>
      <trkpt lat="42.27901" lon="3.16357">
        <ele>50.08</ele>
        <time>2024-09-24T08:09:16.999Z</time>
      </trkpt>
      <trkpt lat="42.2788" lon="3.16319">
        <ele>49.56</ele>
        <time>2024-09-24T08:09:21.999Z</time>
      </trkpt>
      <trkpt lat="42.2786" lon="3.16282">
        <ele>48.96</ele>
        <time>2024-09-24T08:09:26.999Z</time>
      </trkpt>
      <trkpt lat="42.2784" lon="3.16245">
        <ele>48.24</ele>
        <time>2024-09-24T08:09:31.999Z</time>
      </trkpt>
      <trkpt lat="42.2782" lon="3.16207">
        <ele>47.66</ele>
        <time>2024-09-24T08:09:36.999Z</time>
      </trkpt>
      <trkpt lat="42.278" lon="3.16171">
        <ele>47.22</ele>
        <time>2024-09-24T08:09:41.999Z</time>
      </trkpt>
      <trkpt lat="42.27781" lon="3.16136">
        <ele>46.95</ele>
        <time>2024-09-24T08:09:46.999Z</time>
      </trkpt>
      <trkpt lat="42.27763" lon="3.16104">
        <ele>46.55</ele>
        <time>2024-09-24T08:09:51.999Z</time>
      </trkpt>
      <trkpt lat="42.27746" lon="3.16072">
        <ele>46.13</ele>
        <time>2024-09-24T08:09:56.999Z</time>
      </trkpt>
      <trkpt lat="42.27728" lon="3.16039">
        <ele>45.76</ele>
        <time>2024-09-24T08:10:01.999Z</time>
      </trkpt>
      <trkpt lat="42.27708" lon="3.16005">
        <ele>45.32</ele>
        <time>2024-09-24T08:10:06.999Z</time>
      </trkpt>
      <trkpt lat="42.27691" lon="3.1597">
        <ele>44.9</ele>
        <time>2024-09-24T08:10:11.999Z</time>
      </trkpt>
      <trkpt lat="42.27677" lon="3.15937">
        <ele>44.36</ele>
        <time>2024-09-24T08:10:16.999Z</time>
      </trkpt>
      <trkpt lat="42.27679" lon="3.15903">
        <ele>43.9</ele>
        <time>2024-09-24T08:10:21.999Z</time>
      </trkpt>
      <trkpt lat="42.27666" lon="3.15873">
        <ele>43.57</ele>
        <time>2024-09-24T08:10:26.999Z</time>
      </trkpt>
      <trkpt lat="42.27641" lon="3.15862">
        <ele>43.22</ele>
        <time>2024-09-24T08:10:31.999Z</time>
      </trkpt>
      <trkpt lat="42.27619" lon="3.15837">
        <ele>42.83</ele>
        <time>2024-09-24T08:10:36.999Z</time>
      </trkpt>
      <trkpt lat="42.276" lon="3.15807">
        <ele>42.42</ele>
        <time>2024-09-24T08:10:41.999Z</time>
      </trkpt>
      <trkpt lat="42.27582" lon="3.15775">
        <ele>41.94</ele>
        <time>2024-09-24T08:10:46.999Z</time>
      </trkpt>
      <trkpt lat="42.27562" lon="3.15738">
        <ele>41.39</ele>
        <time>2024-09-24T08:10:51.999Z</time>
      </trkpt>
      <trkpt lat="42.2754" lon="3.15699">
        <ele>40.81</ele>
        <time>2024-09-24T08:10:56.999Z</time>
      </trkpt>
      <trkpt lat="42.27517" lon="3.15658">
        <ele>40.19</ele>
        <time>2024-09-24T08:11:01.999Z</time>
      </trkpt>
      <trkpt lat="42.27495" lon="3.15617">
        <ele>39.8</ele>
        <time>2024-09-24T08:11:06.999Z</time>
      </trkpt>
      <trkpt lat="42.27474" lon="3.15578">
        <ele>39.49</ele>
        <time>2024-09-24T08:11:11.999Z</time>
      </trkpt>
      <trkpt lat="42.27454" lon="3.15542">
        <ele>39.19</ele>
        <time>2024-09-24T08:11:16.999Z</time>
      </trkpt>
      <trkpt lat="42.27435" lon="3.15505">
        <ele>38.5</ele>
        <time>2024-09-24T08:11:21.999Z</time>
      </trkpt>
      <trkpt lat="42.27414" lon="3.15468">
        <ele>38.1</ele>
        <time>2024-09-24T08:11:26.999Z</time>
      </trkpt>
      <trkpt lat="42.27394" lon="3.15431">
        <ele>37.47</ele>
        <time>2024-09-24T08:11:31.999Z</time>
      </trkpt>
      <trkpt lat="42.27372" lon="3.15394">
        <ele>36.81</ele>
        <time>2024-09-24T08:11:36.999Z</time>
      </trkpt>
      <trkpt lat="42.27351" lon="3.15355">
        <ele>36.08</ele>
        <time>2024-09-24T08:11:41.999Z</time>
      </trkpt>
      <trkpt lat="42.2733" lon="3.15316">
        <ele>35.19</ele>
        <time>2024-09-24T08:11:46.999Z</time>
      </trkpt>
      <trkpt lat="42.27308" lon="3.15276">
        <ele>34.15</ele>
        <time>2024-09-24T08:11:51.999Z</time>
      </trkpt>
      <trkpt lat="42.27286" lon="3.15237">
        <ele>33.13</ele>
        <time>2024-09-24T08:11:56.999Z</time>
      </trkpt>
      <trkpt lat="42.27265" lon="3.152">
        <ele>31.91</ele>
        <time>2024-09-24T08:12:01.999Z</time>
      </trkpt>
      <trkpt lat="42.27243" lon="3.15159">
        <ele>30.84</ele>
        <time>2024-09-24T08:12:06.999Z</time>
      </trkpt>
      <trkpt lat="42.27219" lon="3.15119">
        <ele>29.89</ele>
        <time>2024-09-24T08:12:11.999Z</time>
      </trkpt>
      <trkpt lat="42.27197" lon="3.15078">
        <ele>29.02</ele>
        <time>2024-09-24T08:12:16.999Z</time>
      </trkpt>
      <trkpt lat="42.27177" lon="3.1504">
        <ele>28.23</ele>
        <time>2024-09-24T08:12:21.999Z</time>
      </trkpt>
      <trkpt lat="42.27162" lon="3.15007">
        <ele>27.58</ele>
        <time>2024-09-24T08:12:26.999Z</time>
      </trkpt>
      <trkpt lat="42.27158" lon="3.14968">
        <ele>26.73</ele>
        <time>2024-09-24T08:12:31.999Z</time>
      </trkpt>
      <trkpt lat="42.27164" lon="3.14933">
        <ele>26.44</ele>
        <time>2024-09-24T08:12:36.999Z</time>
      </trkpt>
      <trkpt lat="42.27175" lon="3.14906">
        <ele>26.42</ele>
        <time>2024-09-24T08:12:41.999Z</time>
      </trkpt>
      <trkpt lat="42.27182" lon="3.1488">
        <ele>26.39</ele>
        <time>2024-09-24T08:12:46.999Z</time>
      </trkpt>
      <trkpt lat="42.27177" lon="3.14858">
        <ele>26.35</ele>
        <time>2024-09-24T08:12:51.999Z</time>
      </trkpt>
      <trkpt lat="42.27168" lon="3.1484">
        <ele>26.32</ele>
        <time>2024-09-24T08:12:56.999Z</time>
      </trkpt>
      <trkpt lat="42.27168" lon="3.14823">
        <ele>26.32</ele>
        <time>2024-09-24T08:13:01.999Z</time>
      </trkpt>
      <trkpt lat="42.27166" lon="3.14811">
        <ele>26.31</ele>
        <time>2024-09-24T08:13:06.999Z</time>
      </trkpt>
      <trkpt lat="42.27176" lon="3.14807">
        <ele>24.71</ele>
        <time>2024-09-24T08:14:32.999Z</time>
      </trkpt>
      <trkpt lat="42.27171" lon="3.14818">
        <ele>24.39</ele>
        <time>2024-09-24T08:14:42.999Z</time>
      </trkpt>
      <trkpt lat="42.27169" lon="3.14834">
        <ele>24.25</ele>
        <time>2024-09-24T08:14:47.999Z</time>
      </trkpt>
      <trkpt lat="42.27174" lon="3.14849">
        <ele>24.12</ele>
        <time>2024-09-24T08:14:52.999Z</time>
      </trkpt>
      <trkpt lat="42.27171" lon="3.14865">
        <ele>24</ele>
        <time>2024-09-24T08:14:57.999Z</time>
      </trkpt>
      <trkpt lat="42.27168" lon="3.14889">
        <ele>23.31</ele>
        <time>2024-09-24T08:15:02.999Z</time>
      </trkpt>
      <trkpt lat="42.27161" lon="3.14911">
        <ele>23.07</ele>
        <time>2024-09-24T08:15:07.999Z</time>
      </trkpt>
      <trkpt lat="42.27151" lon="3.14935">
        <ele>22.8</ele>
        <time>2024-09-24T08:15:12.999Z</time>
      </trkpt>
      <trkpt lat="42.27148" lon="3.14966">
        <ele>22.71</ele>
        <time>2024-09-24T08:15:17.999Z</time>
      </trkpt>
      <trkpt lat="42.27153" lon="3.14998">
        <ele>22.74</ele>
        <time>2024-09-24T08:15:22.999Z</time>
      </trkpt>
      <trkpt lat="42.27162" lon="3.15024">
        <ele>22.82</ele>
        <time>2024-09-24T08:15:27.999Z</time>
      </trkpt>
      <trkpt lat="42.27174" lon="3.15047">
        <ele>23.01</ele>
        <time>2024-09-24T08:15:32.999Z</time>
      </trkpt>
      <trkpt lat="42.27188" lon="3.15067">
        <ele>23.15</ele>
        <time>2024-09-24T08:15:37.999Z</time>
      </trkpt>
      <trkpt lat="42.27204" lon="3.15073">
        <ele>23.22</ele>
        <time>2024-09-24T08:15:42.999Z</time>
      </trkpt>
      <trkpt lat="42.27216" lon="3.15059">
        <ele>23.26</ele>
        <time>2024-09-24T08:15:47.999Z</time>
      </trkpt>
      <trkpt lat="42.27224" lon="3.15048">
        <ele>23.31</ele>
        <time>2024-09-24T08:15:52.999Z</time>
      </trkpt>
      <trkpt lat="42.27232" lon="3.1504">
        <ele>23.39</ele>
        <time>2024-09-24T08:15:57.999Z</time>
      </trkpt>
      <trkpt lat="42.27242" lon="3.15034">
        <ele>23.51</ele>
        <time>2024-09-24T08:16:02.999Z</time>
      </trkpt>
      <trkpt lat="42.2725" lon="3.15029">
        <ele>23.44</ele>
        <time>2024-09-24T08:18:43.000Z</time>
      </trkpt>
      <trkpt lat="42.27258" lon="3.1502">
        <ele>23.34</ele>
        <time>2024-09-24T08:18:53.000Z</time>
      </trkpt>
      <trkpt lat="42.27274" lon="3.1501">
        <ele>23.18</ele>
        <time>2024-09-24T08:18:58.000Z</time>
      </trkpt>
      <trkpt lat="42.27292" lon="3.14999">
        <ele>22.91</ele>
        <time>2024-09-24T08:19:03.000Z</time>
      </trkpt>
      <trkpt lat="42.27309" lon="3.14985">
        <ele>22.84</ele>
        <time>2024-09-24T08:19:08.000Z</time>
      </trkpt>
      <trkpt lat="42.27321" lon="3.14974">
        <ele>22.84</ele>
        <time>2024-09-24T08:19:13.000Z</time>
      </trkpt>
      <trkpt lat="42.27328" lon="3.14965">
        <ele>22.86</ele>
        <time>2024-09-24T08:19:31.000Z</time>
      </trkpt>
      <trkpt lat="42.27335" lon="3.14952">
        <ele>22.88</ele>
        <time>2024-09-24T08:19:36.000Z</time>
      </trkpt>
      <trkpt lat="42.27344" lon="3.14931">
        <ele>22.91</ele>
        <time>2024-09-24T08:19:41.000Z</time>
      </trkpt>
      <trkpt lat="42.27353" lon="3.1491">
        <ele>23.12</ele>
        <time>2024-09-24T08:19:46.000Z</time>
      </trkpt>
      <trkpt lat="42.27363" lon="3.14888">
        <ele>23.25</ele>
        <time>2024-09-24T08:19:51.000Z</time>
      </trkpt>
      <trkpt lat="42.27374" lon="3.14868">
        <ele>23.27</ele>
        <time>2024-09-24T08:19:56.000Z</time>
      </trkpt>
      <trkpt lat="42.27384" lon="3.1485">
        <ele>23.29</ele>
        <time>2024-09-24T08:20:01.000Z</time>
      </trkpt>
      <trkpt lat="42.27395" lon="3.14834">
        <ele>23.32</ele>
        <time>2024-09-24T08:20:06.000Z</time>
      </trkpt>
      <trkpt lat="42.27408" lon="3.14821">
        <ele>23.36</ele>
        <time>2024-09-24T08:20:11.000Z</time>
      </trkpt>
      <trkpt lat="42.27424" lon="3.14809">
        <ele>23.41</ele>
        <time>2024-09-24T08:20:16.000Z</time>
      </trkpt>
      <trkpt lat="42.27439" lon="3.14798">
        <ele>23.46</ele>
        <time>2024-09-24T08:20:21.000Z</time>
      </trkpt>
      <trkpt lat="42.27454" lon="3.14786">
        <ele>23.52</ele>
        <time>2024-09-24T08:20:26.000Z</time>
      </trkpt>
      <trkpt lat="42.27465" lon="3.1477">
        <ele>23.58</ele>
        <time>2024-09-24T08:20:31.000Z</time>
      </trkpt>
      <trkpt lat="42.2747" lon="3.14752">
        <ele>23.63</ele>
        <time>2024-09-24T08:20:36.000Z</time>
      </trkpt>
      <trkpt lat="42.27478" lon="3.1474">
        <ele>23.7</ele>
        <time>2024-09-24T08:20:41.000Z</time>
      </trkpt>
      <trkpt lat="42.27488" lon="3.14731">
        <ele>23.77</ele>
        <time>2024-09-24T08:20:46.000Z</time>
      </trkpt>
      <trkpt lat="42.275" lon="3.14721">
        <ele>23.84</ele>
        <time>2024-09-24T08:20:51.000Z</time>
      </trkpt>
      <trkpt lat="42.27513" lon="3.1471">
        <ele>23.91</ele>
        <time>2024-09-24T08:20:56.000Z</time>
      </trkpt>
      <trkpt lat="42.27527" lon="3.14698">
        <ele>23.98</ele>
        <time>2024-09-24T08:21:01.000Z</time>
      </trkpt>
      <trkpt lat="42.2754" lon="3.14687">
        <ele>24.05</ele>
        <time>2024-09-24T08:21:06.000Z</time>
      </trkpt>
      <trkpt lat="42.27553" lon="3.14674">
        <ele>24.12</ele>
        <time>2024-09-24T08:21:11.000Z</time>
      </trkpt>
      <trkpt lat="42.27569" lon="3.14678">
        <ele>24.19</ele>
        <time>2024-09-24T08:21:16.000Z</time>
      </trkpt>
      <trkpt lat="42.27583" lon="3.14669">
        <ele>24.27</ele>
        <time>2024-09-24T08:21:21.000Z</time>
      </trkpt>
      <trkpt lat="42.27597" lon="3.14651">
        <ele>24.44</ele>
        <time>2024-09-24T08:21:26.000Z</time>
      </trkpt>
      <trkpt lat="42.27617" lon="3.14633">
        <ele>24.82</ele>
        <time>2024-09-24T08:21:31.000Z</time>
      </trkpt>
      <trkpt lat="42.27639" lon="3.14619">
        <ele>25</ele>
        <time>2024-09-24T08:21:36.000Z</time>
      </trkpt>
      <trkpt lat="42.27658" lon="3.14606">
        <ele>25.12</ele>
        <time>2024-09-24T08:21:41.000Z</time>
      </trkpt>
      <trkpt lat="42.27678" lon="3.14593">
        <ele>25.23</ele>
        <time>2024-09-24T08:21:46.000Z</time>
      </trkpt>
      <trkpt lat="42.27698" lon="3.14578">
        <ele>25.34</ele>
        <time>2024-09-24T08:21:51.000Z</time>
      </trkpt>
      <trkpt lat="42.27718" lon="3.14566">
        <ele>25.41</ele>
        <time>2024-09-24T08:21:56.000Z</time>
      </trkpt>
      <trkpt lat="42.27737" lon="3.14552">
        <ele>25.5</ele>
        <time>2024-09-24T08:22:01.000Z</time>
      </trkpt>
      <trkpt lat="42.27754" lon="3.14539">
        <ele>25.64</ele>
        <time>2024-09-24T08:22:06.000Z</time>
      </trkpt>
      <trkpt lat="42.27771" lon="3.14528">
        <ele>25.69</ele>
        <time>2024-09-24T08:22:11.000Z</time>
      </trkpt>
      <trkpt lat="42.27785" lon="3.14517">
        <ele>25.71</ele>
        <time>2024-09-24T08:22:16.000Z</time>
      </trkpt>
      <trkpt lat="42.27798" lon="3.14507">
        <ele>25.73</ele>
        <time>2024-09-24T08:22:21.000Z</time>
      </trkpt>
      <trkpt lat="42.27811" lon="3.14498">
        <ele>25.76</ele>
        <time>2024-09-24T08:22:26.000Z</time>
      </trkpt>
      <trkpt lat="42.27824" lon="3.14488">
        <ele>25.79</ele>
        <time>2024-09-24T08:22:31.000Z</time>
      </trkpt>
      <trkpt lat="42.27834" lon="3.14477">
        <ele>25.83</ele>
        <time>2024-09-24T08:22:36.000Z</time>
      </trkpt>
      <trkpt lat="42.27845" lon="3.14463">
        <ele>25.88</ele>
        <time>2024-09-24T08:22:41.000Z</time>
      </trkpt>
      <trkpt lat="42.27856" lon="3.14448">
        <ele>25.93</ele>
        <time>2024-09-24T08:22:46.000Z</time>
      </trkpt>
      <trkpt lat="42.27868" lon="3.14431">
        <ele>25.99</ele>
        <time>2024-09-24T08:22:51.000Z</time>
      </trkpt>
      <trkpt lat="42.2788" lon="3.14415">
        <ele>26.05</ele>
        <time>2024-09-24T08:22:56.000Z</time>
      </trkpt>
      <trkpt lat="42.27891" lon="3.144">
        <ele>26.13</ele>
        <time>2024-09-24T08:23:01.000Z</time>
      </trkpt>
      <trkpt lat="42.27901" lon="3.14386">
        <ele>26.21</ele>
        <time>2024-09-24T08:23:06.000Z</time>
      </trkpt>
      <trkpt lat="42.27912" lon="3.14375">
        <ele>26.3</ele>
        <time>2024-09-24T08:23:11.000Z</time>
      </trkpt>
      <trkpt lat="42.27923" lon="3.14361">
        <ele>26.39</ele>
        <time>2024-09-24T08:23:16.000Z</time>
      </trkpt>
      <trkpt lat="42.27934" lon="3.14347">
        <ele>26.48</ele>
        <time>2024-09-24T08:23:21.000Z</time>
      </trkpt>
      <trkpt lat="42.27945" lon="3.14334">
        <ele>26.59</ele>
        <time>2024-09-24T08:23:26.000Z</time>
      </trkpt>
      <trkpt lat="42.27956" lon="3.1432">
        <ele>26.69</ele>
        <time>2024-09-24T08:23:31.000Z</time>
      </trkpt>
      <trkpt lat="42.27967" lon="3.14304">
        <ele>26.8</ele>
        <time>2024-09-24T08:23:36.000Z</time>
      </trkpt>
      <trkpt lat="42.27979" lon="3.14288">
        <ele>27.2</ele>
        <time>2024-09-24T08:23:41.000Z</time>
      </trkpt>
      <trkpt lat="42.27994" lon="3.14266">
        <ele>27.74</ele>
        <time>2024-09-24T08:23:46.000Z</time>
      </trkpt>
      <trkpt lat="42.28012" lon="3.14241">
        <ele>27.97</ele>
        <time>2024-09-24T08:23:51.000Z</time>
      </trkpt>
      <trkpt lat="42.28029" lon="3.14216">
        <ele>28.11</ele>
        <time>2024-09-24T08:23:56.000Z</time>
      </trkpt>
      <trkpt lat="42.28042" lon="3.14194">
        <ele>28.16</ele>
        <time>2024-09-24T08:24:01.000Z</time>
      </trkpt>
      <trkpt lat="42.28047" lon="3.14182">
        <ele>28.37</ele>
        <time>2024-09-24T08:25:45.000Z</time>
      </trkpt>
      <trkpt lat="42.28058" lon="3.1417">
        <ele>28.42</ele>
        <time>2024-09-24T08:25:50.000Z</time>
      </trkpt>
      <trkpt lat="42.28073" lon="3.14155">
        <ele>28.48</ele>
        <time>2024-09-24T08:25:55.000Z</time>
      </trkpt>
      <trkpt lat="42.28087" lon="3.14141">
        <ele>28.54</ele>
        <time>2024-09-24T08:26:00.000Z</time>
      </trkpt>
      <trkpt lat="42.28102" lon="3.14123">
        <ele>28.88</ele>
        <time>2024-09-24T08:26:05.000Z</time>
      </trkpt>
      <trkpt lat="42.2812" lon="3.14104">
        <ele>29.07</ele>
        <time>2024-09-24T08:26:10.000Z</time>
      </trkpt>
      <trkpt lat="42.28138" lon="3.14084">
        <ele>29.18</ele>
        <time>2024-09-24T08:26:15.000Z</time>
      </trkpt>
      <trkpt lat="42.28152" lon="3.14065">
        <ele>29.27</ele>
        <time>2024-09-24T08:26:20.000Z</time>
      </trkpt>
      <trkpt lat="42.28168" lon="3.14047">
        <ele>29.35</ele>
        <time>2024-09-24T08:26:25.000Z</time>
      </trkpt>
      <trkpt lat="42.28181" lon="3.14026">
        <ele>29.41</ele>
        <time>2024-09-24T08:26:30.000Z</time>
      </trkpt>
      <trkpt lat="42.28199" lon="3.14001">
        <ele>29.4</ele>
        <time>2024-09-24T08:26:35.000Z</time>
      </trkpt>
      <trkpt lat="42.28222" lon="3.1397">
        <ele>29.33</ele>
        <time>2024-09-24T08:26:40.000Z</time>
      </trkpt>
      <trkpt lat="42.28242" lon="3.1394">
        <ele>29.27</ele>
        <time>2024-09-24T08:26:45.000Z</time>
      </trkpt>
      <trkpt lat="42.28262" lon="3.13912">
        <ele>29.19</ele>
        <time>2024-09-24T08:26:50.000Z</time>
      </trkpt>
      <trkpt lat="42.2828" lon="3.13884">
        <ele>29.04</ele>
        <time>2024-09-24T08:26:55.000Z</time>
      </trkpt>
      <trkpt lat="42.28299" lon="3.13857">
        <ele>28.83</ele>
        <time>2024-09-24T08:27:00.000Z</time>
      </trkpt>
      <trkpt lat="42.28317" lon="3.13829">
        <ele>28.61</ele>
        <time>2024-09-24T08:27:05.000Z</time>
      </trkpt>
      <trkpt lat="42.28327" lon="3.138">
        <ele>28.15</ele>
        <time>2024-09-24T08:27:10.000Z</time>
      </trkpt>
      <trkpt lat="42.28331" lon="3.13771">
        <ele>27.87</ele>
        <time>2024-09-24T08:27:15.000Z</time>
      </trkpt>
      <trkpt lat="42.28335" lon="3.13742">
        <ele>27.79</ele>
        <time>2024-09-24T08:27:20.000Z</time>
      </trkpt>
      <trkpt lat="42.28338" lon="3.13712">
        <ele>27.79</ele>
        <time>2024-09-24T08:27:25.000Z</time>
      </trkpt>
      <trkpt lat="42.28341" lon="3.13682">
        <ele>27.92</ele>
        <time>2024-09-24T08:27:30.000Z</time>
      </trkpt>
      <trkpt lat="42.28345" lon="3.13651">
        <ele>28.14</ele>
        <time>2024-09-24T08:27:35.000Z</time>
      </trkpt>
      <trkpt lat="42.28349" lon="3.13622">
        <ele>28.36</ele>
        <time>2024-09-24T08:27:40.000Z</time>
      </trkpt>
      <trkpt lat="42.28357" lon="3.13593">
        <ele>28.56</ele>
        <time>2024-09-24T08:27:45.000Z</time>
      </trkpt>
      <trkpt lat="42.28365" lon="3.13567">
        <ele>28.75</ele>
        <time>2024-09-24T08:27:50.000Z</time>
      </trkpt>
      <trkpt lat="42.28369" lon="3.13544">
        <ele>28.85</ele>
        <time>2024-09-24T08:27:55.000Z</time>
      </trkpt>
      <trkpt lat="42.28373" lon="3.13531">
        <ele>28.86</ele>
        <time>2024-09-24T08:28:00.000Z</time>
      </trkpt>
      <trkpt lat="42.28376" lon="3.13519">
        <ele>28.87</ele>
        <time>2024-09-24T08:28:05.000Z</time>
      </trkpt>
      <trkpt lat="42.28388" lon="3.13497">
        <ele>28.82</ele>
        <time>2024-09-24T08:28:10.000Z</time>
      </trkpt>
      <trkpt lat="42.28397" lon="3.13473">
        <ele>28.73</ele>
        <time>2024-09-24T08:28:15.000Z</time>
      </trkpt>
      <trkpt lat="42.28404" lon="3.13453">
        <ele>28.72</ele>
        <time>2024-09-24T08:28:20.000Z</time>
      </trkpt>
      <trkpt lat="42.28409" lon="3.13441">
        <ele>28.69</ele>
        <time>2024-09-24T08:29:00.000Z</time>
      </trkpt>
      <trkpt lat="42.28415" lon="3.1342">
        <ele>28.65</ele>
        <time>2024-09-24T08:29:05.000Z</time>
      </trkpt>
      <trkpt lat="42.28422" lon="3.13401">
        <ele>28.63</ele>
        <time>2024-09-24T08:29:10.000Z</time>
      </trkpt>
      <trkpt lat="42.2843" lon="3.13381">
        <ele>28.6</ele>
        <time>2024-09-24T08:29:15.000Z</time>
      </trkpt>
      <trkpt lat="42.28438" lon="3.13358">
        <ele>28.48</ele>
        <time>2024-09-24T08:29:20.000Z</time>
      </trkpt>
      <trkpt lat="42.28446" lon="3.13332">
        <ele>28.25</ele>
        <time>2024-09-24T08:29:25.000Z</time>
      </trkpt>
      <trkpt lat="42.28455" lon="3.13305">
        <ele>28.12</ele>
        <time>2024-09-24T08:29:30.000Z</time>
      </trkpt>
      <trkpt lat="42.28462" lon="3.13277">
        <ele>28.05</ele>
        <time>2024-09-24T08:29:35.000Z</time>
      </trkpt>
      <trkpt lat="42.28465" lon="3.13249">
        <ele>27.99</ele>
        <time>2024-09-24T08:29:40.000Z</time>
      </trkpt>
      <trkpt lat="42.28467" lon="3.1322">
        <ele>27.91</ele>
        <time>2024-09-24T08:29:45.000Z</time>
      </trkpt>
      <trkpt lat="42.28466" lon="3.1319">
        <ele>27.79</ele>
        <time>2024-09-24T08:29:50.000Z</time>
      </trkpt>
      <trkpt lat="42.28462" lon="3.13159">
        <ele>27.67</ele>
        <time>2024-09-24T08:29:55.000Z</time>
      </trkpt>
      <trkpt lat="42.28458" lon="3.13127">
        <ele>27.58</ele>
        <time>2024-09-24T08:30:00.000Z</time>
      </trkpt>
      <trkpt lat="42.28458" lon="3.13095">
        <ele>27.5</ele>
        <time>2024-09-24T08:30:05.000Z</time>
      </trkpt>
      <trkpt lat="42.28457" lon="3.13056">
        <ele>27.42</ele>
        <time>2024-09-24T08:30:10.999Z</time>
      </trkpt>
      <trkpt lat="42.28459" lon="3.13023">
        <ele>27.32</ele>
        <time>2024-09-24T08:30:15.999Z</time>
      </trkpt>
      <trkpt lat="42.2846" lon="3.12992">
        <ele>27.21</ele>
        <time>2024-09-24T08:30:20.999Z</time>
      </trkpt>
      <trkpt lat="42.28462" lon="3.12963">
        <ele>27.13</ele>
        <time>2024-09-24T08:30:25.999Z</time>
      </trkpt>
      <trkpt lat="42.28464" lon="3.12937">
        <ele>27.09</ele>
        <time>2024-09-24T08:30:30.999Z</time>
      </trkpt>
      <trkpt lat="42.28466" lon="3.12914">
        <ele>27.08</ele>
        <time>2024-09-24T08:30:35.999Z</time>
      </trkpt>
      <trkpt lat="42.28474" lon="3.1289">
        <ele>26.98</ele>
        <time>2024-09-24T08:30:40.999Z</time>
      </trkpt>
      <trkpt lat="42.28483" lon="3.12866">
        <ele>26.84</ele>
        <time>2024-09-24T08:30:45.999Z</time>
      </trkpt>
      <trkpt lat="42.28491" lon="3.12838">
        <ele>26.76</ele>
        <time>2024-09-24T08:30:50.999Z</time>
      </trkpt>
      <trkpt lat="42.28501" lon="3.12811">
        <ele>26.72</ele>
        <time>2024-09-24T08:30:55.999Z</time>
      </trkpt>
      <trkpt lat="42.2851" lon="3.12785">
        <ele>26.65</ele>
        <time>2024-09-24T08:31:00.999Z</time>
      </trkpt>
      <trkpt lat="42.28518" lon="3.12763">
        <ele>26.63</ele>
        <time>2024-09-24T08:31:05.999Z</time>
      </trkpt>
      <trkpt lat="42.28523" lon="3.1274">
        <ele>26.61</ele>
        <time>2024-09-24T08:31:10.999Z</time>
      </trkpt>
      <trkpt lat="42.28529" lon="3.12716">
        <ele>26.58</ele>
        <time>2024-09-24T08:31:15.999Z</time>
      </trkpt>
      <trkpt lat="42.28534" lon="3.1269">
        <ele>26.44</ele>
        <time>2024-09-24T08:31:20.999Z</time>
      </trkpt>
      <trkpt lat="42.28537" lon="3.12658">
        <ele>26.3</ele>
        <time>2024-09-24T08:31:25.999Z</time>
      </trkpt>
      <trkpt lat="42.28538" lon="3.12626">
        <ele>26.21</ele>
        <time>2024-09-24T08:31:30.999Z</time>
      </trkpt>
      <trkpt lat="42.28541" lon="3.12599">
        <ele>26.14</ele>
        <time>2024-09-24T08:31:35.999Z</time>
      </trkpt>
      <trkpt lat="42.28549" lon="3.12577">
        <ele>26.11</ele>
        <time>2024-09-24T08:31:40.999Z</time>
      </trkpt>
      <trkpt lat="42.28562" lon="3.12553">
        <ele>26.09</ele>
        <time>2024-09-24T08:31:45.999Z</time>
      </trkpt>
      <trkpt lat="42.28574" lon="3.12527">
        <ele>26.09</ele>
        <time>2024-09-24T08:31:50.999Z</time>
      </trkpt>
      <trkpt lat="42.28586" lon="3.12502">
        <ele>26.11</ele>
        <time>2024-09-24T08:31:55.999Z</time>
      </trkpt>
      <trkpt lat="42.28597" lon="3.12477">
        <ele>26.14</ele>
        <time>2024-09-24T08:32:00.999Z</time>
      </trkpt>
      <trkpt lat="42.28606" lon="3.12453">
        <ele>26.17</ele>
        <time>2024-09-24T08:32:05.999Z</time>
      </trkpt>
      <trkpt lat="42.28614" lon="3.12431">
        <ele>26.18</ele>
        <time>2024-09-24T08:32:10.999Z</time>
      </trkpt>
      <trkpt lat="42.28624" lon="3.12408">
        <ele>26.21</ele>
        <time>2024-09-24T08:32:15.999Z</time>
      </trkpt>
      <trkpt lat="42.28634" lon="3.12384">
        <ele>26.26</ele>
        <time>2024-09-24T08:32:20.999Z</time>
      </trkpt>
      <trkpt lat="42.28644" lon="3.12364">
        <ele>26.27</ele>
        <time>2024-09-24T08:32:25.999Z</time>
      </trkpt>
      <trkpt lat="42.28656" lon="3.12345">
        <ele>26.28</ele>
        <time>2024-09-24T08:32:30.999Z</time>
      </trkpt>
      <trkpt lat="42.2867" lon="3.12328">
        <ele>26.3</ele>
        <time>2024-09-24T08:32:35.999Z</time>
      </trkpt>
      <trkpt lat="42.28686" lon="3.12314">
        <ele>26.33</ele>
        <time>2024-09-24T08:32:40.999Z</time>
      </trkpt>
      <trkpt lat="42.28703" lon="3.12302">
        <ele>26.34</ele>
        <time>2024-09-24T08:32:45.999Z</time>
      </trkpt>
      <trkpt lat="42.28719" lon="3.12288">
        <ele>26.36</ele>
        <time>2024-09-24T08:32:50.999Z</time>
      </trkpt>
      <trkpt lat="42.28733" lon="3.12273">
        <ele>26.37</ele>
        <time>2024-09-24T08:32:55.999Z</time>
      </trkpt>
      <trkpt lat="42.28748" lon="3.12261">
        <ele>26.37</ele>
        <time>2024-09-24T08:33:00.999Z</time>
      </trkpt>
      <trkpt lat="42.28762" lon="3.12254">
        <ele>26.37</ele>
        <time>2024-09-24T08:33:05.999Z</time>
      </trkpt>
      <trkpt lat="42.28769" lon="3.12245">
        <ele>26.37</ele>
        <time>2024-09-24T08:33:11.999Z</time>
      </trkpt>
      <trkpt lat="42.28764" lon="3.12232">
        <ele>26.37</ele>
        <time>2024-09-24T08:33:23.999Z</time>
      </trkpt>
      <trkpt lat="42.28753" lon="3.12218">
        <ele>26.36</ele>
        <time>2024-09-24T08:33:28.999Z</time>
      </trkpt>
      <trkpt lat="42.2875" lon="3.122">
        <ele>26.36</ele>
        <time>2024-09-24T08:33:33.999Z</time>
      </trkpt>
      <trkpt lat="42.28757" lon="3.12186">
        <ele>26.35</ele>
        <time>2024-09-24T08:33:38.999Z</time>
      </trkpt>
      <trkpt lat="42.28765" lon="3.12174">
        <ele>26.33</ele>
        <time>2024-09-24T08:33:43.999Z</time>
      </trkpt>
      <trkpt lat="42.28771" lon="3.12164">
        <ele>26.27</ele>
        <time>2024-09-24T08:34:20.999Z</time>
      </trkpt>
      <trkpt lat="42.28779" lon="3.12151">
        <ele>26.22</ele>
        <time>2024-09-24T08:34:25.999Z</time>
      </trkpt>
      <trkpt lat="42.2879" lon="3.12132">
        <ele>26.18</ele>
        <time>2024-09-24T08:34:30.999Z</time>
      </trkpt>
      <trkpt lat="42.28803" lon="3.12111">
        <ele>26.15</ele>
        <time>2024-09-24T08:34:35.999Z</time>
      </trkpt>
      <trkpt lat="42.28814" lon="3.12091">
        <ele>26.12</ele>
        <time>2024-09-24T08:34:40.999Z</time>
      </trkpt>
      <trkpt lat="42.28826" lon="3.12069">
        <ele>26.09</ele>
        <time>2024-09-24T08:34:45.999Z</time>
      </trkpt>
      <trkpt lat="42.28822" lon="3.12042">
        <ele>25.98</ele>
        <time>2024-09-24T08:34:50.999Z</time>
      </trkpt>
      <trkpt lat="42.28823" lon="3.12017">
        <ele>25.95</ele>
        <time>2024-09-24T08:34:55.999Z</time>
      </trkpt>
      <trkpt lat="42.28836" lon="3.1199">
        <ele>25.88</ele>
        <time>2024-09-24T08:35:00.999Z</time>
      </trkpt>
      <trkpt lat="42.28849" lon="3.11965">
        <ele>25.83</ele>
        <time>2024-09-24T08:35:05.999Z</time>
      </trkpt>
      <trkpt lat="42.2886" lon="3.11937">
        <ele>25.78</ele>
        <time>2024-09-24T08:35:10.999Z</time>
      </trkpt>
      <trkpt lat="42.28867" lon="3.11908">
        <ele>25.75</ele>
        <time>2024-09-24T08:35:15.999Z</time>
      </trkpt>
      <trkpt lat="42.28874" lon="3.11877">
        <ele>25.7</ele>
        <time>2024-09-24T08:35:20.999Z</time>
      </trkpt>
      <trkpt lat="42.28877" lon="3.11847">
        <ele>25.66</ele>
        <time>2024-09-24T08:35:25.999Z</time>
      </trkpt>
      <trkpt lat="42.28889" lon="3.11823">
        <ele>25.59</ele>
        <time>2024-09-24T08:35:30.999Z</time>
      </trkpt>
      <trkpt lat="42.28898" lon="3.11802">
        <ele>25.53</ele>
        <time>2024-09-24T08:35:35.999Z</time>
      </trkpt>
      <trkpt lat="42.28912" lon="3.11782">
        <ele>25.33</ele>
        <time>2024-09-24T08:35:40.999Z</time>
      </trkpt>
      <trkpt lat="42.28922" lon="3.11753">
        <ele>25.12</ele>
        <time>2024-09-24T08:35:45.999Z</time>
      </trkpt>
      <trkpt lat="42.28935" lon="3.11727">
        <ele>24.88</ele>
        <time>2024-09-24T08:35:50.999Z</time>
      </trkpt>
      <trkpt lat="42.28952" lon="3.11706">
        <ele>24.63</ele>
        <time>2024-09-24T08:35:55.999Z</time>
      </trkpt>
      <trkpt lat="42.28967" lon="3.1168">
        <ele>24.45</ele>
        <time>2024-09-24T08:36:00.999Z</time>
      </trkpt>
      <trkpt lat="42.28981" lon="3.11654">
        <ele>24.3</ele>
        <time>2024-09-24T08:36:05.999Z</time>
      </trkpt>
      <trkpt lat="42.28987" lon="3.11621">
        <ele>24.22</ele>
        <time>2024-09-24T08:36:10.999Z</time>
      </trkpt>
      <trkpt lat="42.28995" lon="3.11592">
        <ele>24.17</ele>
        <time>2024-09-24T08:36:15.999Z</time>
      </trkpt>
      <trkpt lat="42.29012" lon="3.1157">
        <ele>24.13</ele>
        <time>2024-09-24T08:36:20.999Z</time>
      </trkpt>
      <trkpt lat="42.29029" lon="3.11549">
        <ele>24.03</ele>
        <time>2024-09-24T08:36:25.999Z</time>
      </trkpt>
      <trkpt lat="42.29046" lon="3.11528">
        <ele>23.97</ele>
        <time>2024-09-24T08:36:30.999Z</time>
      </trkpt>
      <trkpt lat="42.29063" lon="3.11512">
        <ele>23.95</ele>
        <time>2024-09-24T08:36:35.999Z</time>
      </trkpt>
      <trkpt lat="42.2908" lon="3.11498">
        <ele>23.93</ele>
        <time>2024-09-24T08:36:40.999Z</time>
      </trkpt>
      <trkpt lat="42.291" lon="3.11483">
        <ele>23.92</ele>
        <time>2024-09-24T08:36:45.999Z</time>
      </trkpt>
      <trkpt lat="42.29116" lon="3.11464">
        <ele>23.91</ele>
        <time>2024-09-24T08:36:50.999Z</time>
      </trkpt>
      <trkpt lat="42.29129" lon="3.1145">
        <ele>23.91</ele>
        <time>2024-09-24T08:36:55.999Z</time>
      </trkpt>
      <trkpt lat="42.29146" lon="3.11437">
        <ele>23.91</ele>
        <time>2024-09-24T08:37:00.999Z</time>
      </trkpt>
      <trkpt lat="42.29163" lon="3.11422">
        <ele>23.91</ele>
        <time>2024-09-24T08:37:05.999Z</time>
      </trkpt>
      <trkpt lat="42.29181" lon="3.11407">
        <ele>23.95</ele>
        <time>2024-09-24T08:37:10.999Z</time>
      </trkpt>
      <trkpt lat="42.29199" lon="3.11393">
        <ele>23.98</ele>
        <time>2024-09-24T08:37:15.999Z</time>
      </trkpt>
      <trkpt lat="42.29215" lon="3.1138">
        <ele>24.02</ele>
        <time>2024-09-24T08:37:20.999Z</time>
      </trkpt>
      <trkpt lat="42.29232" lon="3.11375">
        <ele>24.03</ele>
        <time>2024-09-24T08:37:25.999Z</time>
      </trkpt>
      <trkpt lat="42.29252" lon="3.11368">
        <ele>24</ele>
        <time>2024-09-24T08:37:30.999Z</time>
      </trkpt>
      <trkpt lat="42.29273" lon="3.11361">
        <ele>23.93</ele>
        <time>2024-09-24T08:37:35.999Z</time>
      </trkpt>
      <trkpt lat="42.29296" lon="3.1135">
        <ele>23.77</ele>
        <time>2024-09-24T08:37:40.999Z</time>
      </trkpt>
      <trkpt lat="42.29319" lon="3.1133">
        <ele>23.74</ele>
        <time>2024-09-24T08:37:45.999Z</time>
      </trkpt>
      <trkpt lat="42.29342" lon="3.11313">
        <ele>23.78</ele>
        <time>2024-09-24T08:37:50.999Z</time>
      </trkpt>
      <trkpt lat="42.29362" lon="3.11297">
        <ele>23.84</ele>
        <time>2024-09-24T08:37:55.999Z</time>
      </trkpt>
      <trkpt lat="42.29381" lon="3.11283">
        <ele>23.89</ele>
        <time>2024-09-24T08:38:00.999Z</time>
      </trkpt>
      <trkpt lat="42.294" lon="3.11271">
        <ele>23.93</ele>
        <time>2024-09-24T08:38:05.999Z</time>
      </trkpt>
      <trkpt lat="42.2942" lon="3.11258">
        <ele>23.97</ele>
        <time>2024-09-24T08:38:10.999Z</time>
      </trkpt>
      <trkpt lat="42.29441" lon="3.11245">
        <ele>23.99</ele>
        <time>2024-09-24T08:38:15.999Z</time>
      </trkpt>
      <trkpt lat="42.29461" lon="3.11234">
        <ele>24.01</ele>
        <time>2024-09-24T08:38:20.999Z</time>
      </trkpt>
      <trkpt lat="42.2948" lon="3.11221">
        <ele>24.07</ele>
        <time>2024-09-24T08:38:25.999Z</time>
      </trkpt>
      <trkpt lat="42.295" lon="3.11207">
        <ele>24.13</ele>
        <time>2024-09-24T08:38:30.999Z</time>
      </trkpt>
      <trkpt lat="42.29518" lon="3.11198">
        <ele>24.14</ele>
        <time>2024-09-24T08:38:35.999Z</time>
      </trkpt>
      <trkpt lat="42.29535" lon="3.11183">
        <ele>24.16</ele>
        <time>2024-09-24T08:38:40.999Z</time>
      </trkpt>
      <trkpt lat="42.29555" lon="3.11173">
        <ele>24.09</ele>
        <time>2024-09-24T08:38:45.999Z</time>
      </trkpt>
      <trkpt lat="42.29575" lon="3.11159">
        <ele>23.98</ele>
        <time>2024-09-24T08:38:50.999Z</time>
      </trkpt>
      <trkpt lat="42.29591" lon="3.11144">
        <ele>23.96</ele>
        <time>2024-09-24T08:38:55.999Z</time>
      </trkpt>
      <trkpt lat="42.29605" lon="3.11134">
        <ele>23.96</ele>
        <time>2024-09-24T08:39:00.999Z</time>
      </trkpt>
      <trkpt lat="42.29619" lon="3.11131">
        <ele>23.97</ele>
        <time>2024-09-24T08:39:05.999Z</time>
      </trkpt>
      <trkpt lat="42.29632" lon="3.11126">
        <ele>23.97</ele>
        <time>2024-09-24T08:39:10.999Z</time>
      </trkpt>
      <trkpt lat="42.29644" lon="3.11117">
        <ele>23.97</ele>
        <time>2024-09-24T08:39:15.999Z</time>
      </trkpt>
      <trkpt lat="42.29653" lon="3.11109">
        <ele>24.24</ele>
        <time>2024-09-24T08:42:56.000Z</time>
      </trkpt>
      <trkpt lat="42.29664" lon="3.11084">
        <ele>24.77</ele>
        <time>2024-09-24T08:43:01.000Z</time>
      </trkpt>
      <trkpt lat="42.29673" lon="3.11053">
        <ele>25.11</ele>
        <time>2024-09-24T08:43:06.000Z</time>
      </trkpt>
      <trkpt lat="42.29682" lon="3.11019">
        <ele>25.26</ele>
        <time>2024-09-24T08:43:11.000Z</time>
      </trkpt>
      <trkpt lat="42.29692" lon="3.10984">
        <ele>25.32</ele>
        <time>2024-09-24T08:43:16.000Z</time>
      </trkpt>
      <trkpt lat="42.29701" lon="3.10951">
        <ele>25.35</ele>
        <time>2024-09-24T08:43:21.000Z</time>
      </trkpt>
      <trkpt lat="42.29711" lon="3.10919">
        <ele>25.39</ele>
        <time>2024-09-24T08:43:26.000Z</time>
      </trkpt>
      <trkpt lat="42.2972" lon="3.10887">
        <ele>25.41</ele>
        <time>2024-09-24T08:43:31.000Z</time>
      </trkpt>
      <trkpt lat="42.29729" lon="3.10854">
        <ele>25.43</ele>
        <time>2024-09-24T08:43:36.000Z</time>
      </trkpt>
      <trkpt lat="42.2974" lon="3.10823">
        <ele>25.45</ele>
        <time>2024-09-24T08:43:41.000Z</time>
      </trkpt>
      <trkpt lat="42.29748" lon="3.10792">
        <ele>25.46</ele>
        <time>2024-09-24T08:43:46.000Z</time>
      </trkpt>
      <trkpt lat="42.29758" lon="3.10762">
        <ele>25.45</ele>
        <time>2024-09-24T08:43:51.000Z</time>
      </trkpt>
      <trkpt lat="42.29765" lon="3.10735">
        <ele>25.42</ele>
        <time>2024-09-24T08:43:56.000Z</time>
      </trkpt>
      <trkpt lat="42.29768" lon="3.10706">
        <ele>25.38</ele>
        <time>2024-09-24T08:44:01.000Z</time>
      </trkpt>
      <trkpt lat="42.29773" lon="3.10678">
        <ele>25.34</ele>
        <time>2024-09-24T08:44:06.000Z</time>
      </trkpt>
      <trkpt lat="42.29776" lon="3.1065">
        <ele>25.29</ele>
        <time>2024-09-24T08:44:11.000Z</time>
      </trkpt>
      <trkpt lat="42.29781" lon="3.10622">
        <ele>25.23</ele>
        <time>2024-09-24T08:44:16.000Z</time>
      </trkpt>
      <trkpt lat="42.29786" lon="3.10594">
        <ele>25.18</ele>
        <time>2024-09-24T08:44:21.000Z</time>
      </trkpt>
      <trkpt lat="42.2979" lon="3.10565">
        <ele>25.12</ele>
        <time>2024-09-24T08:44:26.000Z</time>
      </trkpt>
      <trkpt lat="42.29794" lon="3.10536">
        <ele>25.06</ele>
        <time>2024-09-24T08:44:31.000Z</time>
      </trkpt>
      <trkpt lat="42.29798" lon="3.10507">
        <ele>25</ele>
        <time>2024-09-24T08:44:36.000Z</time>
      </trkpt>
      <trkpt lat="42.29802" lon="3.10477">
        <ele>24.93</ele>
        <time>2024-09-24T08:44:41.000Z</time>
      </trkpt>
      <trkpt lat="42.29805" lon="3.10448">
        <ele>24.85</ele>
        <time>2024-09-24T08:44:46.000Z</time>
      </trkpt>
      <trkpt lat="42.29806" lon="3.10418">
        <ele>24.78</ele>
        <time>2024-09-24T08:44:51.000Z</time>
      </trkpt>
      <trkpt lat="42.29808" lon="3.1039">
        <ele>24.72</ele>
        <time>2024-09-24T08:44:56.000Z</time>
      </trkpt>
      <trkpt lat="42.2981" lon="3.10361">
        <ele>24.66</ele>
        <time>2024-09-24T08:45:01.000Z</time>
      </trkpt>
      <trkpt lat="42.29811" lon="3.10332">
        <ele>24.61</ele>
        <time>2024-09-24T08:45:06.000Z</time>
      </trkpt>
      <trkpt lat="42.29812" lon="3.10303">
        <ele>24.59</ele>
        <time>2024-09-24T08:45:11.000Z</time>
      </trkpt>
      <trkpt lat="42.29816" lon="3.1028">
        <ele>24.58</ele>
        <time>2024-09-24T08:45:16.000Z</time>
      </trkpt>
      <trkpt lat="42.29812" lon="3.10264">
        <ele>24.57</ele>
        <time>2024-09-24T08:45:21.000Z</time>
      </trkpt>
      <trkpt lat="42.29806" lon="3.10244">
        <ele>24.56</ele>
        <time>2024-09-24T08:45:26.000Z</time>
      </trkpt>
      <trkpt lat="42.29797" lon="3.10221">
        <ele>24.52</ele>
        <time>2024-09-24T08:45:31.000Z</time>
      </trkpt>
      <trkpt lat="42.29789" lon="3.10197">
        <ele>24.42</ele>
        <time>2024-09-24T08:45:36.000Z</time>
      </trkpt>
      <trkpt lat="42.29778" lon="3.10168">
        <ele>24.4</ele>
        <time>2024-09-24T08:45:41.000Z</time>
      </trkpt>
      <trkpt lat="42.29768" lon="3.1014">
        <ele>24.38</ele>
        <time>2024-09-24T08:45:46.000Z</time>
      </trkpt>
      <trkpt lat="42.29758" lon="3.10111">
        <ele>24.38</ele>
        <time>2024-09-24T08:45:51.000Z</time>
      </trkpt>
      <trkpt lat="42.29751" lon="3.10083">
        <ele>24.38</ele>
        <time>2024-09-24T08:45:56.000Z</time>
      </trkpt>
      <trkpt lat="42.29752" lon="3.10052">
        <ele>24.38</ele>
        <time>2024-09-24T08:46:01.000Z</time>
      </trkpt>
      <trkpt lat="42.29756" lon="3.1002">
        <ele>24.37</ele>
        <time>2024-09-24T08:46:06.000Z</time>
      </trkpt>
      <trkpt lat="42.29763" lon="3.09989">
        <ele>24.36</ele>
        <time>2024-09-24T08:46:11.000Z</time>
      </trkpt>
      <trkpt lat="42.29771" lon="3.09956">
        <ele>24.34</ele>
        <time>2024-09-24T08:46:16.000Z</time>
      </trkpt>
      <trkpt lat="42.29781" lon="3.09924">
        <ele>24.32</ele>
        <time>2024-09-24T08:46:21.000Z</time>
      </trkpt>
      <trkpt lat="42.2979" lon="3.09889">
        <ele>24.29</ele>
        <time>2024-09-24T08:46:26.000Z</time>
      </trkpt>
      <trkpt lat="42.29798" lon="3.09853">
        <ele>24.27</ele>
        <time>2024-09-24T08:46:31.000Z</time>
      </trkpt>
      <trkpt lat="42.29802" lon="3.09816">
        <ele>24.27</ele>
        <time>2024-09-24T08:46:36.000Z</time>
      </trkpt>
      <trkpt lat="42.29803" lon="3.0978">
        <ele>24.22</ele>
        <time>2024-09-24T08:46:41.000Z</time>
      </trkpt>
      <trkpt lat="42.29796" lon="3.09744">
        <ele>24.15</ele>
        <time>2024-09-24T08:46:46.000Z</time>
      </trkpt>
      <trkpt lat="42.29782" lon="3.09711">
        <ele>24.08</ele>
        <time>2024-09-24T08:46:51.000Z</time>
      </trkpt>
      <trkpt lat="42.29767" lon="3.09679">
        <ele>24.04</ele>
        <time>2024-09-24T08:46:56.000Z</time>
      </trkpt>
      <trkpt lat="42.29751" lon="3.09648">
        <ele>24.02</ele>
        <time>2024-09-24T08:47:01.000Z</time>
      </trkpt>
      <trkpt lat="42.29735" lon="3.09618">
        <ele>24.01</ele>
        <time>2024-09-24T08:47:06.000Z</time>
      </trkpt>
      <trkpt lat="42.2972" lon="3.0959">
        <ele>23.99</ele>
        <time>2024-09-24T08:47:11.000Z</time>
      </trkpt>
      <trkpt lat="42.29706" lon="3.09561">
        <ele>23.91</ele>
        <time>2024-09-24T08:47:16.000Z</time>
      </trkpt>
      <trkpt lat="42.2969" lon="3.09535">
        <ele>23.86</ele>
        <time>2024-09-24T08:47:21.000Z</time>
      </trkpt>
      <trkpt lat="42.29674" lon="3.09508">
        <ele>23.81</ele>
        <time>2024-09-24T08:47:26.000Z</time>
      </trkpt>
      <trkpt lat="42.29658" lon="3.09486">
        <ele>23.75</ele>
        <time>2024-09-24T08:47:31.000Z</time>
      </trkpt>
      <trkpt lat="42.29641" lon="3.09461">
        <ele>23.74</ele>
        <time>2024-09-24T08:47:36.000Z</time>
      </trkpt>
      <trkpt lat="42.29623" lon="3.09439">
        <ele>23.74</ele>
        <time>2024-09-24T08:47:41.000Z</time>
      </trkpt>
      <trkpt lat="42.29606" lon="3.09416">
        <ele>23.72</ele>
        <time>2024-09-24T08:47:46.000Z</time>
      </trkpt>
      <trkpt lat="42.29591" lon="3.09391">
        <ele>23.71</ele>
        <time>2024-09-24T08:47:51.000Z</time>
      </trkpt>
      <trkpt lat="42.29578" lon="3.09364">
        <ele>23.71</ele>
        <time>2024-09-24T08:47:56.000Z</time>
      </trkpt>
      <trkpt lat="42.29568" lon="3.09336">
        <ele>23.69</ele>
        <time>2024-09-24T08:48:01.000Z</time>
      </trkpt>
      <trkpt lat="42.29556" lon="3.09307">
        <ele>23.68</ele>
        <time>2024-09-24T08:48:06.000Z</time>
      </trkpt>
      <trkpt lat="42.29546" lon="3.09285">
        <ele>23.68</ele>
        <time>2024-09-24T08:48:11.000Z</time>
      </trkpt>
      <trkpt lat="42.29539" lon="3.09265">
        <ele>23.68</ele>
        <time>2024-09-24T08:48:16.000Z</time>
      </trkpt>
      <trkpt lat="42.2953" lon="3.09242">
        <ele>23.68</ele>
        <time>2024-09-24T08:48:21.000Z</time>
      </trkpt>
      <trkpt lat="42.29521" lon="3.09218">
        <ele>23.67</ele>
        <time>2024-09-24T08:48:26.000Z</time>
      </trkpt>
      <trkpt lat="42.29513" lon="3.09193">
        <ele>23.63</ele>
        <time>2024-09-24T08:48:31.000Z</time>
      </trkpt>
      <trkpt lat="42.29507" lon="3.09173">
        <ele>23.62</ele>
        <time>2024-09-24T08:48:36.000Z</time>
      </trkpt>
      <trkpt lat="42.29499" lon="3.09148">
        <ele>23.55</ele>
        <time>2024-09-24T08:48:41.000Z</time>
      </trkpt>
      <trkpt lat="42.29492" lon="3.0912">
        <ele>23.5</ele>
        <time>2024-09-24T08:48:46.000Z</time>
      </trkpt>
      <trkpt lat="42.29484" lon="3.0909">
        <ele>23.47</ele>
        <time>2024-09-24T08:48:51.000Z</time>
      </trkpt>
      <trkpt lat="42.29476" lon="3.09061">
        <ele>23.46</ele>
        <time>2024-09-24T08:48:56.000Z</time>
      </trkpt>
      <trkpt lat="42.29466" lon="3.09033">
        <ele>23.48</ele>
        <time>2024-09-24T08:49:01.000Z</time>
      </trkpt>
      <trkpt lat="42.29458" lon="3.09007">
        <ele>23.51</ele>
        <time>2024-09-24T08:49:06.000Z</time>
      </trkpt>
      <trkpt lat="42.2945" lon="3.08979">
        <ele>23.53</ele>
        <time>2024-09-24T08:49:11.000Z</time>
      </trkpt>
      <trkpt lat="42.29441" lon="3.08952">
        <ele>23.54</ele>
        <time>2024-09-24T08:49:16.000Z</time>
      </trkpt>
      <trkpt lat="42.29434" lon="3.0893">
        <ele>23.54</ele>
        <time>2024-09-24T08:49:21.000Z</time>
      </trkpt>
      <trkpt lat="42.29428" lon="3.08908">
        <ele>23.52</ele>
        <time>2024-09-24T08:49:26.000Z</time>
      </trkpt>
      <trkpt lat="42.29422" lon="3.08883">
        <ele>23.51</ele>
        <time>2024-09-24T08:49:31.000Z</time>
      </trkpt>
      <trkpt lat="42.29415" lon="3.08873">
        <ele>23.5</ele>
        <time>2024-09-24T08:49:36.000Z</time>
      </trkpt>
      <trkpt lat="42.29406" lon="3.08867">
        <ele>23.5</ele>
        <time>2024-09-24T08:49:41.000Z</time>
      </trkpt>
      <trkpt lat="42.29395" lon="3.08866">
        <ele>23.5</ele>
        <time>2024-09-24T08:49:46.000Z</time>
      </trkpt>
      <trkpt lat="42.2938" lon="3.0886">
        <ele>23.49</ele>
        <time>2024-09-24T08:49:51.000Z</time>
      </trkpt>
      <trkpt lat="42.29362" lon="3.08855">
        <ele>23.44</ele>
        <time>2024-09-24T08:49:56.000Z</time>
      </trkpt>
      <trkpt lat="42.29345" lon="3.08848">
        <ele>23.41</ele>
        <time>2024-09-24T08:50:01.000Z</time>
      </trkpt>
      <trkpt lat="42.29323" lon="3.08841">
        <ele>23.36</ele>
        <time>2024-09-24T08:50:06.000Z</time>
      </trkpt>
      <trkpt lat="42.29299" lon="3.08831">
        <ele>23.34</ele>
        <time>2024-09-24T08:50:11.000Z</time>
      </trkpt>
      <trkpt lat="42.29279" lon="3.08822">
        <ele>23.33</ele>
        <time>2024-09-24T08:50:16.000Z</time>
      </trkpt>
      <trkpt lat="42.29259" lon="3.08811">
        <ele>23.32</ele>
        <time>2024-09-24T08:50:21.000Z</time>
      </trkpt>
      <trkpt lat="42.29237" lon="3.08798">
        <ele>23.38</ele>
        <time>2024-09-24T08:50:26.000Z</time>
      </trkpt>
      <trkpt lat="42.29215" lon="3.08784">
        <ele>23.51</ele>
        <time>2024-09-24T08:50:31.000Z</time>
      </trkpt>
      <trkpt lat="42.29195" lon="3.08766">
        <ele>23.65</ele>
        <time>2024-09-24T08:50:36.000Z</time>
      </trkpt>
      <trkpt lat="42.29179" lon="3.08741">
        <ele>23.76</ele>
        <time>2024-09-24T08:50:41.000Z</time>
      </trkpt>
      <trkpt lat="42.29164" lon="3.08713">
        <ele>23.83</ele>
        <time>2024-09-24T08:50:46.000Z</time>
      </trkpt>
      <trkpt lat="42.2915" lon="3.08687">
        <ele>23.89</ele>
        <time>2024-09-24T08:50:51.000Z</time>
      </trkpt>
      <trkpt lat="42.29137" lon="3.08659">
        <ele>23.97</ele>
        <time>2024-09-24T08:50:56.000Z</time>
      </trkpt>
      <trkpt lat="42.29123" lon="3.0863">
        <ele>24</ele>
        <time>2024-09-24T08:51:01.000Z</time>
      </trkpt>
      <trkpt lat="42.29108" lon="3.08602">
        <ele>24.01</ele>
        <time>2024-09-24T08:51:06.000Z</time>
      </trkpt>
      <trkpt lat="42.29094" lon="3.08572">
        <ele>24.04</ele>
        <time>2024-09-24T08:51:11.000Z</time>
      </trkpt>
      <trkpt lat="42.29078" lon="3.08548">
        <ele>24.05</ele>
        <time>2024-09-24T08:51:16.000Z</time>
      </trkpt>
      <trkpt lat="42.29063" lon="3.08525">
        <ele>24.03</ele>
        <time>2024-09-24T08:51:21.000Z</time>
      </trkpt>
      <trkpt lat="42.29049" lon="3.08502">
        <ele>23.99</ele>
        <time>2024-09-24T08:51:26.000Z</time>
      </trkpt>
      <trkpt lat="42.29034" lon="3.08479">
        <ele>23.93</ele>
        <time>2024-09-24T08:51:31.000Z</time>
      </trkpt>
      <trkpt lat="42.2902" lon="3.08455">
        <ele>23.9</ele>
        <time>2024-09-24T08:51:36.000Z</time>
      </trkpt>
      <trkpt lat="42.29009" lon="3.08423">
        <ele>23.83</ele>
        <time>2024-09-24T08:51:41.000Z</time>
      </trkpt>
      <trkpt lat="42.28997" lon="3.0839">
        <ele>23.78</ele>
        <time>2024-09-24T08:51:46.000Z</time>
      </trkpt>
      <trkpt lat="42.28986" lon="3.08358">
        <ele>23.73</ele>
        <time>2024-09-24T08:51:51.000Z</time>
      </trkpt>
      <trkpt lat="42.28976" lon="3.08328">
        <ele>23.69</ele>
        <time>2024-09-24T08:51:56.000Z</time>
      </trkpt>
      <trkpt lat="42.28968" lon="3.08299">
        <ele>23.61</ele>
        <time>2024-09-24T08:52:01.000Z</time>
      </trkpt>
      <trkpt lat="42.28961" lon="3.08269">
        <ele>23.52</ele>
        <time>2024-09-24T08:52:06.000Z</time>
      </trkpt>
      <trkpt lat="42.28954" lon="3.0824">
        <ele>23.44</ele>
        <time>2024-09-24T08:52:11.000Z</time>
      </trkpt>
      <trkpt lat="42.28949" lon="3.08211">
        <ele>23.4</ele>
        <time>2024-09-24T08:52:16.000Z</time>
      </trkpt>
      <trkpt lat="42.28944" lon="3.08183">
        <ele>23.4</ele>
        <time>2024-09-24T08:52:21.000Z</time>
      </trkpt>
      <trkpt lat="42.28939" lon="3.08154">
        <ele>23.4</ele>
        <time>2024-09-24T08:52:26.000Z</time>
      </trkpt>
      <trkpt lat="42.28935" lon="3.08126">
        <ele>23.39</ele>
        <time>2024-09-24T08:52:31.000Z</time>
      </trkpt>
      <trkpt lat="42.28931" lon="3.08098">
        <ele>23.37</ele>
        <time>2024-09-24T08:52:36.000Z</time>
      </trkpt>
      <trkpt lat="42.28929" lon="3.08069">
        <ele>23.36</ele>
        <time>2024-09-24T08:52:41.000Z</time>
      </trkpt>
      <trkpt lat="42.28928" lon="3.0804">
        <ele>23.36</ele>
        <time>2024-09-24T08:52:46.000Z</time>
      </trkpt>
      <trkpt lat="42.28929" lon="3.08011">
        <ele>23.34</ele>
        <time>2024-09-24T08:52:51.000Z</time>
      </trkpt>
      <trkpt lat="42.28932" lon="3.07982">
        <ele>23.31</ele>
        <time>2024-09-24T08:52:56.000Z</time>
      </trkpt>
      <trkpt lat="42.28934" lon="3.07956">
        <ele>23.25</ele>
        <time>2024-09-24T08:53:01.000Z</time>
      </trkpt>
      <trkpt lat="42.28934" lon="3.07929">
        <ele>23.2</ele>
        <time>2024-09-24T08:53:06.000Z</time>
      </trkpt>
      <trkpt lat="42.28931" lon="3.07903">
        <ele>23.18</ele>
        <time>2024-09-24T08:53:11.000Z</time>
      </trkpt>
      <trkpt lat="42.28924" lon="3.07877">
        <ele>23.19</ele>
        <time>2024-09-24T08:53:16.000Z</time>
      </trkpt>
      <trkpt lat="42.28917" lon="3.07853">
        <ele>23.19</ele>
        <time>2024-09-24T08:53:21.000Z</time>
      </trkpt>
      <trkpt lat="42.2891" lon="3.07832">
        <ele>23.2</ele>
        <time>2024-09-24T08:53:26.000Z</time>
      </trkpt>
      <trkpt lat="42.28903" lon="3.0781">
        <ele>23.2</ele>
        <time>2024-09-24T08:53:31.000Z</time>
      </trkpt>
      <trkpt lat="42.28897" lon="3.07789">
        <ele>23.21</ele>
        <time>2024-09-24T08:53:36.000Z</time>
      </trkpt>
      <trkpt lat="42.28889" lon="3.07768">
        <ele>23.23</ele>
        <time>2024-09-24T08:53:41.000Z</time>
      </trkpt>
      <trkpt lat="42.28884" lon="3.07749">
        <ele>23.25</ele>
        <time>2024-09-24T08:53:46.000Z</time>
      </trkpt>
      <trkpt lat="42.28879" lon="3.0773">
        <ele>23.27</ele>
        <time>2024-09-24T08:53:51.000Z</time>
      </trkpt>
      <trkpt lat="42.28874" lon="3.07713">
        <ele>23.3</ele>
        <time>2024-09-24T08:53:56.000Z</time>
      </trkpt>
      <trkpt lat="42.28868" lon="3.07695">
        <ele>23.33</ele>
        <time>2024-09-24T08:54:01.000Z</time>
      </trkpt>
      <trkpt lat="42.28863" lon="3.07677">
        <ele>23.36</ele>
        <time>2024-09-24T08:54:06.000Z</time>
      </trkpt>
      <trkpt lat="42.28855" lon="3.07655">
        <ele>23.4</ele>
        <time>2024-09-24T08:54:11.000Z</time>
      </trkpt>
      <trkpt lat="42.28846" lon="3.07634">
        <ele>23.53</ele>
        <time>2024-09-24T08:54:16.000Z</time>
      </trkpt>
      <trkpt lat="42.28832" lon="3.07612">
        <ele>23.72</ele>
        <time>2024-09-24T08:54:21.000Z</time>
      </trkpt>
      <trkpt lat="42.28812" lon="3.07596">
        <ele>23.8</ele>
        <time>2024-09-24T08:54:26.000Z</time>
      </trkpt>
      <trkpt lat="42.28786" lon="3.07575">
        <ele>23.88</ele>
        <time>2024-09-24T08:54:31.999Z</time>
      </trkpt>
      <trkpt lat="42.28764" lon="3.07558">
        <ele>23.94</ele>
        <time>2024-09-24T08:54:36.999Z</time>
      </trkpt>
      <trkpt lat="42.28743" lon="3.07538">
        <ele>23.99</ele>
        <time>2024-09-24T08:54:41.999Z</time>
      </trkpt>
      <trkpt lat="42.28722" lon="3.0752">
        <ele>24.07</ele>
        <time>2024-09-24T08:54:46.999Z</time>
      </trkpt>
      <trkpt lat="42.28702" lon="3.07503">
        <ele>24.14</ele>
        <time>2024-09-24T08:54:51.999Z</time>
      </trkpt>
      <trkpt lat="42.28682" lon="3.07486">
        <ele>24.17</ele>
        <time>2024-09-24T08:54:56.999Z</time>
      </trkpt>
      <trkpt lat="42.28662" lon="3.0747">
        <ele>24.21</ele>
        <time>2024-09-24T08:55:01.999Z</time>
      </trkpt>
      <trkpt lat="42.28648" lon="3.07454">
        <ele>24.23</ele>
        <time>2024-09-24T08:55:06.999Z</time>
      </trkpt>
      <trkpt lat="42.28637" lon="3.0744">
        <ele>24.24</ele>
        <time>2024-09-24T08:55:11.999Z</time>
      </trkpt>
      <trkpt lat="42.28627" lon="3.07429">
        <ele>24.25</ele>
        <time>2024-09-24T08:55:16.999Z</time>
      </trkpt>
      <trkpt lat="42.28623" lon="3.07417">
        <ele>25.23</ele>
        <time>2024-09-24T09:00:33.999Z</time>
      </trkpt>
      <trkpt lat="42.28634" lon="3.07416">
        <ele>25.42</ele>
        <time>2024-09-24T09:00:47.999Z</time>
      </trkpt>
      <trkpt lat="42.28648" lon="3.07418">
        <ele>25.49</ele>
        <time>2024-09-24T09:00:52.999Z</time>
      </trkpt>
      <trkpt lat="42.28667" lon="3.07421">
        <ele>25.77</ele>
        <time>2024-09-24T09:00:57.999Z</time>
      </trkpt>
      <trkpt lat="42.28687" lon="3.07426">
        <ele>26</ele>
        <time>2024-09-24T09:01:02.999Z</time>
      </trkpt>
      <trkpt lat="42.28708" lon="3.0743">
        <ele>26.08</ele>
        <time>2024-09-24T09:01:07.999Z</time>
      </trkpt>
      <trkpt lat="42.2873" lon="3.07435">
        <ele>26.11</ele>
        <time>2024-09-24T09:01:12.999Z</time>
      </trkpt>
      <trkpt lat="42.28752" lon="3.07439">
        <ele>26.14</ele>
        <time>2024-09-24T09:01:17.999Z</time>
      </trkpt>
      <trkpt lat="42.28773" lon="3.07444">
        <ele>26.16</ele>
        <time>2024-09-24T09:01:22.999Z</time>
      </trkpt>
      <trkpt lat="42.28794" lon="3.07449">
        <ele>26.18</ele>
        <time>2024-09-24T09:01:27.999Z</time>
      </trkpt>
      <trkpt lat="42.28813" lon="3.07456">
        <ele>26.2</ele>
        <time>2024-09-24T09:01:32.999Z</time>
      </trkpt>
      <trkpt lat="42.28833" lon="3.07464">
        <ele>26.22</ele>
        <time>2024-09-24T09:01:37.999Z</time>
      </trkpt>
      <trkpt lat="42.28852" lon="3.07471">
        <ele>26.24</ele>
        <time>2024-09-24T09:01:42.999Z</time>
      </trkpt>
      <trkpt lat="42.28872" lon="3.07479">
        <ele>26.26</ele>
        <time>2024-09-24T09:01:47.999Z</time>
      </trkpt>
      <trkpt lat="42.28892" lon="3.07487">
        <ele>26.28</ele>
        <time>2024-09-24T09:01:52.999Z</time>
      </trkpt>
      <trkpt lat="42.28911" lon="3.07494">
        <ele>26.3</ele>
        <time>2024-09-24T09:01:57.999Z</time>
      </trkpt>
      <trkpt lat="42.2893" lon="3.07503">
        <ele>26.32</ele>
        <time>2024-09-24T09:02:02.999Z</time>
      </trkpt>
      <trkpt lat="42.28949" lon="3.07513">
        <ele>26.34</ele>
        <time>2024-09-24T09:02:07.999Z</time>
      </trkpt>
      <trkpt lat="42.28966" lon="3.07522">
        <ele>26.34</ele>
        <time>2024-09-24T09:02:12.999Z</time>
      </trkpt>
      <trkpt lat="42.2898" lon="3.07531">
        <ele>26.34</ele>
        <time>2024-09-24T09:02:17.999Z</time>
      </trkpt>
      <trkpt lat="42.28998" lon="3.07542">
        <ele>26.34</ele>
        <time>2024-09-24T09:02:22.999Z</time>
      </trkpt>
      <trkpt lat="42.29017" lon="3.07554">
        <ele>26.34</ele>
        <time>2024-09-24T09:02:27.999Z</time>
      </trkpt>
      <trkpt lat="42.29036" lon="3.07565">
        <ele>26.36</ele>
        <time>2024-09-24T09:02:32.999Z</time>
      </trkpt>
      <trkpt lat="42.29056" lon="3.07577">
        <ele>26.35</ele>
        <time>2024-09-24T09:02:37.999Z</time>
      </trkpt>
      <trkpt lat="42.29078" lon="3.07592">
        <ele>26.36</ele>
        <time>2024-09-24T09:02:42.999Z</time>
      </trkpt>
      <trkpt lat="42.29099" lon="3.07614">
        <ele>26.35</ele>
        <time>2024-09-24T09:02:47.999Z</time>
      </trkpt>
      <trkpt lat="42.29117" lon="3.0764">
        <ele>26.34</ele>
        <time>2024-09-24T09:02:52.999Z</time>
      </trkpt>
      <trkpt lat="42.29133" lon="3.07665">
        <ele>26.34</ele>
        <time>2024-09-24T09:02:57.999Z</time>
      </trkpt>
      <trkpt lat="42.29149" lon="3.07689">
        <ele>26.37</ele>
        <time>2024-09-24T09:03:02.999Z</time>
      </trkpt>
      <trkpt lat="42.29165" lon="3.07715">
        <ele>26.39</ele>
        <time>2024-09-24T09:03:07.999Z</time>
      </trkpt>
      <trkpt lat="42.29183" lon="3.07744">
        <ele>26.39</ele>
        <time>2024-09-24T09:03:12.999Z</time>
      </trkpt>
      <trkpt lat="42.29203" lon="3.07777">
        <ele>26.4</ele>
        <time>2024-09-24T09:03:17.999Z</time>
      </trkpt>
      <trkpt lat="42.29223" lon="3.07809">
        <ele>26.37</ele>
        <time>2024-09-24T09:03:22.999Z</time>
      </trkpt>
      <trkpt lat="42.29247" lon="3.07836">
        <ele>26.37</ele>
        <time>2024-09-24T09:03:27.999Z</time>
      </trkpt>
      <trkpt lat="42.29274" lon="3.07846">
        <ele>26.35</ele>
        <time>2024-09-24T09:03:32.999Z</time>
      </trkpt>
      <trkpt lat="42.29297" lon="3.0785">
        <ele>26.42</ele>
        <time>2024-09-24T09:03:37.999Z</time>
      </trkpt>
      <trkpt lat="42.29315" lon="3.0785">
        <ele>26.36</ele>
        <time>2024-09-24T09:03:42.999Z</time>
      </trkpt>
      <trkpt lat="42.29322" lon="3.07838">
        <ele>26.33</ele>
        <time>2024-09-24T09:03:47.999Z</time>
      </trkpt>
      <trkpt lat="42.29325" lon="3.07826">
        <ele>26.43</ele>
        <time>2024-09-24T09:04:12.999Z</time>
      </trkpt>
      <trkpt lat="42.29329" lon="3.07809">
        <ele>26.48</ele>
        <time>2024-09-24T09:04:17.999Z</time>
      </trkpt>
      <trkpt lat="42.29334" lon="3.07787">
        <ele>26.52</ele>
        <time>2024-09-24T09:04:22.999Z</time>
      </trkpt>
      <trkpt lat="42.2934" lon="3.07765">
        <ele>26.55</ele>
        <time>2024-09-24T09:04:27.999Z</time>
      </trkpt>
      <trkpt lat="42.29347" lon="3.07744">
        <ele>26.57</ele>
        <time>2024-09-24T09:04:32.999Z</time>
      </trkpt>
      <trkpt lat="42.29353" lon="3.07724">
        <ele>26.58</ele>
        <time>2024-09-24T09:04:37.999Z</time>
      </trkpt>
      <trkpt lat="42.29359" lon="3.07704">
        <ele>26.57</ele>
        <time>2024-09-24T09:04:42.999Z</time>
      </trkpt>
      <trkpt lat="42.29362" lon="3.07685">
        <ele>26.56</ele>
        <time>2024-09-24T09:04:47.999Z</time>
      </trkpt>
      <trkpt lat="42.29361" lon="3.07665">
        <ele>26.55</ele>
        <time>2024-09-24T09:04:52.999Z</time>
      </trkpt>
      <trkpt lat="42.29357" lon="3.07643">
        <ele>26.54</ele>
        <time>2024-09-24T09:04:57.999Z</time>
      </trkpt>
      <trkpt lat="42.29353" lon="3.07624">
        <ele>26.55</ele>
        <time>2024-09-24T09:05:02.999Z</time>
      </trkpt>
      <trkpt lat="42.29348" lon="3.0761">
        <ele>26.56</ele>
        <time>2024-09-24T09:05:07.999Z</time>
      </trkpt>
      <trkpt lat="42.29344" lon="3.07595">
        <ele>26.59</ele>
        <time>2024-09-24T09:05:12.999Z</time>
      </trkpt>
      <trkpt lat="42.29338" lon="3.07581">
        <ele>26.61</ele>
        <time>2024-09-24T09:05:17.999Z</time>
      </trkpt>
      <trkpt lat="42.29332" lon="3.07567">
        <ele>26.62</ele>
        <time>2024-09-24T09:05:22.999Z</time>
      </trkpt>
      <trkpt lat="42.29326" lon="3.07553">
        <ele>26.65</ele>
        <time>2024-09-24T09:05:27.999Z</time>
      </trkpt>
      <trkpt lat="42.2932" lon="3.0754">
        <ele>26.68</ele>
        <time>2024-09-24T09:05:32.999Z</time>
      </trkpt>
      <trkpt lat="42.29314" lon="3.07527">
        <ele>26.72</ele>
        <time>2024-09-24T09:05:37.999Z</time>
      </trkpt>
      <trkpt lat="42.29308" lon="3.07514">
        <ele>26.76</ele>
        <time>2024-09-24T09:05:42.999Z</time>
      </trkpt>
      <trkpt lat="42.29302" lon="3.075">
        <ele>26.82</ele>
        <time>2024-09-24T09:05:47.999Z</time>
      </trkpt>
      <trkpt lat="42.29297" lon="3.07487">
        <ele>26.88</ele>
        <time>2024-09-24T09:05:52.999Z</time>
      </trkpt>
      <trkpt lat="42.29291" lon="3.07472">
        <ele>26.96</ele>
        <time>2024-09-24T09:05:57.999Z</time>
      </trkpt>
      <trkpt lat="42.29284" lon="3.07457">
        <ele>27.04</ele>
        <time>2024-09-24T09:06:02.999Z</time>
      </trkpt>
      <trkpt lat="42.29278" lon="3.07441">
        <ele>27.12</ele>
        <time>2024-09-24T09:06:07.999Z</time>
      </trkpt>
      <trkpt lat="42.29272" lon="3.07425">
        <ele>27.21</ele>
        <time>2024-09-24T09:06:12.999Z</time>
      </trkpt>
      <trkpt lat="42.29265" lon="3.07409">
        <ele>27.31</ele>
        <time>2024-09-24T09:06:17.999Z</time>
      </trkpt>
      <trkpt lat="42.29257" lon="3.07391">
        <ele>27.41</ele>
        <time>2024-09-24T09:06:22.999Z</time>
      </trkpt>
      <trkpt lat="42.2925" lon="3.07375">
        <ele>27.5</ele>
        <time>2024-09-24T09:06:27.999Z</time>
      </trkpt>
      <trkpt lat="42.29243" lon="3.07357">
        <ele>27.6</ele>
        <time>2024-09-24T09:06:32.999Z</time>
      </trkpt>
      <trkpt lat="42.29233" lon="3.07339">
        <ele>27.7</ele>
        <time>2024-09-24T09:06:37.999Z</time>
      </trkpt>
      <trkpt lat="42.29223" lon="3.07321">
        <ele>27.79</ele>
        <time>2024-09-24T09:06:43.000Z</time>
      </trkpt>
      <trkpt lat="42.29213" lon="3.07303">
        <ele>27.89</ele>
        <time>2024-09-24T09:06:48.000Z</time>
      </trkpt>
      <trkpt lat="42.29202" lon="3.07285">
        <ele>27.98</ele>
        <time>2024-09-24T09:06:53.000Z</time>
      </trkpt>
      <trkpt lat="42.29192" lon="3.07266">
        <ele>28.08</ele>
        <time>2024-09-24T09:06:58.000Z</time>
      </trkpt>
      <trkpt lat="42.29181" lon="3.07247">
        <ele>28.17</ele>
        <time>2024-09-24T09:07:03.000Z</time>
      </trkpt>
      <trkpt lat="42.2917" lon="3.07229">
        <ele>28.27</ele>
        <time>2024-09-24T09:07:08.000Z</time>
      </trkpt>
      <trkpt lat="42.29159" lon="3.07211">
        <ele>28.38</ele>
        <time>2024-09-24T09:07:13.000Z</time>
      </trkpt>
      <trkpt lat="42.29151" lon="3.07194">
        <ele>28.48</ele>
        <time>2024-09-24T09:07:18.000Z</time>
      </trkpt>
      <trkpt lat="42.29142" lon="3.07178">
        <ele>28.59</ele>
        <time>2024-09-24T09:07:23.000Z</time>
      </trkpt>
      <trkpt lat="42.29133" lon="3.07161">
        <ele>28.7</ele>
        <time>2024-09-24T09:07:28.000Z</time>
      </trkpt>
      <trkpt lat="42.29124" lon="3.07143">
        <ele>28.82</ele>
        <time>2024-09-24T09:07:33.000Z</time>
      </trkpt>
      <trkpt lat="42.29118" lon="3.07125">
        <ele>28.94</ele>
        <time>2024-09-24T09:07:38.000Z</time>
      </trkpt>
      <trkpt lat="42.29112" lon="3.07106">
        <ele>29.06</ele>
        <time>2024-09-24T09:07:43.000Z</time>
      </trkpt>
      <trkpt lat="42.29107" lon="3.07089">
        <ele>29.19</ele>
        <time>2024-09-24T09:07:48.000Z</time>
      </trkpt>
      <trkpt lat="42.29102" lon="3.07072">
        <ele>29.32</ele>
        <time>2024-09-24T09:07:53.000Z</time>
      </trkpt>
      <trkpt lat="42.29096" lon="3.07055">
        <ele>29.45</ele>
        <time>2024-09-24T09:07:58.000Z</time>
      </trkpt>
      <trkpt lat="42.29092" lon="3.0704">
        <ele>29.59</ele>
        <time>2024-09-24T09:08:03.000Z</time>
      </trkpt>
      <trkpt lat="42.29087" lon="3.07025">
        <ele>29.73</ele>
        <time>2024-09-24T09:08:08.000Z</time>
      </trkpt>
      <trkpt lat="42.29083" lon="3.07011">
        <ele>29.87</ele>
        <time>2024-09-24T09:08:13.000Z</time>
      </trkpt>
      <trkpt lat="42.29079" lon="3.06996">
        <ele>30.01</ele>
        <time>2024-09-24T09:08:18.000Z</time>
      </trkpt>
      <trkpt lat="42.29074" lon="3.06981">
        <ele>30.16</ele>
        <time>2024-09-24T09:08:23.000Z</time>
      </trkpt>
      <trkpt lat="42.2907" lon="3.06967">
        <ele>30.3</ele>
        <time>2024-09-24T09:08:28.000Z</time>
      </trkpt>
      <trkpt lat="42.29064" lon="3.06946">
        <ele>30.82</ele>
        <time>2024-09-24T09:08:33.000Z</time>
      </trkpt>
      <trkpt lat="42.29057" lon="3.06907">
        <ele>31.54</ele>
        <time>2024-09-24T09:08:38.000Z</time>
      </trkpt>
      <trkpt lat="42.29045" lon="3.06854">
        <ele>31.88</ele>
        <time>2024-09-24T09:08:43.000Z</time>
      </trkpt>
      <trkpt lat="42.29025" lon="3.06802">
        <ele>32.01</ele>
        <time>2024-09-24T09:08:48.000Z</time>
      </trkpt>
      <trkpt lat="42.29007" lon="3.06752">
        <ele>31.75</ele>
        <time>2024-09-24T09:08:53.000Z</time>
      </trkpt>
      <trkpt lat="42.28991" lon="3.06704">
        <ele>31.74</ele>
        <time>2024-09-24T09:08:58.000Z</time>
      </trkpt>
      <trkpt lat="42.28987" lon="3.06657">
        <ele>31.96</ele>
        <time>2024-09-24T09:09:03.000Z</time>
      </trkpt>
      <trkpt lat="42.28983" lon="3.06612">
        <ele>31.76</ele>
        <time>2024-09-24T09:09:08.000Z</time>
      </trkpt>
      <trkpt lat="42.28979" lon="3.06569">
        <ele>31.85</ele>
        <time>2024-09-24T09:09:13.000Z</time>
      </trkpt>
      <trkpt lat="42.28981" lon="3.06528">
        <ele>31.71</ele>
        <time>2024-09-24T09:09:18.000Z</time>
      </trkpt>
      <trkpt lat="42.28985" lon="3.06486">
        <ele>31.86</ele>
        <time>2024-09-24T09:09:23.000Z</time>
      </trkpt>
      <trkpt lat="42.2899" lon="3.06445">
        <ele>31.72</ele>
        <time>2024-09-24T09:09:28.000Z</time>
      </trkpt>
      <trkpt lat="42.28992" lon="3.06406">
        <ele>31.37</ele>
        <time>2024-09-24T09:09:33.000Z</time>
      </trkpt>
      <trkpt lat="42.28985" lon="3.0637">
        <ele>30.66</ele>
        <time>2024-09-24T09:09:38.000Z</time>
      </trkpt>
      <trkpt lat="42.28965" lon="3.06343">
        <ele>30.37</ele>
        <time>2024-09-24T09:09:43.000Z</time>
      </trkpt>
      <trkpt lat="42.28943" lon="3.06322">
        <ele>30.23</ele>
        <time>2024-09-24T09:09:48.000Z</time>
      </trkpt>
      <trkpt lat="42.28922" lon="3.0631">
        <ele>30.25</ele>
        <time>2024-09-24T09:09:53.000Z</time>
      </trkpt>
      <trkpt lat="42.28896" lon="3.06299">
        <ele>30.36</ele>
        <time>2024-09-24T09:09:58.000Z</time>
      </trkpt>
      <trkpt lat="42.28881" lon="3.06274">
        <ele>31.11</ele>
        <time>2024-09-24T09:10:03.000Z</time>
      </trkpt>
      <trkpt lat="42.28873" lon="3.06252">
        <ele>31.2</ele>
        <time>2024-09-24T09:10:08.000Z</time>
      </trkpt>
      <trkpt lat="42.28868" lon="3.0623">
        <ele>31.26</ele>
        <time>2024-09-24T09:10:13.000Z</time>
      </trkpt>
      <trkpt lat="42.28861" lon="3.06207">
        <ele>31.29</ele>
        <time>2024-09-24T09:10:18.000Z</time>
      </trkpt>
      <trkpt lat="42.28855" lon="3.06183">
        <ele>31.3</ele>
        <time>2024-09-24T09:10:23.000Z</time>
      </trkpt>
      <trkpt lat="42.28845" lon="3.06161">
        <ele>31.14</ele>
        <time>2024-09-24T09:10:28.000Z</time>
      </trkpt>
      <trkpt lat="42.28831" lon="3.06144">
        <ele>31.06</ele>
        <time>2024-09-24T09:10:33.000Z</time>
      </trkpt>
      <trkpt lat="42.28817" lon="3.06132">
        <ele>31.04</ele>
        <time>2024-09-24T09:10:38.000Z</time>
      </trkpt>
      <trkpt lat="42.28805" lon="3.06124">
        <ele>31.02</ele>
        <time>2024-09-24T09:10:43.000Z</time>
      </trkpt>
      <trkpt lat="42.28795" lon="3.06119">
        <ele>30.99</ele>
        <time>2024-09-24T09:10:49.000Z</time>
      </trkpt>
      <trkpt lat="42.28803" lon="3.06112">
        <ele>31.08</ele>
        <time>2024-09-24T09:12:08.000Z</time>
      </trkpt>
      <trkpt lat="42.28814" lon="3.06106">
        <ele>31.09</ele>
        <time>2024-09-24T09:12:13.000Z</time>
      </trkpt>
      <trkpt lat="42.28827" lon="3.061">
        <ele>31.1</ele>
        <time>2024-09-24T09:12:18.000Z</time>
      </trkpt>
      <trkpt lat="42.2884" lon="3.06093">
        <ele>31.1</ele>
        <time>2024-09-24T09:12:23.000Z</time>
      </trkpt>
      <trkpt lat="42.28857" lon="3.06084">
        <ele>31.11</ele>
        <time>2024-09-24T09:12:28.000Z</time>
      </trkpt>
      <trkpt lat="42.28872" lon="3.06075">
        <ele>31.21</ele>
        <time>2024-09-24T09:12:33.000Z</time>
      </trkpt>
      <trkpt lat="42.2889" lon="3.06065">
        <ele>31.4</ele>
        <time>2024-09-24T09:12:38.000Z</time>
      </trkpt>
      <trkpt lat="42.28908" lon="3.06054">
        <ele>31.58</ele>
        <time>2024-09-24T09:12:43.000Z</time>
      </trkpt>
      <trkpt lat="42.28925" lon="3.06044">
        <ele>31.79</ele>
        <time>2024-09-24T09:12:48.000Z</time>
      </trkpt>
      <trkpt lat="42.28941" lon="3.06034">
        <ele>31.83</ele>
        <time>2024-09-24T09:12:53.000Z</time>
      </trkpt>
      <trkpt lat="42.28954" lon="3.06026">
        <ele>31.84</ele>
        <time>2024-09-24T09:12:58.000Z</time>
      </trkpt>
      <trkpt lat="42.28966" lon="3.06017">
        <ele>31.86</ele>
        <time>2024-09-24T09:13:03.000Z</time>
      </trkpt>
      <trkpt lat="42.28974" lon="3.06002">
        <ele>31.88</ele>
        <time>2024-09-24T09:13:08.000Z</time>
      </trkpt>
      <trkpt lat="42.28975" lon="3.05984">
        <ele>31.91</ele>
        <time>2024-09-24T09:13:13.000Z</time>
      </trkpt>
      <trkpt lat="42.28973" lon="3.05966">
        <ele>31.96</ele>
        <time>2024-09-24T09:13:18.000Z</time>
      </trkpt>
      <trkpt lat="42.2897" lon="3.05948">
        <ele>32.02</ele>
        <time>2024-09-24T09:13:23.000Z</time>
      </trkpt>
      <trkpt lat="42.28968" lon="3.05931">
        <ele>32.09</ele>
        <time>2024-09-24T09:13:28.000Z</time>
      </trkpt>
      <trkpt lat="42.28967" lon="3.05913">
        <ele>32.17</ele>
        <time>2024-09-24T09:13:33.000Z</time>
      </trkpt>
      <trkpt lat="42.28964" lon="3.05895">
        <ele>32.25</ele>
        <time>2024-09-24T09:13:38.000Z</time>
      </trkpt>
      <trkpt lat="42.28961" lon="3.05877">
        <ele>32.32</ele>
        <time>2024-09-24T09:13:43.000Z</time>
      </trkpt>
      <trkpt lat="42.28956" lon="3.05859">
        <ele>32.4</ele>
        <time>2024-09-24T09:13:48.000Z</time>
      </trkpt>
      <trkpt lat="42.2895" lon="3.05842">
        <ele>32.47</ele>
        <time>2024-09-24T09:13:53.000Z</time>
      </trkpt>
      <trkpt lat="42.28944" lon="3.05825">
        <ele>32.53</ele>
        <time>2024-09-24T09:13:58.000Z</time>
      </trkpt>
      <trkpt lat="42.28938" lon="3.05809">
        <ele>32.6</ele>
        <time>2024-09-24T09:14:03.000Z</time>
      </trkpt>
      <trkpt lat="42.28933" lon="3.05792">
        <ele>32.68</ele>
        <time>2024-09-24T09:14:08.000Z</time>
      </trkpt>
      <trkpt lat="42.28929" lon="3.05773">
        <ele>32.75</ele>
        <time>2024-09-24T09:14:13.000Z</time>
      </trkpt>
      <trkpt lat="42.28926" lon="3.05755">
        <ele>32.82</ele>
        <time>2024-09-24T09:14:18.000Z</time>
      </trkpt>
      <trkpt lat="42.28922" lon="3.05737">
        <ele>32.89</ele>
        <time>2024-09-24T09:14:23.000Z</time>
      </trkpt>
      <trkpt lat="42.28918" lon="3.05719">
        <ele>32.97</ele>
        <time>2024-09-24T09:14:28.000Z</time>
      </trkpt>
      <trkpt lat="42.28916" lon="3.05701">
        <ele>33.04</ele>
        <time>2024-09-24T09:14:33.000Z</time>
      </trkpt>
      <trkpt lat="42.28915" lon="3.0568">
        <ele>33.1</ele>
        <time>2024-09-24T09:14:38.000Z</time>
      </trkpt>
      <trkpt lat="42.28915" lon="3.05653">
        <ele>33.15</ele>
        <time>2024-09-24T09:14:43.000Z</time>
      </trkpt>
      <trkpt lat="42.28918" lon="3.05623">
        <ele>33.46</ele>
        <time>2024-09-24T09:14:48.000Z</time>
      </trkpt>
      <trkpt lat="42.28925" lon="3.05592">
        <ele>33.61</ele>
        <time>2024-09-24T09:14:53.000Z</time>
      </trkpt>
      <trkpt lat="42.28928" lon="3.05559">
        <ele>33.67</ele>
        <time>2024-09-24T09:14:58.000Z</time>
      </trkpt>
      <trkpt lat="42.28934" lon="3.05527">
        <ele>33.65</ele>
        <time>2024-09-24T09:15:03.000Z</time>
      </trkpt>
      <trkpt lat="42.28935" lon="3.0549">
        <ele>33.64</ele>
        <time>2024-09-24T09:15:08.000Z</time>
      </trkpt>
      <trkpt lat="42.28926" lon="3.05457">
        <ele>33.64</ele>
        <time>2024-09-24T09:15:13.000Z</time>
      </trkpt>
      <trkpt lat="42.28914" lon="3.05428">
        <ele>33.62</ele>
        <time>2024-09-24T09:15:18.000Z</time>
      </trkpt>
      <trkpt lat="42.28902" lon="3.05399">
        <ele>33.57</ele>
        <time>2024-09-24T09:15:23.000Z</time>
      </trkpt>
      <trkpt lat="42.28889" lon="3.0537">
        <ele>33.52</ele>
        <time>2024-09-24T09:15:28.000Z</time>
      </trkpt>
      <trkpt lat="42.28875" lon="3.05341">
        <ele>33.48</ele>
        <time>2024-09-24T09:15:33.000Z</time>
      </trkpt>
      <trkpt lat="42.28862" lon="3.05313">
        <ele>33.44</ele>
        <time>2024-09-24T09:15:38.000Z</time>
      </trkpt>
      <trkpt lat="42.2885" lon="3.05285">
        <ele>33.37</ele>
        <time>2024-09-24T09:15:43.000Z</time>
      </trkpt>
      <trkpt lat="42.28836" lon="3.0526">
        <ele>33.35</ele>
        <time>2024-09-24T09:15:48.000Z</time>
      </trkpt>
      <trkpt lat="42.2882" lon="3.05237">
        <ele>33.35</ele>
        <time>2024-09-24T09:15:53.000Z</time>
      </trkpt>
      <trkpt lat="42.28803" lon="3.05213">
        <ele>33.35</ele>
        <time>2024-09-24T09:15:58.000Z</time>
      </trkpt>
      <trkpt lat="42.28787" lon="3.05187">
        <ele>33.35</ele>
        <time>2024-09-24T09:16:03.000Z</time>
      </trkpt>
      <trkpt lat="42.2877" lon="3.0516">
        <ele>33.33</ele>
        <time>2024-09-24T09:16:08.000Z</time>
      </trkpt>
      <trkpt lat="42.28753" lon="3.05129">
        <ele>33.24</ele>
        <time>2024-09-24T09:16:13.000Z</time>
      </trkpt>
      <trkpt lat="42.28736" lon="3.05096">
        <ele>33.14</ele>
        <time>2024-09-24T09:16:18.000Z</time>
      </trkpt>
      <trkpt lat="42.2872" lon="3.05062">
        <ele>33.17</ele>
        <time>2024-09-24T09:16:23.000Z</time>
      </trkpt>
      <trkpt lat="42.28702" lon="3.05031">
        <ele>33.17</ele>
        <time>2024-09-24T09:16:28.000Z</time>
      </trkpt>
      <trkpt lat="42.28684" lon="3.05">
        <ele>33.09</ele>
        <time>2024-09-24T09:16:33.000Z</time>
      </trkpt>
      <trkpt lat="42.28669" lon="3.04967">
        <ele>32.98</ele>
        <time>2024-09-24T09:16:38.000Z</time>
      </trkpt>
      <trkpt lat="42.28675" lon="3.0493">
        <ele>32.86</ele>
        <time>2024-09-24T09:16:43.000Z</time>
      </trkpt>
      <trkpt lat="42.28689" lon="3.04892">
        <ele>32.77</ele>
        <time>2024-09-24T09:16:48.000Z</time>
      </trkpt>
      <trkpt lat="42.28699" lon="3.04857">
        <ele>32.67</ele>
        <time>2024-09-24T09:16:53.000Z</time>
      </trkpt>
      <trkpt lat="42.28707" lon="3.0482">
        <ele>32.56</ele>
        <time>2024-09-24T09:16:58.000Z</time>
      </trkpt>
      <trkpt lat="42.28712" lon="3.04787">
        <ele>32.45</ele>
        <time>2024-09-24T09:17:03.000Z</time>
      </trkpt>
      <trkpt lat="42.28715" lon="3.04754">
        <ele>32.35</ele>
        <time>2024-09-24T09:17:08.000Z</time>
      </trkpt>
      <trkpt lat="42.28713" lon="3.04724">
        <ele>32.24</ele>
        <time>2024-09-24T09:17:13.000Z</time>
      </trkpt>
      <trkpt lat="42.28701" lon="3.04701">
        <ele>32.15</ele>
        <time>2024-09-24T09:17:18.000Z</time>
      </trkpt>
      <trkpt lat="42.28688" lon="3.04683">
        <ele>32.09</ele>
        <time>2024-09-24T09:17:23.000Z</time>
      </trkpt>
      <trkpt lat="42.28674" lon="3.04663">
        <ele>32.03</ele>
        <time>2024-09-24T09:17:28.000Z</time>
      </trkpt>
      <trkpt lat="42.28658" lon="3.04641">
        <ele>31.96</ele>
        <time>2024-09-24T09:17:33.000Z</time>
      </trkpt>
      <trkpt lat="42.28642" lon="3.0462">
        <ele>31.89</ele>
        <time>2024-09-24T09:17:38.000Z</time>
      </trkpt>
      <trkpt lat="42.28625" lon="3.04599">
        <ele>31.81</ele>
        <time>2024-09-24T09:17:43.000Z</time>
      </trkpt>
      <trkpt lat="42.28606" lon="3.0458">
        <ele>31.74</ele>
        <time>2024-09-24T09:17:48.000Z</time>
      </trkpt>
      <trkpt lat="42.28588" lon="3.04564">
        <ele>31.66</ele>
        <time>2024-09-24T09:17:53.000Z</time>
      </trkpt>
      <trkpt lat="42.28568" lon="3.04548">
        <ele>31.58</ele>
        <time>2024-09-24T09:17:58.000Z</time>
      </trkpt>
      <trkpt lat="42.28546" lon="3.04531">
        <ele>31.5</ele>
        <time>2024-09-24T09:18:03.000Z</time>
      </trkpt>
      <trkpt lat="42.28525" lon="3.04511">
        <ele>31.41</ele>
        <time>2024-09-24T09:18:08.000Z</time>
      </trkpt>
      <trkpt lat="42.28504" lon="3.04494">
        <ele>31.31</ele>
        <time>2024-09-24T09:18:13.000Z</time>
      </trkpt>
      <trkpt lat="42.28481" lon="3.04479">
        <ele>31.2</ele>
        <time>2024-09-24T09:18:18.000Z</time>
      </trkpt>
      <trkpt lat="42.28454" lon="3.04471">
        <ele>31.1</ele>
        <time>2024-09-24T09:18:23.000Z</time>
      </trkpt>
      <trkpt lat="42.28426" lon="3.04466">
        <ele>30.98</ele>
        <time>2024-09-24T09:18:28.000Z</time>
      </trkpt>
      <trkpt lat="42.28399" lon="3.04462">
        <ele>30.85</ele>
        <time>2024-09-24T09:18:33.000Z</time>
      </trkpt>
      <trkpt lat="42.28372" lon="3.04459">
        <ele>30.73</ele>
        <time>2024-09-24T09:18:38.000Z</time>
      </trkpt>
      <trkpt lat="42.28348" lon="3.04456">
        <ele>30.64</ele>
        <time>2024-09-24T09:18:43.000Z</time>
      </trkpt>
      <trkpt lat="42.28325" lon="3.04452">
        <ele>30.58</ele>
        <time>2024-09-24T09:18:48.000Z</time>
      </trkpt>
      <trkpt lat="42.28303" lon="3.0445">
        <ele>30.57</ele>
        <time>2024-09-24T09:18:53.999Z</time>
      </trkpt>
      <trkpt lat="42.28283" lon="3.04447">
        <ele>30.55</ele>
        <time>2024-09-24T09:18:58.999Z</time>
      </trkpt>
      <trkpt lat="42.28264" lon="3.04447">
        <ele>30.42</ele>
        <time>2024-09-24T09:19:03.999Z</time>
      </trkpt>
      <trkpt lat="42.28242" lon="3.04446">
        <ele>30.29</ele>
        <time>2024-09-24T09:19:08.999Z</time>
      </trkpt>
      <trkpt lat="42.28222" lon="3.04444">
        <ele>30.22</ele>
        <time>2024-09-24T09:19:13.999Z</time>
      </trkpt>
      <trkpt lat="42.28206" lon="3.04443">
        <ele>30.2</ele>
        <time>2024-09-24T09:19:18.999Z</time>
      </trkpt>
      <trkpt lat="42.28188" lon="3.04443">
        <ele>30.17</ele>
        <time>2024-09-24T09:19:23.999Z</time>
      </trkpt>
      <trkpt lat="42.28172" lon="3.04441">
        <ele>30.14</ele>
        <time>2024-09-24T09:19:28.999Z</time>
      </trkpt>
      <trkpt lat="42.28156" lon="3.0444">
        <ele>30.1</ele>
        <time>2024-09-24T09:19:33.999Z</time>
      </trkpt>
      <trkpt lat="42.2814" lon="3.04432">
        <ele>30.06</ele>
        <time>2024-09-24T09:19:38.999Z</time>
      </trkpt>
      <trkpt lat="42.2812" lon="3.04429">
        <ele>29.77</ele>
        <time>2024-09-24T09:19:43.999Z</time>
      </trkpt>
      <trkpt lat="42.28099" lon="3.0443">
        <ele>29.59</ele>
        <time>2024-09-24T09:19:48.999Z</time>
      </trkpt>
      <trkpt lat="42.28078" lon="3.04429">
        <ele>29.48</ele>
        <time>2024-09-24T09:19:53.999Z</time>
      </trkpt>
      <trkpt lat="42.28057" lon="3.04426">
        <ele>29.39</ele>
        <time>2024-09-24T09:19:58.999Z</time>
      </trkpt>
      <trkpt lat="42.2804" lon="3.04414">
        <ele>29.33</ele>
        <time>2024-09-24T09:20:03.999Z</time>
      </trkpt>
      <trkpt lat="42.28031" lon="3.04397">
        <ele>29.31</ele>
        <time>2024-09-24T09:20:08.999Z</time>
      </trkpt>
      <trkpt lat="42.28031" lon="3.04384">
        <ele>29.25</ele>
        <time>2024-09-24T09:20:24.999Z</time>
      </trkpt>
      <trkpt lat="42.2804" lon="3.04367">
        <ele>29.19</ele>
        <time>2024-09-24T09:20:29.999Z</time>
      </trkpt>
      <trkpt lat="42.28052" lon="3.04346">
        <ele>29.12</ele>
        <time>2024-09-24T09:20:34.999Z</time>
      </trkpt>
      <trkpt lat="42.28062" lon="3.04332">
        <ele>29.06</ele>
        <time>2024-09-24T09:20:39.999Z</time>
      </trkpt>
      <trkpt lat="42.28067" lon="3.04318">
        <ele>28.99</ele>
        <time>2024-09-24T09:20:44.999Z</time>
      </trkpt>
      <trkpt lat="42.2806" lon="3.04329">
        <ele>28.93</ele>
        <time>2024-09-24T09:20:49.999Z</time>
      </trkpt>
      <trkpt lat="42.28069" lon="3.04327">
        <ele>28.8</ele>
        <time>2024-09-24T09:20:58.999Z</time>
      </trkpt>
      <trkpt lat="42.28078" lon="3.04324">
        <ele>28.72</ele>
        <time>2024-09-24T09:21:04.999Z</time>
      </trkpt>
      <trkpt lat="42.28069" lon="3.04324">
        <ele>28.21</ele>
        <time>2024-09-24T09:22:07.999Z</time>
      </trkpt>
      <trkpt lat="42.28058" lon="3.04333">
        <ele>28.15</ele>
        <time>2024-09-24T09:22:12.999Z</time>
      </trkpt>
      <trkpt lat="42.28048" lon="3.04349">
        <ele>28.09</ele>
        <time>2024-09-24T09:22:17.999Z</time>
      </trkpt>
      <trkpt lat="42.28035" lon="3.04371">
        <ele>27.89</ele>
        <time>2024-09-24T09:22:22.999Z</time>
      </trkpt>
      <trkpt lat="42.28018" lon="3.04387">
        <ele>27.75</ele>
        <time>2024-09-24T09:22:27.999Z</time>
      </trkpt>
      <trkpt lat="42.27999" lon="3.04392">
        <ele>27.73</ele>
        <time>2024-09-24T09:22:32.999Z</time>
      </trkpt>
      <trkpt lat="42.27977" lon="3.04396">
        <ele>27.67</ele>
        <time>2024-09-24T09:22:37.999Z</time>
      </trkpt>
      <trkpt lat="42.27951" lon="3.04399">
        <ele>27.58</ele>
        <time>2024-09-24T09:22:42.999Z</time>
      </trkpt>
      <trkpt lat="42.27927" lon="3.04405">
        <ele>27.51</ele>
        <time>2024-09-24T09:22:47.999Z</time>
      </trkpt>
      <trkpt lat="42.27907" lon="3.04408">
        <ele>27.51</ele>
        <time>2024-09-24T09:22:52.999Z</time>
      </trkpt>
      <trkpt lat="42.27884" lon="3.04415">
        <ele>27.65</ele>
        <time>2024-09-24T09:22:57.999Z</time>
      </trkpt>
      <trkpt lat="42.27861" lon="3.04408">
        <ele>27.92</ele>
        <time>2024-09-24T09:23:02.999Z</time>
      </trkpt>
      <trkpt lat="42.2784" lon="3.04395">
        <ele>28.19</ele>
        <time>2024-09-24T09:23:07.999Z</time>
      </trkpt>
      <trkpt lat="42.27821" lon="3.04384">
        <ele>28.31</ele>
        <time>2024-09-24T09:23:12.999Z</time>
      </trkpt>
      <trkpt lat="42.27808" lon="3.04377">
        <ele>28.34</ele>
        <time>2024-09-24T09:23:17.999Z</time>
      </trkpt>
      <trkpt lat="42.27795" lon="3.04374">
        <ele>28.37</ele>
        <time>2024-09-24T09:23:22.999Z</time>
      </trkpt>
      <trkpt lat="42.27784" lon="3.04375">
        <ele>28.42</ele>
        <time>2024-09-24T09:23:27.999Z</time>
      </trkpt>
      <trkpt lat="42.27766" lon="3.04377">
        <ele>28.47</ele>
        <time>2024-09-24T09:23:32.999Z</time>
      </trkpt>
      <trkpt lat="42.27744" lon="3.04361">
        <ele>28.66</ele>
        <time>2024-09-24T09:23:37.999Z</time>
      </trkpt>
      <trkpt lat="42.27719" lon="3.04339">
        <ele>28.76</ele>
        <time>2024-09-24T09:23:42.999Z</time>
      </trkpt>
      <trkpt lat="42.27689" lon="3.04345">
        <ele>28.94</ele>
        <time>2024-09-24T09:23:47.999Z</time>
      </trkpt>
      <trkpt lat="42.27658" lon="3.04353">
        <ele>29.26</ele>
        <time>2024-09-24T09:23:52.999Z</time>
      </trkpt>
      <trkpt lat="42.27631" lon="3.04366">
        <ele>28.87</ele>
        <time>2024-09-24T09:23:57.999Z</time>
      </trkpt>
      <trkpt lat="42.27604" lon="3.04375">
        <ele>28.94</ele>
        <time>2024-09-24T09:24:02.999Z</time>
      </trkpt>
      <trkpt lat="42.27587" lon="3.04343">
        <ele>29.04</ele>
        <time>2024-09-24T09:24:07.999Z</time>
      </trkpt>
      <trkpt lat="42.27573" lon="3.04318">
        <ele>30.2</ele>
        <time>2024-09-24T09:24:12.999Z</time>
      </trkpt>
      <trkpt lat="42.27563" lon="3.04298">
        <ele>30.49</ele>
        <time>2024-09-24T09:24:17.999Z</time>
      </trkpt>
      <trkpt lat="42.27552" lon="3.04282">
        <ele>30.77</ele>
        <time>2024-09-24T09:24:22.999Z</time>
      </trkpt>
      <trkpt lat="42.27556" lon="3.04295">
        <ele>31.16</ele>
        <time>2024-09-24T09:24:30.999Z</time>
      </trkpt>
      <trkpt lat="42.27563" lon="3.04306">
        <ele>30.85</ele>
        <time>2024-09-24T09:25:10.999Z</time>
      </trkpt>
      <trkpt lat="42.2757" lon="3.04318">
        <ele>30.69</ele>
        <time>2024-09-24T09:25:15.999Z</time>
      </trkpt>
      <trkpt lat="42.27583" lon="3.04329">
        <ele>30.53</ele>
        <time>2024-09-24T09:25:20.999Z</time>
      </trkpt>
      <trkpt lat="42.27591" lon="3.04322">
        <ele>30.35</ele>
        <time>2024-09-24T09:25:25.999Z</time>
      </trkpt>
      <trkpt lat="42.276" lon="3.04314">
        <ele>30.16</ele>
        <time>2024-09-24T09:25:30.999Z</time>
      </trkpt>
      <trkpt lat="42.2761" lon="3.04306">
        <ele>29.95</ele>
        <time>2024-09-24T09:25:35.999Z</time>
      </trkpt>
      <trkpt lat="42.27619" lon="3.04301">
        <ele>29.74</ele>
        <time>2024-09-24T09:25:40.999Z</time>
      </trkpt>
      <trkpt lat="42.27632" lon="3.04295">
        <ele>29.54</ele>
        <time>2024-09-24T09:25:45.999Z</time>
      </trkpt>
      <trkpt lat="42.27647" lon="3.04288">
        <ele>29.34</ele>
        <time>2024-09-24T09:25:50.999Z</time>
      </trkpt>
      <trkpt lat="42.27664" lon="3.04279">
        <ele>28.87</ele>
        <time>2024-09-24T09:25:55.999Z</time>
      </trkpt>
      <trkpt lat="42.27684" lon="3.04269">
        <ele>28.12</ele>
        <time>2024-09-24T09:26:00.999Z</time>
      </trkpt>
      <trkpt lat="42.27702" lon="3.04258">
        <ele>27.8</ele>
        <time>2024-09-24T09:26:05.999Z</time>
      </trkpt>
      <trkpt lat="42.2772" lon="3.04241">
        <ele>27.23</ele>
        <time>2024-09-24T09:26:10.999Z</time>
      </trkpt>
      <trkpt lat="42.27737" lon="3.04221">
        <ele>26.92</ele>
        <time>2024-09-24T09:26:15.999Z</time>
      </trkpt>
      <trkpt lat="42.27755" lon="3.042">
        <ele>26.8</ele>
        <time>2024-09-24T09:26:20.999Z</time>
      </trkpt>
      <trkpt lat="42.27774" lon="3.04177">
        <ele>26.77</ele>
        <time>2024-09-24T09:26:25.999Z</time>
      </trkpt>
      <trkpt lat="42.27791" lon="3.04156">
        <ele>26.85</ele>
        <time>2024-09-24T09:26:30.999Z</time>
      </trkpt>
      <trkpt lat="42.27815" lon="3.04138">
        <ele>27.04</ele>
        <time>2024-09-24T09:26:35.999Z</time>
      </trkpt>
      <trkpt lat="42.27837" lon="3.04125">
        <ele>27.17</ele>
        <time>2024-09-24T09:26:40.999Z</time>
      </trkpt>
      <trkpt lat="42.2786" lon="3.04113">
        <ele>27.22</ele>
        <time>2024-09-24T09:26:45.999Z</time>
      </trkpt>
      <trkpt lat="42.27884" lon="3.04098">
        <ele>27.34</ele>
        <time>2024-09-24T09:26:50.999Z</time>
      </trkpt>
      <trkpt lat="42.27907" lon="3.04083">
        <ele>27.52</ele>
        <time>2024-09-24T09:26:55.999Z</time>
      </trkpt>
      <trkpt lat="42.27929" lon="3.04065">
        <ele>27.71</ele>
        <time>2024-09-24T09:27:00.999Z</time>
      </trkpt>
      <trkpt lat="42.27948" lon="3.04049">
        <ele>27.91</ele>
        <time>2024-09-24T09:27:05.999Z</time>
      </trkpt>
      <trkpt lat="42.2797" lon="3.04031">
        <ele>28.06</ele>
        <time>2024-09-24T09:27:10.999Z</time>
      </trkpt>
      <trkpt lat="42.27992" lon="3.04014">
        <ele>28.1</ele>
        <time>2024-09-24T09:27:15.999Z</time>
      </trkpt>
      <trkpt lat="42.28014" lon="3.03996">
        <ele>28.19</ele>
        <time>2024-09-24T09:27:20.999Z</time>
      </trkpt>
      <trkpt lat="42.28035" lon="3.03975">
        <ele>28.34</ele>
        <time>2024-09-24T09:27:25.999Z</time>
      </trkpt>
      <trkpt lat="42.28034" lon="3.03945">
        <ele>28.48</ele>
        <time>2024-09-24T09:27:30.999Z</time>
      </trkpt>
      <trkpt lat="42.28027" lon="3.03922">
        <ele>28.52</ele>
        <time>2024-09-24T09:27:35.999Z</time>
      </trkpt>
      <trkpt lat="42.28021" lon="3.039">
        <ele>28.56</ele>
        <time>2024-09-24T09:27:40.999Z</time>
      </trkpt>
      <trkpt lat="42.28015" lon="3.03883">
        <ele>28.62</ele>
        <time>2024-09-24T09:27:45.999Z</time>
      </trkpt>
      <trkpt lat="42.28018" lon="3.03897">
        <ele>28.89</ele>
        <time>2024-09-24T09:27:57.999Z</time>
      </trkpt>
      <trkpt lat="42.28025" lon="3.03921">
        <ele>30.03</ele>
        <time>2024-09-24T09:28:02.999Z</time>
      </trkpt>
      <trkpt lat="42.28033" lon="3.03946">
        <ele>32.16</ele>
        <time>2024-09-24T09:28:07.999Z</time>
      </trkpt>
      <trkpt lat="42.28043" lon="3.0395">
        <ele>32.4</ele>
        <time>2024-09-24T09:28:12.999Z</time>
      </trkpt>
      <trkpt lat="42.28043" lon="3.03934">
        <ele>32.48</ele>
        <time>2024-09-24T09:28:17.999Z</time>
      </trkpt>
      <trkpt lat="42.28043" lon="3.03918">
        <ele>32.54</ele>
        <time>2024-09-24T09:28:22.999Z</time>
      </trkpt>
      <trkpt lat="42.28044" lon="3.03898">
        <ele>32.58</ele>
        <time>2024-09-24T09:28:27.999Z</time>
      </trkpt>
      <trkpt lat="42.28046" lon="3.03881">
        <ele>32.6</ele>
        <time>2024-09-24T09:28:32.999Z</time>
      </trkpt>
      <trkpt lat="42.28045" lon="3.03853">
        <ele>32.58</ele>
        <time>2024-09-24T09:28:37.999Z</time>
      </trkpt>
      <trkpt lat="42.28041" lon="3.0382">
        <ele>32.57</ele>
        <time>2024-09-24T09:28:42.999Z</time>
      </trkpt>
      <trkpt lat="42.28042" lon="3.03791">
        <ele>32.61</ele>
        <time>2024-09-24T09:28:47.999Z</time>
      </trkpt>
      <trkpt lat="42.28041" lon="3.03764">
        <ele>32.68</ele>
        <time>2024-09-24T09:28:52.999Z</time>
      </trkpt>
      <trkpt lat="42.28041" lon="3.03736">
        <ele>32.69</ele>
        <time>2024-09-24T09:28:57.999Z</time>
      </trkpt>
      <trkpt lat="42.2804" lon="3.03706">
        <ele>32.71</ele>
        <time>2024-09-24T09:29:02.999Z</time>
      </trkpt>
      <trkpt lat="42.28039" lon="3.03673">
        <ele>32.69</ele>
        <time>2024-09-24T09:29:07.999Z</time>
      </trkpt>
      <trkpt lat="42.28042" lon="3.03639">
        <ele>32.63</ele>
        <time>2024-09-24T09:29:12.999Z</time>
      </trkpt>
      <trkpt lat="42.28041" lon="3.03608">
        <ele>32.56</ele>
        <time>2024-09-24T09:29:17.999Z</time>
      </trkpt>
      <trkpt lat="42.28039" lon="3.03576">
        <ele>32.47</ele>
        <time>2024-09-24T09:29:22.999Z</time>
      </trkpt>
      <trkpt lat="42.28037" lon="3.03547">
        <ele>32.43</ele>
        <time>2024-09-24T09:29:27.999Z</time>
      </trkpt>
      <trkpt lat="42.28037" lon="3.0352">
        <ele>32.44</ele>
        <time>2024-09-24T09:29:32.999Z</time>
      </trkpt>
      <trkpt lat="42.28037" lon="3.03493">
        <ele>32.47</ele>
        <time>2024-09-24T09:29:37.999Z</time>
      </trkpt>
      <trkpt lat="42.28032" lon="3.03469">
        <ele>32.48</ele>
        <time>2024-09-24T09:29:42.999Z</time>
      </trkpt>
      <trkpt lat="42.2803" lon="3.03448">
        <ele>32.49</ele>
        <time>2024-09-24T09:29:47.999Z</time>
      </trkpt>
      <trkpt lat="42.28041" lon="3.0344">
        <ele>32.51</ele>
        <time>2024-09-24T09:29:52.999Z</time>
      </trkpt>
      <trkpt lat="42.28056" lon="3.03426">
        <ele>32.52</ele>
        <time>2024-09-24T09:29:57.999Z</time>
      </trkpt>
      <trkpt lat="42.28069" lon="3.03414">
        <ele>32.52</ele>
        <time>2024-09-24T09:30:02.999Z</time>
      </trkpt>
      <trkpt lat="42.28081" lon="3.03405">
        <ele>32.51</ele>
        <time>2024-09-24T09:30:07.999Z</time>
      </trkpt>
      <trkpt lat="42.28097" lon="3.03391">
        <ele>32.4</ele>
        <time>2024-09-24T09:30:12.999Z</time>
      </trkpt>
      <trkpt lat="42.28114" lon="3.03375">
        <ele>32.26</ele>
        <time>2024-09-24T09:30:17.999Z</time>
      </trkpt>
      <trkpt lat="42.28132" lon="3.03363">
        <ele>32.16</ele>
        <time>2024-09-24T09:30:22.999Z</time>
      </trkpt>
      <trkpt lat="42.28151" lon="3.03345">
        <ele>31.96</ele>
        <time>2024-09-24T09:30:27.999Z</time>
      </trkpt>
      <trkpt lat="42.28169" lon="3.03329">
        <ele>31.75</ele>
        <time>2024-09-24T09:30:32.999Z</time>
      </trkpt>
      <trkpt lat="42.28187" lon="3.03315">
        <ele>31.53</ele>
        <time>2024-09-24T09:30:37.999Z</time>
      </trkpt>
      <trkpt lat="42.28207" lon="3.03301">
        <ele>31.34</ele>
        <time>2024-09-24T09:30:42.999Z</time>
      </trkpt>
      <trkpt lat="42.28225" lon="3.03288">
        <ele>31.17</ele>
        <time>2024-09-24T09:30:47.999Z</time>
      </trkpt>
      <trkpt lat="42.28242" lon="3.03273">
        <ele>30.96</ele>
        <time>2024-09-24T09:30:52.999Z</time>
      </trkpt>
      <trkpt lat="42.28263" lon="3.03256">
        <ele>30.77</ele>
        <time>2024-09-24T09:30:57.999Z</time>
      </trkpt>
      <trkpt lat="42.28282" lon="3.03241">
        <ele>30.59</ele>
        <time>2024-09-24T09:31:03.000Z</time>
      </trkpt>
      <trkpt lat="42.28301" lon="3.03226">
        <ele>30.4</ele>
        <time>2024-09-24T09:31:08.000Z</time>
      </trkpt>
      <trkpt lat="42.28319" lon="3.03212">
        <ele>30.25</ele>
        <time>2024-09-24T09:31:13.000Z</time>
      </trkpt>
      <trkpt lat="42.28339" lon="3.03197">
        <ele>30.09</ele>
        <time>2024-09-24T09:31:18.000Z</time>
      </trkpt>
      <trkpt lat="42.28358" lon="3.03182">
        <ele>29.97</ele>
        <time>2024-09-24T09:31:23.000Z</time>
      </trkpt>
      <trkpt lat="42.28376" lon="3.03167">
        <ele>29.87</ele>
        <time>2024-09-24T09:31:28.000Z</time>
      </trkpt>
      <trkpt lat="42.28395" lon="3.0315">
        <ele>29.82</ele>
        <time>2024-09-24T09:31:33.000Z</time>
      </trkpt>
      <trkpt lat="42.28408" lon="3.03125">
        <ele>29.76</ele>
        <time>2024-09-24T09:31:38.000Z</time>
      </trkpt>
      <trkpt lat="42.28404" lon="3.03094">
        <ele>29.7</ele>
        <time>2024-09-24T09:31:43.000Z</time>
      </trkpt>
      <trkpt lat="42.28391" lon="3.03069">
        <ele>29.65</ele>
        <time>2024-09-24T09:31:48.000Z</time>
      </trkpt>
      <trkpt lat="42.28378" lon="3.03042">
        <ele>29.62</ele>
        <time>2024-09-24T09:31:53.000Z</time>
      </trkpt>
      <trkpt lat="42.28365" lon="3.03016">
        <ele>29.6</ele>
        <time>2024-09-24T09:31:58.000Z</time>
      </trkpt>
      <trkpt lat="42.28352" lon="3.02992">
        <ele>29.57</ele>
        <time>2024-09-24T09:32:03.000Z</time>
      </trkpt>
      <trkpt lat="42.2834" lon="3.0297">
        <ele>29.51</ele>
        <time>2024-09-24T09:32:08.000Z</time>
      </trkpt>
      <trkpt lat="42.28331" lon="3.02949">
        <ele>29.46</ele>
        <time>2024-09-24T09:32:13.000Z</time>
      </trkpt>
      <trkpt lat="42.28321" lon="3.0293">
        <ele>29.45</ele>
        <time>2024-09-24T09:32:18.000Z</time>
      </trkpt>
      <trkpt lat="42.28309" lon="3.02911">
        <ele>29.34</ele>
        <time>2024-09-24T09:32:23.000Z</time>
      </trkpt>
      <trkpt lat="42.28294" lon="3.02892">
        <ele>29.22</ele>
        <time>2024-09-24T09:32:28.000Z</time>
      </trkpt>
      <trkpt lat="42.28278" lon="3.02874">
        <ele>29.12</ele>
        <time>2024-09-24T09:32:33.000Z</time>
      </trkpt>
      <trkpt lat="42.28263" lon="3.02851">
        <ele>29.08</ele>
        <time>2024-09-24T09:32:38.000Z</time>
      </trkpt>
      <trkpt lat="42.28256" lon="3.02823">
        <ele>29.07</ele>
        <time>2024-09-24T09:32:43.000Z</time>
      </trkpt>
      <trkpt lat="42.28251" lon="3.02792">
        <ele>29.06</ele>
        <time>2024-09-24T09:32:48.000Z</time>
      </trkpt>
      <trkpt lat="42.28245" lon="3.02761">
        <ele>29.04</ele>
        <time>2024-09-24T09:32:53.000Z</time>
      </trkpt>
      <trkpt lat="42.28239" lon="3.0273">
        <ele>29</ele>
        <time>2024-09-24T09:32:58.000Z</time>
      </trkpt>
      <trkpt lat="42.28235" lon="3.027">
        <ele>28.97</ele>
        <time>2024-09-24T09:33:03.000Z</time>
      </trkpt>
      <trkpt lat="42.28229" lon="3.0267">
        <ele>28.9</ele>
        <time>2024-09-24T09:33:08.000Z</time>
      </trkpt>
      <trkpt lat="42.28224" lon="3.02637">
        <ele>28.84</ele>
        <time>2024-09-24T09:33:13.000Z</time>
      </trkpt>
      <trkpt lat="42.28227" lon="3.02602">
        <ele>28.77</ele>
        <time>2024-09-24T09:33:18.000Z</time>
      </trkpt>
      <trkpt lat="42.28238" lon="3.02572">
        <ele>28.72</ele>
        <time>2024-09-24T09:33:23.000Z</time>
      </trkpt>
      <trkpt lat="42.28254" lon="3.02547">
        <ele>28.69</ele>
        <time>2024-09-24T09:33:28.000Z</time>
      </trkpt>
      <trkpt lat="42.28271" lon="3.02523">
        <ele>28.66</ele>
        <time>2024-09-24T09:33:33.000Z</time>
      </trkpt>
      <trkpt lat="42.28279" lon="3.02495">
        <ele>28.67</ele>
        <time>2024-09-24T09:33:38.000Z</time>
      </trkpt>
      <trkpt lat="42.28275" lon="3.02462">
        <ele>28.66</ele>
        <time>2024-09-24T09:33:43.000Z</time>
      </trkpt>
      <trkpt lat="42.28264" lon="3.02435">
        <ele>28.67</ele>
        <time>2024-09-24T09:33:48.000Z</time>
      </trkpt>
      <trkpt lat="42.28253" lon="3.02407">
        <ele>28.71</ele>
        <time>2024-09-24T09:33:53.000Z</time>
      </trkpt>
      <trkpt lat="42.28243" lon="3.02378">
        <ele>28.72</ele>
        <time>2024-09-24T09:33:58.000Z</time>
      </trkpt>
      <trkpt lat="42.28234" lon="3.02353">
        <ele>28.7</ele>
        <time>2024-09-24T09:34:03.000Z</time>
      </trkpt>
      <trkpt lat="42.28226" lon="3.0233">
        <ele>28.69</ele>
        <time>2024-09-24T09:34:08.000Z</time>
      </trkpt>
      <trkpt lat="42.28219" lon="3.02308">
        <ele>28.67</ele>
        <time>2024-09-24T09:34:13.000Z</time>
      </trkpt>
      <trkpt lat="42.28213" lon="3.02284">
        <ele>28.66</ele>
        <time>2024-09-24T09:34:18.000Z</time>
      </trkpt>
      <trkpt lat="42.2821" lon="3.0226">
        <ele>28.64</ele>
        <time>2024-09-24T09:34:23.000Z</time>
      </trkpt>
      <trkpt lat="42.28208" lon="3.02233">
        <ele>28.63</ele>
        <time>2024-09-24T09:34:28.000Z</time>
      </trkpt>
      <trkpt lat="42.28207" lon="3.02205">
        <ele>28.64</ele>
        <time>2024-09-24T09:34:33.000Z</time>
      </trkpt>
      <trkpt lat="42.28205" lon="3.02176">
        <ele>28.63</ele>
        <time>2024-09-24T09:34:38.000Z</time>
      </trkpt>
      <trkpt lat="42.28202" lon="3.02147">
        <ele>28.62</ele>
        <time>2024-09-24T09:34:43.000Z</time>
      </trkpt>
      <trkpt lat="42.282" lon="3.02118">
        <ele>28.63</ele>
        <time>2024-09-24T09:34:48.000Z</time>
      </trkpt>
      <trkpt lat="42.28199" lon="3.02088">
        <ele>28.64</ele>
        <time>2024-09-24T09:34:53.000Z</time>
      </trkpt>
      <trkpt lat="42.28196" lon="3.02059">
        <ele>28.64</ele>
        <time>2024-09-24T09:34:58.000Z</time>
      </trkpt>
      <trkpt lat="42.28197" lon="3.02029">
        <ele>28.65</ele>
        <time>2024-09-24T09:35:03.000Z</time>
      </trkpt>
      <trkpt lat="42.28198" lon="3.02">
        <ele>28.68</ele>
        <time>2024-09-24T09:35:08.000Z</time>
      </trkpt>
      <trkpt lat="42.28198" lon="3.01971">
        <ele>28.72</ele>
        <time>2024-09-24T09:35:13.000Z</time>
      </trkpt>
      <trkpt lat="42.28199" lon="3.01941">
        <ele>28.77</ele>
        <time>2024-09-24T09:35:18.000Z</time>
      </trkpt>
      <trkpt lat="42.28198" lon="3.01911">
        <ele>28.82</ele>
        <time>2024-09-24T09:35:23.000Z</time>
      </trkpt>
      <trkpt lat="42.28195" lon="3.01885">
        <ele>28.86</ele>
        <time>2024-09-24T09:35:28.000Z</time>
      </trkpt>
      <trkpt lat="42.28191" lon="3.01855">
        <ele>28.9</ele>
        <time>2024-09-24T09:35:33.000Z</time>
      </trkpt>
      <trkpt lat="42.28183" lon="3.01827">
        <ele>28.91</ele>
        <time>2024-09-24T09:35:38.000Z</time>
      </trkpt>
      <trkpt lat="42.28175" lon="3.01799">
        <ele>28.89</ele>
        <time>2024-09-24T09:35:43.000Z</time>
      </trkpt>
      <trkpt lat="42.28169" lon="3.01773">
        <ele>28.89</ele>
        <time>2024-09-24T09:35:48.000Z</time>
      </trkpt>
      <trkpt lat="42.28163" lon="3.01745">
        <ele>28.9</ele>
        <time>2024-09-24T09:35:53.000Z</time>
      </trkpt>
      <trkpt lat="42.28157" lon="3.0172">
        <ele>28.9</ele>
        <time>2024-09-24T09:35:58.000Z</time>
      </trkpt>
      <trkpt lat="42.28153" lon="3.01698">
        <ele>28.91</ele>
        <time>2024-09-24T09:36:03.000Z</time>
      </trkpt>
      <trkpt lat="42.28149" lon="3.01675">
        <ele>28.91</ele>
        <time>2024-09-24T09:36:08.000Z</time>
      </trkpt>
      <trkpt lat="42.28144" lon="3.01652">
        <ele>28.91</ele>
        <time>2024-09-24T09:36:13.000Z</time>
      </trkpt>
      <trkpt lat="42.28137" lon="3.01628">
        <ele>28.92</ele>
        <time>2024-09-24T09:36:18.000Z</time>
      </trkpt>
      <trkpt lat="42.2813" lon="3.01602">
        <ele>28.94</ele>
        <time>2024-09-24T09:36:23.000Z</time>
      </trkpt>
      <trkpt lat="42.28123" lon="3.01577">
        <ele>28.92</ele>
        <time>2024-09-24T09:36:28.000Z</time>
      </trkpt>
      <trkpt lat="42.28115" lon="3.01551">
        <ele>28.87</ele>
        <time>2024-09-24T09:36:33.000Z</time>
      </trkpt>
      <trkpt lat="42.28107" lon="3.01525">
        <ele>28.79</ele>
        <time>2024-09-24T09:36:38.000Z</time>
      </trkpt>
      <trkpt lat="42.28099" lon="3.01498">
        <ele>28.73</ele>
        <time>2024-09-24T09:36:43.000Z</time>
      </trkpt>
      <trkpt lat="42.28091" lon="3.01471">
        <ele>28.69</ele>
        <time>2024-09-24T09:36:48.000Z</time>
      </trkpt>
      <trkpt lat="42.28084" lon="3.01446">
        <ele>28.65</ele>
        <time>2024-09-24T09:36:53.000Z</time>
      </trkpt>
      <trkpt lat="42.28077" lon="3.0142">
        <ele>28.63</ele>
        <time>2024-09-24T09:36:58.000Z</time>
      </trkpt>
      <trkpt lat="42.28072" lon="3.01395">
        <ele>28.61</ele>
        <time>2024-09-24T09:37:03.000Z</time>
      </trkpt>
      <trkpt lat="42.28067" lon="3.01367">
        <ele>28.59</ele>
        <time>2024-09-24T09:37:08.000Z</time>
      </trkpt>
      <trkpt lat="42.28061" lon="3.0134">
        <ele>28.58</ele>
        <time>2024-09-24T09:37:13.000Z</time>
      </trkpt>
      <trkpt lat="42.28056" lon="3.01312">
        <ele>28.57</ele>
        <time>2024-09-24T09:37:18.000Z</time>
      </trkpt>
      <trkpt lat="42.2805" lon="3.01284">
        <ele>28.58</ele>
        <time>2024-09-24T09:37:23.000Z</time>
      </trkpt>
      <trkpt lat="42.28046" lon="3.01259">
        <ele>28.59</ele>
        <time>2024-09-24T09:37:28.000Z</time>
      </trkpt>
      <trkpt lat="42.28042" lon="3.01232">
        <ele>28.63</ele>
        <time>2024-09-24T09:37:33.000Z</time>
      </trkpt>
      <trkpt lat="42.28042" lon="3.01209">
        <ele>28.63</ele>
        <time>2024-09-24T09:37:38.000Z</time>
      </trkpt>
      <trkpt lat="42.28042" lon="3.01188">
        <ele>28.64</ele>
        <time>2024-09-24T09:37:43.000Z</time>
      </trkpt>
      <trkpt lat="42.28042" lon="3.01167">
        <ele>28.65</ele>
        <time>2024-09-24T09:37:48.000Z</time>
      </trkpt>
      <trkpt lat="42.28041" lon="3.01149">
        <ele>28.67</ele>
        <time>2024-09-24T09:37:53.000Z</time>
      </trkpt>
      <trkpt lat="42.28042" lon="3.01132">
        <ele>28.68</ele>
        <time>2024-09-24T09:37:58.000Z</time>
      </trkpt>
      <trkpt lat="42.28042" lon="3.01112">
        <ele>28.7</ele>
        <time>2024-09-24T09:38:03.000Z</time>
      </trkpt>
      <trkpt lat="42.2804" lon="3.01092">
        <ele>28.72</ele>
        <time>2024-09-24T09:38:08.000Z</time>
      </trkpt>
      <trkpt lat="42.28037" lon="3.01074">
        <ele>28.74</ele>
        <time>2024-09-24T09:38:13.000Z</time>
      </trkpt>
      <trkpt lat="42.28031" lon="3.01055">
        <ele>28.76</ele>
        <time>2024-09-24T09:38:18.000Z</time>
      </trkpt>
      <trkpt lat="42.28024" lon="3.01036">
        <ele>28.77</ele>
        <time>2024-09-24T09:38:23.000Z</time>
      </trkpt>
      <trkpt lat="42.28018" lon="3.01015">
        <ele>28.79</ele>
        <time>2024-09-24T09:38:28.000Z</time>
      </trkpt>
      <trkpt lat="42.28011" lon="3.00995">
        <ele>28.8</ele>
        <time>2024-09-24T09:38:33.000Z</time>
      </trkpt>
      <trkpt lat="42.28004" lon="3.00973">
        <ele>28.82</ele>
        <time>2024-09-24T09:38:38.000Z</time>
      </trkpt>
      <trkpt lat="42.28" lon="3.00949">
        <ele>28.83</ele>
        <time>2024-09-24T09:38:43.000Z</time>
      </trkpt>
      <trkpt lat="42.27997" lon="3.00924">
        <ele>28.88</ele>
        <time>2024-09-24T09:38:48.000Z</time>
      </trkpt>
      <trkpt lat="42.27993" lon="3.00898">
        <ele>28.95</ele>
        <time>2024-09-24T09:38:53.000Z</time>
      </trkpt>
      <trkpt lat="42.27989" lon="3.00873">
        <ele>29.02</ele>
        <time>2024-09-24T09:38:58.000Z</time>
      </trkpt>
      <trkpt lat="42.27983" lon="3.00848">
        <ele>29.17</ele>
        <time>2024-09-24T09:39:03.000Z</time>
      </trkpt>
      <trkpt lat="42.27977" lon="3.00824">
        <ele>29.21</ele>
        <time>2024-09-24T09:39:08.000Z</time>
      </trkpt>
      <trkpt lat="42.27968" lon="3.00802">
        <ele>29.22</ele>
        <time>2024-09-24T09:39:13.000Z</time>
      </trkpt>
      <trkpt lat="42.27958" lon="3.00781">
        <ele>29.29</ele>
        <time>2024-09-24T09:39:18.000Z</time>
      </trkpt>
      <trkpt lat="42.27948" lon="3.00758">
        <ele>29.38</ele>
        <time>2024-09-24T09:39:23.000Z</time>
      </trkpt>
      <trkpt lat="42.2794" lon="3.00735">
        <ele>29.4</ele>
        <time>2024-09-24T09:39:28.000Z</time>
      </trkpt>
      <trkpt lat="42.27936" lon="3.00708">
        <ele>29.41</ele>
        <time>2024-09-24T09:39:33.000Z</time>
      </trkpt>
      <trkpt lat="42.27934" lon="3.00682">
        <ele>29.45</ele>
        <time>2024-09-24T09:39:38.000Z</time>
      </trkpt>
      <trkpt lat="42.27927" lon="3.00656">
        <ele>29.5</ele>
        <time>2024-09-24T09:39:43.000Z</time>
      </trkpt>
      <trkpt lat="42.27916" lon="3.00633">
        <ele>29.48</ele>
        <time>2024-09-24T09:39:48.000Z</time>
      </trkpt>
      <trkpt lat="42.27902" lon="3.00613">
        <ele>29.47</ele>
        <time>2024-09-24T09:39:53.000Z</time>
      </trkpt>
      <trkpt lat="42.27887" lon="3.00594">
        <ele>29.53</ele>
        <time>2024-09-24T09:39:58.000Z</time>
      </trkpt>
      <trkpt lat="42.27874" lon="3.00577">
        <ele>29.55</ele>
        <time>2024-09-24T09:40:03.000Z</time>
      </trkpt>
      <trkpt lat="42.2786" lon="3.00558">
        <ele>29.63</ele>
        <time>2024-09-24T09:40:08.000Z</time>
      </trkpt>
      <trkpt lat="42.27845" lon="3.0054">
        <ele>29.69</ele>
        <time>2024-09-24T09:40:13.000Z</time>
      </trkpt>
      <trkpt lat="42.2783" lon="3.00522">
        <ele>29.72</ele>
        <time>2024-09-24T09:40:18.000Z</time>
      </trkpt>
      <trkpt lat="42.27818" lon="3.00506">
        <ele>29.73</ele>
        <time>2024-09-24T09:40:23.000Z</time>
      </trkpt>
      <trkpt lat="42.27807" lon="3.0049">
        <ele>29.74</ele>
        <time>2024-09-24T09:40:28.000Z</time>
      </trkpt>
      <trkpt lat="42.27798" lon="3.00471">
        <ele>29.75</ele>
        <time>2024-09-24T09:40:33.000Z</time>
      </trkpt>
      <trkpt lat="42.27791" lon="3.00448">
        <ele>29.77</ele>
        <time>2024-09-24T09:40:38.000Z</time>
      </trkpt>
      <trkpt lat="42.27785" lon="3.00424">
        <ele>29.81</ele>
        <time>2024-09-24T09:40:43.000Z</time>
      </trkpt>
      <trkpt lat="42.27777" lon="3.00398">
        <ele>29.79</ele>
        <time>2024-09-24T09:40:48.000Z</time>
      </trkpt>
      <trkpt lat="42.27769" lon="3.00372">
        <ele>29.78</ele>
        <time>2024-09-24T09:40:53.000Z</time>
      </trkpt>
      <trkpt lat="42.2776" lon="3.00348">
        <ele>29.77</ele>
        <time>2024-09-24T09:40:58.000Z</time>
      </trkpt>
      <trkpt lat="42.27753" lon="3.00326">
        <ele>29.77</ele>
        <time>2024-09-24T09:41:03.000Z</time>
      </trkpt>
      <trkpt lat="42.27745" lon="3.00307">
        <ele>29.77</ele>
        <time>2024-09-24T09:41:08.000Z</time>
      </trkpt>
      <trkpt lat="42.27739" lon="3.00289">
        <ele>29.77</ele>
        <time>2024-09-24T09:41:13.000Z</time>
      </trkpt>
      <trkpt lat="42.27733" lon="3.00269">
        <ele>29.76</ele>
        <time>2024-09-24T09:41:18.000Z</time>
      </trkpt>
      <trkpt lat="42.27725" lon="3.00244">
        <ele>29.76</ele>
        <time>2024-09-24T09:41:23.000Z</time>
      </trkpt>
      <trkpt lat="42.27715" lon="3.00218">
        <ele>29.76</ele>
        <time>2024-09-24T09:41:28.000Z</time>
      </trkpt>
      <trkpt lat="42.27707" lon="3.0019">
        <ele>29.75</ele>
        <time>2024-09-24T09:41:33.000Z</time>
      </trkpt>
      <trkpt lat="42.27697" lon="3.00162">
        <ele>29.76</ele>
        <time>2024-09-24T09:41:38.000Z</time>
      </trkpt>
      <trkpt lat="42.27688" lon="3.00134">
        <ele>29.75</ele>
        <time>2024-09-24T09:41:43.000Z</time>
      </trkpt>
      <trkpt lat="42.27679" lon="3.00108">
        <ele>29.74</ele>
        <time>2024-09-24T09:41:48.000Z</time>
      </trkpt>
      <trkpt lat="42.27671" lon="3.00082">
        <ele>29.75</ele>
        <time>2024-09-24T09:41:53.000Z</time>
      </trkpt>
      <trkpt lat="42.27663" lon="3.00058">
        <ele>29.76</ele>
        <time>2024-09-24T09:41:58.000Z</time>
      </trkpt>
      <trkpt lat="42.27658" lon="3.00036">
        <ele>29.76</ele>
        <time>2024-09-24T09:42:03.000Z</time>
      </trkpt>
      <trkpt lat="42.27655" lon="3.00016">
        <ele>29.77</ele>
        <time>2024-09-24T09:42:08.000Z</time>
      </trkpt>
      <trkpt lat="42.27652" lon="3.00004">
        <ele>29.78</ele>
        <time>2024-09-24T09:42:13.000Z</time>
      </trkpt>
      <trkpt lat="42.27643" lon="2.99998">
        <ele>29.8</ele>
        <time>2024-09-24T09:42:18.000Z</time>
      </trkpt>
      <trkpt lat="42.27631" lon="2.99993">
        <ele>29.83</ele>
        <time>2024-09-24T09:42:23.000Z</time>
      </trkpt>
      <trkpt lat="42.27622" lon="2.99987">
        <ele>30.06</ele>
        <time>2024-09-24T09:43:54.999Z</time>
      </trkpt>
      <trkpt lat="42.27612" lon="2.99982">
        <ele>30.16</ele>
        <time>2024-09-24T09:43:59.999Z</time>
      </trkpt>
      <trkpt lat="42.27597" lon="2.99979">
        <ele>30.25</ele>
        <time>2024-09-24T09:44:04.999Z</time>
      </trkpt>
      <trkpt lat="42.27573" lon="2.99976">
        <ele>30.8</ele>
        <time>2024-09-24T09:44:09.999Z</time>
      </trkpt>
      <trkpt lat="42.27552" lon="2.99957">
        <ele>31.04</ele>
        <time>2024-09-24T09:44:14.999Z</time>
      </trkpt>
      <trkpt lat="42.27532" lon="2.9994">
        <ele>31.17</ele>
        <time>2024-09-24T09:44:19.999Z</time>
      </trkpt>
      <trkpt lat="42.27509" lon="2.99934">
        <ele>31.33</ele>
        <time>2024-09-24T09:44:24.999Z</time>
      </trkpt>
      <trkpt lat="42.27487" lon="2.99928">
        <ele>31.42</ele>
        <time>2024-09-24T09:44:29.999Z</time>
      </trkpt>
      <trkpt lat="42.27468" lon="2.99922">
        <ele>31.49</ele>
        <time>2024-09-24T09:44:34.999Z</time>
      </trkpt>
      <trkpt lat="42.27449" lon="2.99912">
        <ele>31.5</ele>
        <time>2024-09-24T09:44:39.999Z</time>
      </trkpt>
      <trkpt lat="42.27428" lon="2.99899">
        <ele>31.45</ele>
        <time>2024-09-24T09:44:44.999Z</time>
      </trkpt>
      <trkpt lat="42.2741" lon="2.99882">
        <ele>31.4</ele>
        <time>2024-09-24T09:44:49.999Z</time>
      </trkpt>
      <trkpt lat="42.27392" lon="2.99866">
        <ele>31.36</ele>
        <time>2024-09-24T09:44:54.999Z</time>
      </trkpt>
      <trkpt lat="42.27374" lon="2.99851">
        <ele>31.34</ele>
        <time>2024-09-24T09:44:59.999Z</time>
      </trkpt>
      <trkpt lat="42.27357" lon="2.99836">
        <ele>31.3</ele>
        <time>2024-09-24T09:45:04.999Z</time>
      </trkpt>
      <trkpt lat="42.27339" lon="2.9982">
        <ele>31.3</ele>
        <time>2024-09-24T09:45:09.999Z</time>
      </trkpt>
      <trkpt lat="42.27314" lon="2.99811">
        <ele>31.24</ele>
        <time>2024-09-24T09:45:14.999Z</time>
      </trkpt>
      <trkpt lat="42.27295" lon="2.99799">
        <ele>31.22</ele>
        <time>2024-09-24T09:45:19.999Z</time>
      </trkpt>
      <trkpt lat="42.27274" lon="2.99788">
        <ele>31.24</ele>
        <time>2024-09-24T09:45:24.999Z</time>
      </trkpt>
      <trkpt lat="42.27253" lon="2.99779">
        <ele>31.28</ele>
        <time>2024-09-24T09:45:29.999Z</time>
      </trkpt>
      <trkpt lat="42.27235" lon="2.99768">
        <ele>31.28</ele>
        <time>2024-09-24T09:45:34.999Z</time>
      </trkpt>
      <trkpt lat="42.27216" lon="2.99759">
        <ele>31.3</ele>
        <time>2024-09-24T09:45:39.999Z</time>
      </trkpt>
      <trkpt lat="42.27199" lon="2.99751">
        <ele>31.32</ele>
        <time>2024-09-24T09:45:44.999Z</time>
      </trkpt>
      <trkpt lat="42.27187" lon="2.99731">
        <ele>31.36</ele>
        <time>2024-09-24T09:45:49.999Z</time>
      </trkpt>
      <trkpt lat="42.27177" lon="2.99704">
        <ele>31.39</ele>
        <time>2024-09-24T09:45:54.999Z</time>
      </trkpt>
      <trkpt lat="42.27168" lon="2.99676">
        <ele>31.37</ele>
        <time>2024-09-24T09:45:59.999Z</time>
      </trkpt>
      <trkpt lat="42.27159" lon="2.99645">
        <ele>31.35</ele>
        <time>2024-09-24T09:46:04.999Z</time>
      </trkpt>
      <trkpt lat="42.27149" lon="2.99614">
        <ele>31.34</ele>
        <time>2024-09-24T09:46:09.999Z</time>
      </trkpt>
      <trkpt lat="42.27139" lon="2.99584">
        <ele>31.31</ele>
        <time>2024-09-24T09:46:14.999Z</time>
      </trkpt>
      <trkpt lat="42.2713" lon="2.99557">
        <ele>31.27</ele>
        <time>2024-09-24T09:46:19.999Z</time>
      </trkpt>
      <trkpt lat="42.27121" lon="2.99534">
        <ele>31.27</ele>
        <time>2024-09-24T09:46:24.999Z</time>
      </trkpt>
      <trkpt lat="42.27112" lon="2.99515">
        <ele>31.28</ele>
        <time>2024-09-24T09:46:29.999Z</time>
      </trkpt>
      <trkpt lat="42.27102" lon="2.99495">
        <ele>31.27</ele>
        <time>2024-09-24T09:46:34.999Z</time>
      </trkpt>
      <trkpt lat="42.27093" lon="2.99477">
        <ele>31.25</ele>
        <time>2024-09-24T09:46:39.999Z</time>
      </trkpt>
      <trkpt lat="42.27087" lon="2.99454">
        <ele>31.22</ele>
        <time>2024-09-24T09:46:44.999Z</time>
      </trkpt>
      <trkpt lat="42.27079" lon="2.99432">
        <ele>31.19</ele>
        <time>2024-09-24T09:46:49.999Z</time>
      </trkpt>
      <trkpt lat="42.27072" lon="2.9941">
        <ele>31.16</ele>
        <time>2024-09-24T09:46:54.999Z</time>
      </trkpt>
      <trkpt lat="42.27063" lon="2.99386">
        <ele>31.13</ele>
        <time>2024-09-24T09:46:59.999Z</time>
      </trkpt>
      <trkpt lat="42.27052" lon="2.99365">
        <ele>31.03</ele>
        <time>2024-09-24T09:47:04.999Z</time>
      </trkpt>
      <trkpt lat="42.27047" lon="2.99352">
        <ele>30.99</ele>
        <time>2024-09-24T09:47:09.999Z</time>
      </trkpt>
      <trkpt lat="42.27048" lon="2.99337">
        <ele>30.94</ele>
        <time>2024-09-24T09:47:14.999Z</time>
      </trkpt>
      <trkpt lat="42.27051" lon="2.99317">
        <ele>30.89</ele>
        <time>2024-09-24T09:47:19.999Z</time>
      </trkpt>
      <trkpt lat="42.27053" lon="2.99296">
        <ele>30.83</ele>
        <time>2024-09-24T09:47:24.999Z</time>
      </trkpt>
      <trkpt lat="42.27057" lon="2.99275">
        <ele>30.75</ele>
        <time>2024-09-24T09:47:29.999Z</time>
      </trkpt>
      <trkpt lat="42.27062" lon="2.99255">
        <ele>30.66</ele>
        <time>2024-09-24T09:47:34.999Z</time>
      </trkpt>
      <trkpt lat="42.27066" lon="2.99234">
        <ele>30.55</ele>
        <time>2024-09-24T09:47:39.999Z</time>
      </trkpt>
      <trkpt lat="42.27064" lon="2.99203">
        <ele>29.76</ele>
        <time>2024-09-24T09:47:44.999Z</time>
      </trkpt>
      <trkpt lat="42.27059" lon="2.99175">
        <ele>29.21</ele>
        <time>2024-09-24T09:47:49.999Z</time>
      </trkpt>
      <trkpt lat="42.2705" lon="2.99148">
        <ele>29</ele>
        <time>2024-09-24T09:47:54.999Z</time>
      </trkpt>
      <trkpt lat="42.27044" lon="2.99125">
        <ele>29</ele>
        <time>2024-09-24T09:47:59.999Z</time>
      </trkpt>
      <trkpt lat="42.27041" lon="2.99108">
        <ele>29.01</ele>
        <time>2024-09-24T09:48:04.999Z</time>
      </trkpt>
      <trkpt lat="42.27039" lon="2.99087">
        <ele>29.03</ele>
        <time>2024-09-24T09:48:09.999Z</time>
      </trkpt>
      <trkpt lat="42.27033" lon="2.99072">
        <ele>29.06</ele>
        <time>2024-09-24T09:48:14.999Z</time>
      </trkpt>
      <trkpt lat="42.27028" lon="2.99057">
        <ele>29.11</ele>
        <time>2024-09-24T09:48:22.999Z</time>
      </trkpt>
      <trkpt lat="42.27022" lon="2.99036">
        <ele>29.13</ele>
        <time>2024-09-24T09:48:27.999Z</time>
      </trkpt>
      <trkpt lat="42.27013" lon="2.99012">
        <ele>29.24</ele>
        <time>2024-09-24T09:48:32.999Z</time>
      </trkpt>
      <trkpt lat="42.27003" lon="2.98987">
        <ele>29.3</ele>
        <time>2024-09-24T09:48:37.999Z</time>
      </trkpt>
      <trkpt lat="42.26993" lon="2.98964">
        <ele>29.32</ele>
        <time>2024-09-24T09:48:42.999Z</time>
      </trkpt>
      <trkpt lat="42.26983" lon="2.98939">
        <ele>29.37</ele>
        <time>2024-09-24T09:48:47.999Z</time>
      </trkpt>
      <trkpt lat="42.26974" lon="2.98919">
        <ele>29.37</ele>
        <time>2024-09-24T09:48:52.999Z</time>
      </trkpt>
      <trkpt lat="42.26967" lon="2.98899">
        <ele>29.38</ele>
        <time>2024-09-24T09:48:57.999Z</time>
      </trkpt>
      <trkpt lat="42.2696" lon="2.98877">
        <ele>29.39</ele>
        <time>2024-09-24T09:49:02.999Z</time>
      </trkpt>
      <trkpt lat="42.26953" lon="2.98856">
        <ele>29.4</ele>
        <time>2024-09-24T09:49:07.999Z</time>
      </trkpt>
      <trkpt lat="42.26948" lon="2.98837">
        <ele>29.42</ele>
        <time>2024-09-24T09:49:12.999Z</time>
      </trkpt>
      <trkpt lat="42.26941" lon="2.98815">
        <ele>29.48</ele>
        <time>2024-09-24T09:49:17.999Z</time>
      </trkpt>
      <trkpt lat="42.26932" lon="2.98792">
        <ele>29.61</ele>
        <time>2024-09-24T09:49:22.999Z</time>
      </trkpt>
      <trkpt lat="42.26925" lon="2.98773">
        <ele>29.62</ele>
        <time>2024-09-24T09:49:27.999Z</time>
      </trkpt>
      <trkpt lat="42.26927" lon="2.98751">
        <ele>29.63</ele>
        <time>2024-09-24T09:49:32.999Z</time>
      </trkpt>
      <trkpt lat="42.26931" lon="2.9873">
        <ele>29.67</ele>
        <time>2024-09-24T09:49:37.999Z</time>
      </trkpt>
      <trkpt lat="42.26942" lon="2.98702">
        <ele>29.8</ele>
        <time>2024-09-24T09:49:42.999Z</time>
      </trkpt>
      <trkpt lat="42.26944" lon="2.98671">
        <ele>29.9</ele>
        <time>2024-09-24T09:49:47.999Z</time>
      </trkpt>
      <trkpt lat="42.26948" lon="2.98644">
        <ele>30.01</ele>
        <time>2024-09-24T09:49:52.999Z</time>
      </trkpt>
      <trkpt lat="42.26944" lon="2.98613">
        <ele>30.12</ele>
        <time>2024-09-24T09:49:57.999Z</time>
      </trkpt>
      <trkpt lat="42.26943" lon="2.9858">
        <ele>30.25</ele>
        <time>2024-09-24T09:50:02.999Z</time>
      </trkpt>
      <trkpt lat="42.26941" lon="2.98547">
        <ele>30.41</ele>
        <time>2024-09-24T09:50:07.999Z</time>
      </trkpt>
      <trkpt lat="42.2694" lon="2.98515">
        <ele>30.59</ele>
        <time>2024-09-24T09:50:12.999Z</time>
      </trkpt>
      <trkpt lat="42.26938" lon="2.98482">
        <ele>30.78</ele>
        <time>2024-09-24T09:50:17.999Z</time>
      </trkpt>
      <trkpt lat="42.26938" lon="2.9845">
        <ele>30.98</ele>
        <time>2024-09-24T09:50:22.999Z</time>
      </trkpt>
      <trkpt lat="42.26937" lon="2.98418">
        <ele>31.21</ele>
        <time>2024-09-24T09:50:27.999Z</time>
      </trkpt>
      <trkpt lat="42.26935" lon="2.98386">
        <ele>31.44</ele>
        <time>2024-09-24T09:50:32.999Z</time>
      </trkpt>
      <trkpt lat="42.26933" lon="2.98356">
        <ele>31.6</ele>
        <time>2024-09-24T09:50:37.999Z</time>
      </trkpt>
      <trkpt lat="42.26931" lon="2.9833">
        <ele>31.76</ele>
        <time>2024-09-24T09:50:42.999Z</time>
      </trkpt>
      <trkpt lat="42.26931" lon="2.98301">
        <ele>31.95</ele>
        <time>2024-09-24T09:50:47.999Z</time>
      </trkpt>
      <trkpt lat="42.26927" lon="2.98275">
        <ele>32.11</ele>
        <time>2024-09-24T09:50:52.999Z</time>
      </trkpt>
      <trkpt lat="42.26926" lon="2.98247">
        <ele>32.25</ele>
        <time>2024-09-24T09:50:57.999Z</time>
      </trkpt>
      <trkpt lat="42.26926" lon="2.98215">
        <ele>32.47</ele>
        <time>2024-09-24T09:51:02.999Z</time>
      </trkpt>
      <trkpt lat="42.26926" lon="2.98181">
        <ele>32.75</ele>
        <time>2024-09-24T09:51:07.999Z</time>
      </trkpt>
      <trkpt lat="42.26926" lon="2.98147">
        <ele>33.07</ele>
        <time>2024-09-24T09:51:12.999Z</time>
      </trkpt>
      <trkpt lat="42.26925" lon="2.98116">
        <ele>33.3</ele>
        <time>2024-09-24T09:51:17.999Z</time>
      </trkpt>
      <trkpt lat="42.26927" lon="2.98089">
        <ele>33.48</ele>
        <time>2024-09-24T09:51:22.999Z</time>
      </trkpt>
      <trkpt lat="42.26928" lon="2.98065">
        <ele>33.59</ele>
        <time>2024-09-24T09:51:27.999Z</time>
      </trkpt>
      <trkpt lat="42.26931" lon="2.98042">
        <ele>33.63</ele>
        <time>2024-09-24T09:51:32.999Z</time>
      </trkpt>
      <trkpt lat="42.26931" lon="2.98022">
        <ele>33.67</ele>
        <time>2024-09-24T09:51:37.999Z</time>
      </trkpt>
      <trkpt lat="42.26933" lon="2.98002">
        <ele>33.71</ele>
        <time>2024-09-24T09:51:42.999Z</time>
      </trkpt>
      <trkpt lat="42.26929" lon="2.97983">
        <ele>33.75</ele>
        <time>2024-09-24T09:51:47.999Z</time>
      </trkpt>
      <trkpt lat="42.26933" lon="2.97961">
        <ele>33.85</ele>
        <time>2024-09-24T09:51:52.999Z</time>
      </trkpt>
      <trkpt lat="42.26936" lon="2.97932">
        <ele>33.91</ele>
        <time>2024-09-24T09:51:57.999Z</time>
      </trkpt>
      <trkpt lat="42.26938" lon="2.97899">
        <ele>34.04</ele>
        <time>2024-09-24T09:52:02.999Z</time>
      </trkpt>
      <trkpt lat="42.2694" lon="2.97869">
        <ele>34.26</ele>
        <time>2024-09-24T09:52:07.999Z</time>
      </trkpt>
      <trkpt lat="42.26942" lon="2.9784">
        <ele>34.43</ele>
        <time>2024-09-24T09:52:12.999Z</time>
      </trkpt>
      <trkpt lat="42.26948" lon="2.97814">
        <ele>34.5</ele>
        <time>2024-09-24T09:52:17.999Z</time>
      </trkpt>
      <trkpt lat="42.26954" lon="2.97796">
        <ele>34.54</ele>
        <time>2024-09-24T09:52:22.999Z</time>
      </trkpt>
      <trkpt lat="42.26959" lon="2.97778">
        <ele>34.59</ele>
        <time>2024-09-24T09:52:27.999Z</time>
      </trkpt>
      <trkpt lat="42.26964" lon="2.97761">
        <ele>34.72</ele>
        <time>2024-09-24T09:52:32.999Z</time>
      </trkpt>
      <trkpt lat="42.26981" lon="2.97741">
        <ele>35.12</ele>
        <time>2024-09-24T09:52:37.999Z</time>
      </trkpt>
      <trkpt lat="42.26986" lon="2.97714">
        <ele>35.26</ele>
        <time>2024-09-24T09:52:42.999Z</time>
      </trkpt>
      <trkpt lat="42.26978" lon="2.97693">
        <ele>35.29</ele>
        <time>2024-09-24T09:52:47.999Z</time>
      </trkpt>
      <trkpt lat="42.26976" lon="2.97672">
        <ele>35.31</ele>
        <time>2024-09-24T09:52:52.999Z</time>
      </trkpt>
      <trkpt lat="42.26978" lon="2.97652">
        <ele>35.34</ele>
        <time>2024-09-24T09:52:57.999Z</time>
      </trkpt>
      <trkpt lat="42.26979" lon="2.97631">
        <ele>35.38</ele>
        <time>2024-09-24T09:53:02.999Z</time>
      </trkpt>
      <trkpt lat="42.26979" lon="2.97604">
        <ele>35.43</ele>
        <time>2024-09-24T09:53:07.999Z</time>
      </trkpt>
      <trkpt lat="42.26979" lon="2.9758">
        <ele>35.5</ele>
        <time>2024-09-24T09:53:12.999Z</time>
      </trkpt>
      <trkpt lat="42.26977" lon="2.97556">
        <ele>35.57</ele>
        <time>2024-09-24T09:53:17.999Z</time>
      </trkpt>
      <trkpt lat="42.26976" lon="2.97534">
        <ele>35.64</ele>
        <time>2024-09-24T09:53:22.999Z</time>
      </trkpt>
      <trkpt lat="42.26973" lon="2.97509">
        <ele>35.71</ele>
        <time>2024-09-24T09:53:27.999Z</time>
      </trkpt>
      <trkpt lat="42.26975" lon="2.97488">
        <ele>35.8</ele>
        <time>2024-09-24T09:53:32.999Z</time>
      </trkpt>
      <trkpt lat="42.2697" lon="2.97474">
        <ele>36.02</ele>
        <time>2024-09-24T09:54:13.999Z</time>
      </trkpt>
      <trkpt lat="42.26969" lon="2.97451">
        <ele>36.09</ele>
        <time>2024-09-24T09:54:18.999Z</time>
      </trkpt>
      <trkpt lat="42.26968" lon="2.97421">
        <ele>36.48</ele>
        <time>2024-09-24T09:54:23.999Z</time>
      </trkpt>
      <trkpt lat="42.26965" lon="2.97393">
        <ele>36.69</ele>
        <time>2024-09-24T09:54:28.999Z</time>
      </trkpt>
      <trkpt lat="42.26963" lon="2.97363">
        <ele>36.9</ele>
        <time>2024-09-24T09:54:33.999Z</time>
      </trkpt>
      <trkpt lat="42.2696" lon="2.97337">
        <ele>37.03</ele>
        <time>2024-09-24T09:54:38.999Z</time>
      </trkpt>
      <trkpt lat="42.26958" lon="2.97312">
        <ele>37.11</ele>
        <time>2024-09-24T09:54:43.999Z</time>
      </trkpt>
      <trkpt lat="42.26957" lon="2.97286">
        <ele>37.32</ele>
        <time>2024-09-24T09:54:48.999Z</time>
      </trkpt>
      <trkpt lat="42.26959" lon="2.9726">
        <ele>37.42</ele>
        <time>2024-09-24T09:54:53.999Z</time>
      </trkpt>
      <trkpt lat="42.26959" lon="2.97227">
        <ele>37.5</ele>
        <time>2024-09-24T09:54:58.999Z</time>
      </trkpt>
      <trkpt lat="42.26957" lon="2.97195">
        <ele>37.6</ele>
        <time>2024-09-24T09:55:03.999Z</time>
      </trkpt>
      <trkpt lat="42.26954" lon="2.97163">
        <ele>37.59</ele>
        <time>2024-09-24T09:55:08.999Z</time>
      </trkpt>
      <trkpt lat="42.2695" lon="2.97133">
        <ele>37.56</ele>
        <time>2024-09-24T09:55:13.999Z</time>
      </trkpt>
      <trkpt lat="42.26948" lon="2.9711">
        <ele>37.56</ele>
        <time>2024-09-24T09:55:18.999Z</time>
      </trkpt>
      <trkpt lat="42.26943" lon="2.97086">
        <ele>37.55</ele>
        <time>2024-09-24T09:55:24.000Z</time>
      </trkpt>
      <trkpt lat="42.26938" lon="2.97071">
        <ele>37.52</ele>
        <time>2024-09-24T09:55:29.000Z</time>
      </trkpt>
      <trkpt lat="42.26937" lon="2.97056">
        <ele>37.5</ele>
        <time>2024-09-24T09:55:34.000Z</time>
      </trkpt>
      <trkpt lat="42.26929" lon="2.97044">
        <ele>37.49</ele>
        <time>2024-09-24T09:55:39.000Z</time>
      </trkpt>
      <trkpt lat="42.26921" lon="2.97037">
        <ele>37.5</ele>
        <time>2024-09-24T09:56:08.000Z</time>
      </trkpt>
      <trkpt lat="42.26914" lon="2.97028">
        <ele>37.69</ele>
        <time>2024-09-24T09:56:46.000Z</time>
      </trkpt>
      <trkpt lat="42.26902" lon="2.97017">
        <ele>37.79</ele>
        <time>2024-09-24T09:56:51.000Z</time>
      </trkpt>
      <trkpt lat="42.26889" lon="2.97007">
        <ele>37.89</ele>
        <time>2024-09-24T09:56:56.000Z</time>
      </trkpt>
      <trkpt lat="42.26877" lon="2.96994">
        <ele>37.98</ele>
        <time>2024-09-24T09:57:01.000Z</time>
      </trkpt>
      <trkpt lat="42.26864" lon="2.96985">
        <ele>38.08</ele>
        <time>2024-09-24T09:57:06.000Z</time>
      </trkpt>
      <trkpt lat="42.26846" lon="2.96975">
        <ele>38.18</ele>
        <time>2024-09-24T09:57:11.000Z</time>
      </trkpt>
      <trkpt lat="42.26832" lon="2.96965">
        <ele>38.28</ele>
        <time>2024-09-24T09:57:16.000Z</time>
      </trkpt>
      <trkpt lat="42.26816" lon="2.96955">
        <ele>38.37</ele>
        <time>2024-09-24T09:57:21.000Z</time>
      </trkpt>
      <trkpt lat="42.26801" lon="2.96946">
        <ele>38.45</ele>
        <time>2024-09-24T09:57:26.000Z</time>
      </trkpt>
      <trkpt lat="42.26783" lon="2.96937">
        <ele>38.54</ele>
        <time>2024-09-24T09:57:31.000Z</time>
      </trkpt>
      <trkpt lat="42.26764" lon="2.96929">
        <ele>38.65</ele>
        <time>2024-09-24T09:57:36.000Z</time>
      </trkpt>
      <trkpt lat="42.26747" lon="2.96922">
        <ele>38.99</ele>
        <time>2024-09-24T09:57:41.000Z</time>
      </trkpt>
      <trkpt lat="42.2673" lon="2.96914">
        <ele>39.1</ele>
        <time>2024-09-24T09:57:46.000Z</time>
      </trkpt>
      <trkpt lat="42.26713" lon="2.96907">
        <ele>39.45</ele>
        <time>2024-09-24T09:57:51.000Z</time>
      </trkpt>
      <trkpt lat="42.26695" lon="2.96903">
        <ele>39.58</ele>
        <time>2024-09-24T09:57:56.000Z</time>
      </trkpt>
      <trkpt lat="42.26681" lon="2.96898">
        <ele>39.7</ele>
        <time>2024-09-24T09:58:01.000Z</time>
      </trkpt>
      <trkpt lat="42.26667" lon="2.96895">
        <ele>39.81</ele>
        <time>2024-09-24T09:58:06.000Z</time>
      </trkpt>
      <trkpt lat="42.26656" lon="2.96895">
        <ele>39.85</ele>
        <time>2024-09-24T09:58:11.000Z</time>
      </trkpt>
      <trkpt lat="42.26648" lon="2.96887">
        <ele>40.02</ele>
        <time>2024-09-24T09:58:23.000Z</time>
      </trkpt>
      <trkpt lat="42.26645" lon="2.96874">
        <ele>40.14</ele>
        <time>2024-09-24T09:58:30.000Z</time>
      </trkpt>
      <trkpt lat="42.26643" lon="2.96859">
        <ele>40.24</ele>
        <time>2024-09-24T09:58:35.000Z</time>
      </trkpt>
      <trkpt lat="42.26634" lon="2.96855">
        <ele>40.35</ele>
        <time>2024-09-24T09:58:40.000Z</time>
      </trkpt>
      <trkpt lat="42.26624" lon="2.96851">
        <ele>40.6</ele>
        <time>2024-09-24T09:59:03.000Z</time>
      </trkpt>
      <trkpt lat="42.26615" lon="2.96847">
        <ele>40.76</ele>
        <time>2024-09-24T09:59:08.000Z</time>
      </trkpt>
      <trkpt lat="42.26604" lon="2.96848">
        <ele>40.92</ele>
        <time>2024-09-24T09:59:13.000Z</time>
      </trkpt>
      <trkpt lat="42.26594" lon="2.96843">
        <ele>41.08</ele>
        <time>2024-09-24T09:59:18.000Z</time>
      </trkpt>
      <trkpt lat="42.26584" lon="2.96839">
        <ele>41.28</ele>
        <time>2024-09-24T09:59:26.000Z</time>
      </trkpt>
      <trkpt lat="42.26574" lon="2.96839">
        <ele>41.36</ele>
        <time>2024-09-24T09:59:34.000Z</time>
      </trkpt>
      <trkpt lat="42.26565" lon="2.96841">
        <ele>41.45</ele>
        <time>2024-09-24T10:00:14.000Z</time>
      </trkpt>
      <trkpt lat="42.26555" lon="2.96837">
        <ele>41.88</ele>
        <time>2024-09-24T10:00:30.000Z</time>
      </trkpt>
      <trkpt lat="42.26543" lon="2.96843">
        <ele>42.14</ele>
        <time>2024-09-24T10:00:35.000Z</time>
      </trkpt>
      <trkpt lat="42.26532" lon="2.96843">
        <ele>42.4</ele>
        <time>2024-09-24T10:00:40.000Z</time>
      </trkpt>
      <trkpt lat="42.26522" lon="2.96844">
        <ele>42.66</ele>
        <time>2024-09-24T10:00:45.000Z</time>
      </trkpt>
      <trkpt lat="42.26506" lon="2.96843">
        <ele>42.93</ele>
        <time>2024-09-24T10:00:50.000Z</time>
      </trkpt>
      <trkpt lat="42.26488" lon="2.96842">
        <ele>43.19</ele>
        <time>2024-09-24T10:00:55.000Z</time>
      </trkpt>
      <trkpt lat="42.26472" lon="2.96843">
        <ele>43.44</ele>
        <time>2024-09-24T10:01:00.000Z</time>
      </trkpt>
      <trkpt lat="42.26453" lon="2.96841">
        <ele>43.68</ele>
        <time>2024-09-24T10:01:05.000Z</time>
      </trkpt>
      <trkpt lat="42.26434" lon="2.96841">
        <ele>43.91</ele>
        <time>2024-09-24T10:01:10.000Z</time>
      </trkpt>
      <trkpt lat="42.26416" lon="2.96841">
        <ele>44.85</ele>
        <time>2024-09-24T10:01:15.000Z</time>
      </trkpt>
      <trkpt lat="42.26395" lon="2.96843">
        <ele>45.94</ele>
        <time>2024-09-24T10:01:20.000Z</time>
      </trkpt>
      <trkpt lat="42.26375" lon="2.96843">
        <ele>46.56</ele>
        <time>2024-09-24T10:01:25.000Z</time>
      </trkpt>
      <trkpt lat="42.26354" lon="2.96842">
        <ele>46.64</ele>
        <time>2024-09-24T10:01:30.000Z</time>
      </trkpt>
      <trkpt lat="42.26333" lon="2.96843">
        <ele>46.87</ele>
        <time>2024-09-24T10:01:35.000Z</time>
      </trkpt>
      <trkpt lat="42.2631" lon="2.96843">
        <ele>47.01</ele>
        <time>2024-09-24T10:01:40.000Z</time>
      </trkpt>
      <trkpt lat="42.26288" lon="2.96842">
        <ele>47.08</ele>
        <time>2024-09-24T10:01:45.000Z</time>
      </trkpt>
      <trkpt lat="42.26266" lon="2.96841">
        <ele>47.22</ele>
        <time>2024-09-24T10:01:50.000Z</time>
      </trkpt>
      <trkpt lat="42.26244" lon="2.96842">
        <ele>47.47</ele>
        <time>2024-09-24T10:01:55.000Z</time>
      </trkpt>
      <trkpt lat="42.26226" lon="2.96841">
        <ele>47.54</ele>
        <time>2024-09-24T10:02:00.000Z</time>
      </trkpt>
      <trkpt lat="42.26213" lon="2.96851">
        <ele>47.62</ele>
        <time>2024-09-24T10:02:05.000Z</time>
      </trkpt>
      <trkpt lat="42.26202" lon="2.96858">
        <ele>47.71</ele>
        <time>2024-09-24T10:02:10.000Z</time>
      </trkpt>
      <trkpt lat="42.26184" lon="2.96858">
        <ele>47.79</ele>
        <time>2024-09-24T10:02:15.000Z</time>
      </trkpt>
      <trkpt lat="42.26166" lon="2.96858">
        <ele>47.86</ele>
        <time>2024-09-24T10:02:20.000Z</time>
      </trkpt>
      <trkpt lat="42.26148" lon="2.96859">
        <ele>47.88</ele>
        <time>2024-09-24T10:02:25.000Z</time>
      </trkpt>
      <trkpt lat="42.26129" lon="2.9686">
        <ele>47.83</ele>
        <time>2024-09-24T10:02:30.000Z</time>
      </trkpt>
      <trkpt lat="42.26111" lon="2.96863">
        <ele>47.47</ele>
        <time>2024-09-24T10:02:35.000Z</time>
      </trkpt>
      <trkpt lat="42.26091" lon="2.96869">
        <ele>46.98</ele>
        <time>2024-09-24T10:02:40.000Z</time>
      </trkpt>
      <trkpt lat="42.26069" lon="2.96875">
        <ele>45.94</ele>
        <time>2024-09-24T10:02:45.000Z</time>
      </trkpt>
      <trkpt lat="42.2605" lon="2.96881">
        <ele>45.71</ele>
        <time>2024-09-24T10:02:50.000Z</time>
      </trkpt>
      <trkpt lat="42.26033" lon="2.96883">
        <ele>45.46</ele>
        <time>2024-09-24T10:02:55.000Z</time>
      </trkpt>
      <trkpt lat="42.26017" lon="2.96886">
        <ele>45.2</ele>
        <time>2024-09-24T10:03:00.000Z</time>
      </trkpt>
      <trkpt lat="42.26004" lon="2.96885">
        <ele>44.92</ele>
        <time>2024-09-24T10:03:05.000Z</time>
      </trkpt>
      <trkpt lat="42.25995" lon="2.96882">
        <ele>44.55</ele>
        <time>2024-09-24T10:03:11.000Z</time>
      </trkpt>
      <trkpt lat="42.25982" lon="2.96883">
        <ele>44.14</ele>
        <time>2024-09-24T10:03:37.000Z</time>
      </trkpt>
      <trkpt lat="42.25973" lon="2.96887">
        <ele>44</ele>
        <time>2024-09-24T10:04:51.000Z</time>
      </trkpt>
      <trkpt lat="42.25961" lon="2.96892">
        <ele>43.93</ele>
        <time>2024-09-24T10:05:01.000Z</time>
      </trkpt>
      <trkpt lat="42.25956" lon="2.96879">
        <ele>43.92</ele>
        <time>2024-09-24T10:05:06.000Z</time>
      </trkpt>
      <trkpt lat="42.25948" lon="2.96866">
        <ele>43.98</ele>
        <time>2024-09-24T10:05:11.000Z</time>
      </trkpt>
      <trkpt lat="42.25946" lon="2.96842">
        <ele>44.14</ele>
        <time>2024-09-24T10:05:16.000Z</time>
      </trkpt>
      <trkpt lat="42.25942" lon="2.96821">
        <ele>44.32</ele>
        <time>2024-09-24T10:05:21.000Z</time>
      </trkpt>
      <trkpt lat="42.25937" lon="2.96799">
        <ele>44.48</ele>
        <time>2024-09-24T10:05:26.000Z</time>
      </trkpt>
      <trkpt lat="42.2593" lon="2.96778">
        <ele>44.63</ele>
        <time>2024-09-24T10:05:31.000Z</time>
      </trkpt>
      <trkpt lat="42.25925" lon="2.96763">
        <ele>44.77</ele>
        <time>2024-09-24T10:05:36.000Z</time>
      </trkpt>
      <trkpt lat="42.25924" lon="2.96751">
        <ele>45.2</ele>
        <time>2024-09-24T10:06:04.000Z</time>
      </trkpt>
      <trkpt lat="42.25932" lon="2.96743">
        <ele>45.98</ele>
        <time>2024-09-24T10:06:16.000Z</time>
      </trkpt>
      <trkpt lat="42.25945" lon="2.96741">
        <ele>46.29</ele>
        <time>2024-09-24T10:06:21.000Z</time>
      </trkpt>
      <trkpt lat="42.25936" lon="2.96746">
        <ele>48.39</ele>
        <time>2024-09-24T10:07:58.999Z</time>
      </trkpt>
      <trkpt lat="42.25927" lon="2.96747">
        <ele>48.69</ele>
        <time>2024-09-24T10:08:17.999Z</time>
      </trkpt>
      <trkpt lat="42.25925" lon="2.96759">
        <ele>48.96</ele>
        <time>2024-09-24T10:09:23.999Z</time>
      </trkpt>
      <trkpt lat="42.25932" lon="2.9675">
        <ele>49.28</ele>
        <time>2024-09-24T10:09:40.999Z</time>
      </trkpt>
      <trkpt lat="42.25926" lon="2.9674">
        <ele>50.22</ele>
        <time>2024-09-24T10:10:22.999Z</time>
      </trkpt>
      <trkpt lat="42.2593" lon="2.96727">
        <ele>50.3</ele>
        <time>2024-09-24T10:10:31.999Z</time>
      </trkpt>
      <trkpt lat="42.2594" lon="2.96728">
        <ele>50.37</ele>
        <time>2024-09-24T10:10:40.999Z</time>
      </trkpt>
      <trkpt lat="42.25932" lon="2.96722">
        <ele>50.81</ele>
        <time>2024-09-24T10:11:19.999Z</time>
      </trkpt>
      <trkpt lat="42.25921" lon="2.9672">
        <ele>50.88</ele>
        <time>2024-09-24T10:11:26.999Z</time>
      </trkpt>
      <trkpt lat="42.25918" lon="2.96708">
        <ele>50.94</ele>
        <time>2024-09-24T10:11:31.999Z</time>
      </trkpt>
      <trkpt lat="42.25927" lon="2.96723">
        <ele>51.14</ele>
        <time>2024-09-24T10:11:40.999Z</time>
      </trkpt>
      <trkpt lat="42.25917" lon="2.96721">
        <ele>52.11</ele>
        <time>2024-09-24T10:11:52.999Z</time>
      </trkpt>
      <trkpt lat="42.25915" lon="2.96735">
        <ele>52.89</ele>
        <time>2024-09-24T10:12:07.999Z</time>
      </trkpt>
      <trkpt lat="42.25925" lon="2.9675">
        <ele>52.96</ele>
        <time>2024-09-24T10:12:12.999Z</time>
      </trkpt>
      <trkpt lat="42.25934" lon="2.96745">
        <ele>53.94</ele>
        <time>2024-09-24T10:13:36.999Z</time>
      </trkpt>
      <trkpt lat="42.25935" lon="2.96731">
        <ele>54.08</ele>
        <time>2024-09-24T10:13:45.999Z</time>
      </trkpt>
      <trkpt lat="42.25939" lon="2.96716">
        <ele>54.18</ele>
        <time>2024-09-24T10:13:50.999Z</time>
      </trkpt>
      <trkpt lat="42.25955" lon="2.96701">
        <ele>54.31</ele>
        <time>2024-09-24T10:13:55.999Z</time>
      </trkpt>
      <trkpt lat="42.25969" lon="2.96691">
        <ele>54.44</ele>
        <time>2024-09-24T10:14:00.999Z</time>
      </trkpt>
      <trkpt lat="42.25987" lon="2.96679">
        <ele>54.57</ele>
        <time>2024-09-24T10:14:05.999Z</time>
      </trkpt>
      <trkpt lat="42.26006" lon="2.96676">
        <ele>54.68</ele>
        <time>2024-09-24T10:14:10.999Z</time>
      </trkpt>
      <trkpt lat="42.26023" lon="2.96669">
        <ele>54.98</ele>
        <time>2024-09-24T10:14:15.999Z</time>
      </trkpt>
      <trkpt lat="42.26037" lon="2.96658">
        <ele>55.17</ele>
        <time>2024-09-24T10:14:20.999Z</time>
      </trkpt>
      <trkpt lat="42.26052" lon="2.96649">
        <ele>55.31</ele>
        <time>2024-09-24T10:14:25.999Z</time>
      </trkpt>
      <trkpt lat="42.26067" lon="2.96639">
        <ele>55.69</ele>
        <time>2024-09-24T10:14:30.999Z</time>
      </trkpt>
      <trkpt lat="42.2608" lon="2.96625">
        <ele>55.87</ele>
        <time>2024-09-24T10:14:35.999Z</time>
      </trkpt>
      <trkpt lat="42.26096" lon="2.96618">
        <ele>55.94</ele>
        <time>2024-09-24T10:14:40.999Z</time>
      </trkpt>
      <trkpt lat="42.26112" lon="2.9661">
        <ele>55.97</ele>
        <time>2024-09-24T10:14:45.999Z</time>
      </trkpt>
      <trkpt lat="42.26126" lon="2.96601">
        <ele>55.99</ele>
        <time>2024-09-24T10:14:50.999Z</time>
      </trkpt>
      <trkpt lat="42.26139" lon="2.96592">
        <ele>56.01</ele>
        <time>2024-09-24T10:14:55.999Z</time>
      </trkpt>
      <trkpt lat="42.26155" lon="2.96578">
        <ele>56</ele>
        <time>2024-09-24T10:15:00.999Z</time>
      </trkpt>
      <trkpt lat="42.26177" lon="2.9656">
        <ele>55.42</ele>
        <time>2024-09-24T10:15:05.999Z</time>
      </trkpt>
      <trkpt lat="42.26196" lon="2.96547">
        <ele>55.11</ele>
        <time>2024-09-24T10:15:10.999Z</time>
      </trkpt>
      <trkpt lat="42.26215" lon="2.96538">
        <ele>55.13</ele>
        <time>2024-09-24T10:15:15.999Z</time>
      </trkpt>
      <trkpt lat="42.26235" lon="2.96525">
        <ele>55.12</ele>
        <time>2024-09-24T10:15:20.999Z</time>
      </trkpt>
      <trkpt lat="42.26247" lon="2.96521">
        <ele>55.15</ele>
        <time>2024-09-24T10:15:25.999Z</time>
      </trkpt>
      <trkpt lat="42.26237" lon="2.96525">
        <ele>55.4</ele>
        <time>2024-09-24T10:15:50.999Z</time>
      </trkpt>
      <trkpt lat="42.26228" lon="2.96533">
        <ele>55.47</ele>
        <time>2024-09-24T10:15:55.999Z</time>
      </trkpt>
      <trkpt lat="42.2622" lon="2.96539">
        <ele>55.58</ele>
        <time>2024-09-24T10:16:01.999Z</time>
      </trkpt>
      <trkpt lat="42.26211" lon="2.96545">
        <ele>55.85</ele>
        <time>2024-09-24T10:16:21.999Z</time>
      </trkpt>
      <trkpt lat="42.26212" lon="2.96533">
        <ele>55.24</ele>
        <time>2024-09-24T10:19:52.000Z</time>
      </trkpt>
      <trkpt lat="42.26222" lon="2.96533">
        <ele>54.27</ele>
        <time>2024-09-24T10:21:53.000Z</time>
      </trkpt>
      <trkpt lat="42.26231" lon="2.96531">
        <ele>54.2</ele>
        <time>2024-09-24T10:22:00.000Z</time>
      </trkpt>
      <trkpt lat="42.26245" lon="2.96521">
        <ele>54.17</ele>
        <time>2024-09-24T10:22:05.000Z</time>
      </trkpt>
      <trkpt lat="42.2626" lon="2.96513">
        <ele>54.14</ele>
        <time>2024-09-24T10:22:10.000Z</time>
      </trkpt>
      <trkpt lat="42.26274" lon="2.96509">
        <ele>54.12</ele>
        <time>2024-09-24T10:22:15.000Z</time>
      </trkpt>
      <trkpt lat="42.2629" lon="2.96495">
        <ele>54.1</ele>
        <time>2024-09-24T10:22:20.000Z</time>
      </trkpt>
      <trkpt lat="42.26308" lon="2.96483">
        <ele>54.09</ele>
        <time>2024-09-24T10:22:25.000Z</time>
      </trkpt>
      <trkpt lat="42.26323" lon="2.96473">
        <ele>54.08</ele>
        <time>2024-09-24T10:22:30.000Z</time>
      </trkpt>
      <trkpt lat="42.2634" lon="2.96459">
        <ele>54.07</ele>
        <time>2024-09-24T10:22:35.000Z</time>
      </trkpt>
      <trkpt lat="42.26358" lon="2.9645">
        <ele>54.06</ele>
        <time>2024-09-24T10:22:40.000Z</time>
      </trkpt>
      <trkpt lat="42.26373" lon="2.96441">
        <ele>54.04</ele>
        <time>2024-09-24T10:22:45.000Z</time>
      </trkpt>
      <trkpt lat="42.26388" lon="2.96432">
        <ele>54.03</ele>
        <time>2024-09-24T10:22:50.000Z</time>
      </trkpt>
      <trkpt lat="42.26401" lon="2.9642">
        <ele>54.01</ele>
        <time>2024-09-24T10:22:55.000Z</time>
      </trkpt>
      <trkpt lat="42.26417" lon="2.96414">
        <ele>54</ele>
        <time>2024-09-24T10:23:00.000Z</time>
      </trkpt>
      <trkpt lat="42.26433" lon="2.96407">
        <ele>54</ele>
        <time>2024-09-24T10:23:05.000Z</time>
      </trkpt>
      <trkpt lat="42.2645" lon="2.96394">
        <ele>54.02</ele>
        <time>2024-09-24T10:23:10.000Z</time>
      </trkpt>
      <trkpt lat="42.26466" lon="2.96383">
        <ele>54.03</ele>
        <time>2024-09-24T10:23:15.000Z</time>
      </trkpt>
      <trkpt lat="42.2648" lon="2.96374">
        <ele>54.06</ele>
        <time>2024-09-24T10:23:20.000Z</time>
      </trkpt>
      <trkpt lat="42.26494" lon="2.96362">
        <ele>54.09</ele>
        <time>2024-09-24T10:23:25.000Z</time>
      </trkpt>
      <trkpt lat="42.2651" lon="2.96355">
        <ele>54.12</ele>
        <time>2024-09-24T10:23:30.000Z</time>
      </trkpt>
      <trkpt lat="42.26527" lon="2.96343">
        <ele>54.16</ele>
        <time>2024-09-24T10:23:35.000Z</time>
      </trkpt>
      <trkpt lat="42.26538" lon="2.96333">
        <ele>54.2</ele>
        <time>2024-09-24T10:23:40.000Z</time>
      </trkpt>
      <trkpt lat="42.26547" lon="2.96327">
        <ele>54.31</ele>
        <time>2024-09-24T10:23:52.000Z</time>
      </trkpt>
      <trkpt lat="42.26555" lon="2.96322">
        <ele>54.37</ele>
        <time>2024-09-24T10:23:57.000Z</time>
      </trkpt>
      <trkpt lat="42.26567" lon="2.96312">
        <ele>54.44</ele>
        <time>2024-09-24T10:24:02.000Z</time>
      </trkpt>
      <trkpt lat="42.2658" lon="2.96301">
        <ele>54.5</ele>
        <time>2024-09-24T10:24:07.000Z</time>
      </trkpt>
      <trkpt lat="42.26588" lon="2.96292">
        <ele>54.56</ele>
        <time>2024-09-24T10:24:13.000Z</time>
      </trkpt>
      <trkpt lat="42.266" lon="2.96281">
        <ele>54.49</ele>
        <time>2024-09-24T10:24:18.000Z</time>
      </trkpt>
      <trkpt lat="42.2661" lon="2.96269">
        <ele>54.39</ele>
        <time>2024-09-24T10:24:23.000Z</time>
      </trkpt>
      <trkpt lat="42.26619" lon="2.96251">
        <ele>54.22</ele>
        <time>2024-09-24T10:24:28.000Z</time>
      </trkpt>
      <trkpt lat="42.26628" lon="2.96237">
        <ele>53.98</ele>
        <time>2024-09-24T10:24:33.000Z</time>
      </trkpt>
      <trkpt lat="42.26633" lon="2.96225">
        <ele>53.71</ele>
        <time>2024-09-24T10:24:38.000Z</time>
      </trkpt>
      <trkpt lat="42.26638" lon="2.96215">
        <ele>53.46</ele>
        <time>2024-09-24T10:24:43.000Z</time>
      </trkpt>
      <trkpt lat="42.26649" lon="2.96215">
        <ele>53.25</ele>
        <time>2024-09-24T10:24:48.000Z</time>
      </trkpt>
      <trkpt lat="42.26658" lon="2.96204">
        <ele>53.13</ele>
        <time>2024-09-24T10:24:53.000Z</time>
      </trkpt>
      <trkpt lat="42.26657" lon="2.96186">
        <ele>52.99</ele>
        <time>2024-09-24T10:24:58.000Z</time>
      </trkpt>
      <trkpt lat="42.26655" lon="2.96171">
        <ele>52.84</ele>
        <time>2024-09-24T10:25:03.000Z</time>
      </trkpt>
      <trkpt lat="42.26655" lon="2.96156">
        <ele>52.71</ele>
        <time>2024-09-24T10:25:08.000Z</time>
      </trkpt>
      <trkpt lat="42.26652" lon="2.96137">
        <ele>52.6</ele>
        <time>2024-09-24T10:25:13.000Z</time>
      </trkpt>
      <trkpt lat="42.26653" lon="2.96119">
        <ele>52.51</ele>
        <time>2024-09-24T10:25:18.000Z</time>
      </trkpt>
      <trkpt lat="42.26653" lon="2.96098">
        <ele>52.49</ele>
        <time>2024-09-24T10:25:23.000Z</time>
      </trkpt>
      <trkpt lat="42.26649" lon="2.96083">
        <ele>52.54</ele>
        <time>2024-09-24T10:25:28.000Z</time>
      </trkpt>
      <trkpt lat="42.26647" lon="2.96065">
        <ele>52.69</ele>
        <time>2024-09-24T10:25:33.000Z</time>
      </trkpt>
      <trkpt lat="42.26646" lon="2.96048">
        <ele>52.94</ele>
        <time>2024-09-24T10:25:38.000Z</time>
      </trkpt>
      <trkpt lat="42.26645" lon="2.96032">
        <ele>53.23</ele>
        <time>2024-09-24T10:25:43.000Z</time>
      </trkpt>
      <trkpt lat="42.26646" lon="2.9602">
        <ele>53.55</ele>
        <time>2024-09-24T10:25:48.000Z</time>
      </trkpt>
      <trkpt lat="42.26651" lon="2.96008">
        <ele>53.89</ele>
        <time>2024-09-24T10:25:54.000Z</time>
      </trkpt>
      <trkpt lat="42.26657" lon="2.95999">
        <ele>54.2</ele>
        <time>2024-09-24T10:26:00.000Z</time>
      </trkpt>
      <trkpt lat="42.26665" lon="2.9599">
        <ele>54.41</ele>
        <time>2024-09-24T10:26:05.000Z</time>
      </trkpt>
      <trkpt lat="42.26673" lon="2.95982">
        <ele>54.66</ele>
        <time>2024-09-24T10:26:11.000Z</time>
      </trkpt>
      <trkpt lat="42.2668" lon="2.95974">
        <ele>55.12</ele>
        <time>2024-09-24T10:26:26.000Z</time>
      </trkpt>
      <trkpt lat="42.26688" lon="2.95964">
        <ele>55.56</ele>
        <time>2024-09-24T10:26:35.000Z</time>
      </trkpt>
      <trkpt lat="42.26693" lon="2.95954">
        <ele>55.87</ele>
        <time>2024-09-24T10:26:41.000Z</time>
      </trkpt>
      <trkpt lat="42.26699" lon="2.95944">
        <ele>56.18</ele>
        <time>2024-09-24T10:26:47.000Z</time>
      </trkpt>
      <trkpt lat="42.26707" lon="2.95938">
        <ele>57.49</ele>
        <time>2024-09-24T10:27:41.000Z</time>
      </trkpt>
      <trkpt lat="42.26715" lon="2.95945">
        <ele>57.9</ele>
        <time>2024-09-24T10:27:47.000Z</time>
      </trkpt>
      <trkpt lat="42.26726" lon="2.95947">
        <ele>58.21</ele>
        <time>2024-09-24T10:27:52.000Z</time>
      </trkpt>
      <trkpt lat="42.26734" lon="2.95953">
        <ele>58.87</ele>
        <time>2024-09-24T10:28:03.000Z</time>
      </trkpt>
      <trkpt lat="42.26741" lon="2.95961">
        <ele>59.47</ele>
        <time>2024-09-24T10:28:14.000Z</time>
      </trkpt>
      <trkpt lat="42.26751" lon="2.9596">
        <ele>60.21</ele>
        <time>2024-09-24T10:28:30.000Z</time>
      </trkpt>
      <trkpt lat="42.2676" lon="2.95956">
        <ele>61.03</ele>
        <time>2024-09-24T10:28:44.000Z</time>
      </trkpt>
      <trkpt lat="42.26771" lon="2.95956">
        <ele>61.48</ele>
        <time>2024-09-24T10:29:03.000Z</time>
      </trkpt>
      <trkpt lat="42.26774" lon="2.95968">
        <ele>61.73</ele>
        <time>2024-09-24T10:29:15.000Z</time>
      </trkpt>
      <trkpt lat="42.2677" lon="2.95978">
        <ele>62.16</ele>
        <time>2024-09-24T10:29:46.000Z</time>
      </trkpt>
      <trkpt lat="42.26762" lon="2.95987">
        <ele>62.24</ele>
        <time>2024-09-24T10:29:53.000Z</time>
      </trkpt>
      <trkpt lat="42.26758" lon="2.95998">
        <ele>62.32</ele>
        <time>2024-09-24T10:30:00.000Z</time>
      </trkpt>
      <trkpt lat="42.2675" lon="2.96006">
        <ele>62.69</ele>
        <time>2024-09-24T10:30:51.000Z</time>
      </trkpt>
      <trkpt lat="42.26744" lon="2.96016">
        <ele>62.9</ele>
        <time>2024-09-24T10:31:12.000Z</time>
      </trkpt>
      <trkpt lat="42.26738" lon="2.96025">
        <ele>63.09</ele>
        <time>2024-09-24T10:32:02.999Z</time>
      </trkpt>
      <trkpt lat="42.26745" lon="2.96017">
        <ele>62.34</ele>
        <time>2024-09-24T10:32:47.999Z</time>
      </trkpt>
    </trkseg>
  </trk>
</gpx>